Time,TemperatureF,DewpointF,PressureIn,WindDirection,WindDirectionDegrees,WindSpeedMPH,WindSpeedGustMPH,Humidity,HourlyPrecipIn,Conditions,Clouds,dailyrainin,SoftwareType,DateUTC
2013-09-18 00:00:00,76.8,68.3,29.76,NNE,22,1.3,1.3,75,0.00,,---,0.00,VWS V14.01,2013-09-18 04:00:00,
2013-09-18 00:01:00,76.8,68.3,29.76,NE,45,0.0,1.3,75,0.00,,---,0.00,VWS V14.01,2013-09-18 04:01:00,
2013-09-18 00:02:00,76.8,68.3,29.76,NE,45,1.6,1.6,75,0.00,,---,0.00,VWS V14.01,2013-09-18 04:02:00,
2013-09-18 00:03:00,76.8,68.3,29.76,NE,45,0.0,0.0,75,0.00,,---,0.00,VWS V14.01,2013-09-18 04:03:00,
2013-09-18 00:04:00,76.8,68.3,29.76,East,90,2.2,2.2,75,0.00,,---,0.00,VWS V14.01,2013-09-18 04:04:00,
2013-09-18 00:05:00,76.8,68.3,29.76,ENE,68,2.7,2.7,75,0.00,,---,0.00,VWS V14.01,2013-09-18 04:05:00,
2013-09-18 00:06:00,76.8,68.3,29.76,NNE,22,2.5,3.4,75,0.00,,---,0.00,VWS V14.01,2013-09-18 04:06:00,
2013-09-18 00:07:00,76.8,68.3,29.76,NNE,22,0.0,0.0,75,0.00,,---,0.00,VWS V14.01,2013-09-18 04:07:00,
2013-09-18 00:08:00,76.8,67.9,29.76,NNE,22,0.0,0.0,74,0.00,,---,0.00,VWS V14.01,2013-09-18 04:08:00,
2013-09-18 00:09:00,76.6,67.7,29.76,WNW,292,1.3,1.3,74,0.00,,---,0.00,VWS V14.01,2013-09-18 04:09:00,
2013-09-18 00:10:00,76.6,68.1,29.80,WNW,292,1.1,1.6,75,0.00,,---,0.00,VWS V14.01,2013-09-18 04:10:00,
2013-09-18 00:11:00,76.6,67.7,29.80,SSE,158,0.0,1.3,74,0.00,,---,0.00,VWS V14.01,2013-09-18 04:11:00,
2013-09-18 00:12:00,76.6,67.7,29.79,SSE,158,0.0,0.0,74,0.00,,---,0.00,VWS V14.01,2013-09-18 04:12:00,
2013-09-18 00:13:00,76.6,67.7,29.80,SSE,158,1.3,1.6,74,0.00,,---,0.00,VWS V14.01,2013-09-18 04:13:00,
2013-09-18 00:14:00,76.6,67.7,29.80,NNE,22,2.7,2.7,74,0.00,,---,0.00,VWS V14.01,2013-09-18 04:14:00,
2013-09-18 00:15:00,76.6,67.7,29.80,NE,45,1.6,2.7,74,0.00,,---,0.00,VWS V14.01,2013-09-18 04:15:00,
2013-09-18 00:16:00,76.6,67.7,29.80,NE,45,0.0,1.6,74,0.00,,---,0.00,VWS V14.01,2013-09-18 04:16:00,
2013-09-18 00:17:00,76.5,67.6,29.79,NE,45,0.0,0.0,74,0.00,,---,0.00,VWS V14.01,2013-09-18 04:17:00,
2013-09-18 00:18:00,76.5,67.6,29.80,NE,45,0.0,0.0,74,0.00,,---,0.00,VWS V14.01,2013-09-18 04:18:00,
2013-09-18 00:19:00,76.5,67.6,29.80,NE,45,1.6,2.0,74,0.00,,---,0.00,VWS V14.01,2013-09-18 04:19:00,
2013-09-18 00:20:00,76.5,67.6,29.80,NE,45,0.9,2.2,74,0.00,,---,0.00,VWS V14.01,2013-09-18 04:20:00,
2013-09-18 00:21:00,76.5,67.6,29.80,NE,45,0.9,1.6,74,0.00,,---,0.00,VWS V14.01,2013-09-18 04:21:00,
2013-09-18 00:22:00,76.5,67.6,29.79,NE,45,1.6,2.5,74,0.00,,---,0.00,VWS V14.01,2013-09-18 04:22:00,
2013-09-18 00:23:00,76.3,67.4,29.80,NE,45,0.0,1.6,74,0.00,,---,0.00,VWS V14.01,2013-09-18 04:23:00,
2013-09-18 00:24:00,76.3,67.4,29.80,NE,45,2.2,2.2,74,0.00,,---,0.00,VWS V14.01,2013-09-18 04:24:00,
2013-09-18 00:25:00,76.3,67.4,29.76,NE,45,1.3,2.2,74,0.00,,---,0.00,VWS V14.01,2013-09-18 04:25:00,
2013-09-18 00:26:00,76.3,67.4,29.76,NE,45,0.9,1.3,74,0.00,,---,0.00,VWS V14.01,2013-09-18 04:26:00,
2013-09-18 00:27:00,76.3,67.4,29.76,NE,45,0.0,1.3,74,0.00,,---,0.00,VWS V14.01,2013-09-18 04:27:00,
2013-09-18 00:28:00,76.3,67.4,29.76,NE,45,2.5,2.5,74,0.00,,---,0.00,VWS V14.01,2013-09-18 04:28:00,
2013-09-18 00:29:00,76.3,67.4,29.76,NE,45,0.9,2.5,74,0.00,,---,0.00,VWS V14.01,2013-09-18 04:29:00,
2013-09-18 00:30:00,76.1,67.2,29.76,NE,45,0.0,0.9,74,0.00,,---,0.00,VWS V14.01,2013-09-18 04:30:00,
2013-09-18 00:31:00,76.1,67.2,29.76,NE,45,0.0,1.6,74,0.00,,---,0.00,VWS V14.01,2013-09-18 04:31:00,
2013-09-18 00:32:00,76.1,67.2,29.76,NE,45,1.6,1.6,74,0.00,,---,0.00,VWS V14.01,2013-09-18 04:32:00,
2013-09-18 00:33:00,76.1,67.2,29.76,NE,45,0.0,1.6,74,0.00,,---,0.00,VWS V14.01,2013-09-18 04:33:00,
2013-09-18 00:34:00,76.1,67.6,29.76,NE,45,0.0,1.1,75,0.00,,---,0.00,VWS V14.01,2013-09-18 04:34:00,
2013-09-18 00:35:00,76.1,67.6,29.76,NE,45,0.9,0.9,75,0.00,,---,0.00,VWS V14.01,2013-09-18 04:35:00,
2013-09-18 00:36:00,76.1,67.6,29.76,NE,45,0.0,1.1,75,0.00,,---,0.00,VWS V14.01,2013-09-18 04:36:00,
2013-09-18 00:37:00,76.1,67.6,29.76,NE,45,1.3,1.3,75,0.00,,---,0.00,VWS V14.01,2013-09-18 04:37:00,
2013-09-18 00:38:00,75.9,67.4,29.76,NE,45,0.0,1.3,75,0.00,,---,0.00,VWS V14.01,2013-09-18 04:38:00,
2013-09-18 00:39:00,75.9,67.4,29.76,NE,45,1.1,1.1,75,0.00,,---,0.00,VWS V14.01,2013-09-18 04:39:00,
2013-09-18 00:40:00,75.9,67.4,29.76,NE,45,0.0,1.3,75,0.00,,---,0.00,VWS V14.01,2013-09-18 04:40:00,
2013-09-18 00:41:00,75.9,67.4,29.76,East,90,0.9,0.9,75,0.00,,---,0.00,VWS V14.01,2013-09-18 04:41:00,
2013-09-18 00:42:00,75.9,67.4,29.76,East,90,0.0,0.9,75,0.00,,---,0.00,VWS V14.01,2013-09-18 04:42:00,
2013-09-18 00:43:00,75.9,67.4,29.76,East,90,0.0,0.0,75,0.00,,---,0.00,VWS V14.01,2013-09-18 04:43:00,
2013-09-18 00:44:00,75.9,67.4,29.76,ESE,112,0.0,1.1,75,0.00,,---,0.00,VWS V14.01,2013-09-18 04:44:00,
2013-09-18 00:46:00,75.9,67.4,29.76,NE,45,0.9,1.6,75,0.00,,---,0.00,VWS V14.01,2013-09-18 04:46:00,
2013-09-18 00:47:00,75.9,67.4,29.76,NE,45,0.0,0.0,75,0.00,,---,0.00,VWS V14.01,2013-09-18 04:47:00,
2013-09-18 00:49:00,75.9,67.8,29.76,NNE,22,1.3,4.0,76,0.00,,---,0.00,VWS V14.01,2013-09-18 04:49:00,
2013-09-18 00:50:00,76.1,68.0,29.76,North,0,3.1,3.1,76,0.00,,---,0.00,VWS V14.01,2013-09-18 04:50:00,
2013-09-18 00:51:00,76.1,68.0,29.76,WSW,248,0.0,3.1,76,0.00,,---,0.00,VWS V14.01,2013-09-18 04:51:00,
2013-09-18 00:52:00,76.1,68.0,29.76,WSW,248,0.0,0.9,76,0.00,,---,0.00,VWS V14.01,2013-09-18 04:52:00,
2013-09-18 00:53:00,76.1,68.0,29.76,WSW,248,0.0,0.0,76,0.00,,---,0.00,VWS V14.01,2013-09-18 04:53:00,
2013-09-18 00:55:00,76.1,68.0,29.76,NW,315,1.1,2.7,76,0.00,,---,0.00,VWS V14.01,2013-09-18 04:55:00,
2013-09-18 00:56:00,76.1,68.0,29.76,NE,45,2.0,2.0,76,0.00,,---,0.00,VWS V14.01,2013-09-18 04:56:00,
2013-09-18 00:57:00,76.3,68.2,29.76,NNE,22,1.1,3.4,76,0.00,,---,0.00,VWS V14.01,2013-09-18 04:57:00,
2013-09-18 00:58:00,76.3,68.2,29.76,NNE,22,3.1,3.1,76,0.00,,---,0.00,VWS V14.01,2013-09-18 04:58:00,
2013-09-18 00:59:00,76.3,68.2,29.76,NNE,22,2.5,3.1,76,0.00,,---,0.00,VWS V14.01,2013-09-18 04:59:00,
2013-09-18 01:00:00,76.3,68.2,29.76,NNE,22,0.0,2.5,76,0.00,,---,0.00,VWS V14.01,2013-09-18 05:00:00,
2013-09-18 01:01:00,76.3,68.2,29.76,NE,45,2.5,2.5,76,0.00,,---,0.00,VWS V14.01,2013-09-18 05:01:00,
2013-09-18 01:02:00,76.3,68.2,29.76,NE,45,1.1,2.5,76,0.00,,---,0.00,VWS V14.01,2013-09-18 05:02:00,
2013-09-18 01:03:00,76.3,68.2,29.76,East,90,1.3,1.3,76,0.00,,---,0.00,VWS V14.01,2013-09-18 05:03:00,
2013-09-18 01:05:00,76.3,68.2,29.76,ESE,112,0.0,1.3,76,0.00,,---,0.00,VWS V14.01,2013-09-18 05:05:00,
2013-09-18 01:06:00,76.3,68.2,29.76,ESE,112,0.0,1.1,76,0.00,,---,0.00,VWS V14.01,2013-09-18 05:06:00,
2013-09-18 01:07:00,76.3,68.2,29.76,ESE,112,0.0,0.0,76,0.00,,---,0.00,VWS V14.01,2013-09-18 05:07:00,
2013-09-18 01:08:00,76.1,68.0,29.76,NNE,22,1.3,1.3,76,0.00,,---,0.00,VWS V14.01,2013-09-18 05:08:00,
2013-09-18 01:09:00,76.1,68.0,29.76,NW,315,1.3,2.2,76,0.00,,---,0.00,VWS V14.01,2013-09-18 05:09:00,
2013-09-18 01:10:00,76.1,67.6,29.76,NNW,338,0.9,2.2,75,0.00,,---,0.00,VWS V14.01,2013-09-18 05:10:00,
2013-09-18 01:11:00,76.1,67.6,29.76,East,90,1.1,2.9,75,0.00,,---,0.00,VWS V14.01,2013-09-18 05:11:00,
2013-09-18 01:12:00,76.1,67.6,29.76,East,90,1.1,2.9,75,0.00,,---,0.00,VWS V14.01,2013-09-18 05:12:00,
2013-09-18 01:13:00,76.1,68.0,29.76,North,0,2.5,3.6,76,0.00,,---,0.00,VWS V14.01,2013-09-18 05:13:00,
2013-09-18 01:14:00,76.1,68.0,29.76,NE,45,0.9,4.0,76,0.00,,---,0.00,VWS V14.01,2013-09-18 05:14:00,
2013-09-18 01:15:00,76.1,68.0,29.76,North,0,2.0,2.0,76,0.00,,---,0.00,VWS V14.01,2013-09-18 05:15:00,
2013-09-18 01:16:00,76.3,68.2,29.76,East,90,1.1,2.7,76,0.00,,---,0.00,VWS V14.01,2013-09-18 05:16:00,
2013-09-18 01:17:00,76.3,68.2,29.76,NW,315,2.2,2.2,76,0.00,,---,0.00,VWS V14.01,2013-09-18 05:17:00,
2013-09-18 01:18:00,76.3,67.8,29.76,ESE,112,1.1,2.2,75,0.00,,---,0.00,VWS V14.01,2013-09-18 05:18:00,
2013-09-18 01:19:00,76.3,67.8,29.76,North,0,2.7,2.7,75,0.00,,---,0.00,VWS V14.01,2013-09-18 05:19:00,
2013-09-18 01:20:00,76.3,67.8,29.76,NNE,22,1.3,2.7,75,0.00,,---,0.00,VWS V14.01,2013-09-18 05:20:00,
2013-09-18 01:21:00,76.3,67.8,29.76,NE,45,0.9,2.7,75,0.00,,---,0.00,VWS V14.01,2013-09-18 05:21:00,
2013-09-18 01:22:00,76.3,67.8,29.76,NE,45,0.0,1.3,75,0.00,,---,0.00,VWS V14.01,2013-09-18 05:22:00,
2013-09-18 01:23:00,76.1,67.6,29.76,WNW,292,1.3,2.2,75,0.00,,---,0.00,VWS V14.01,2013-09-18 05:23:00,
2013-09-18 01:24:00,76.3,67.8,29.76,North,0,1.6,2.5,75,0.00,,---,0.00,VWS V14.01,2013-09-18 05:24:00,
2013-09-18 01:25:00,76.3,67.8,29.76,NE,45,1.3,2.7,75,0.00,,---,0.00,VWS V14.01,2013-09-18 05:25:00,
2013-09-18 01:26:00,76.3,67.8,29.76,NE,45,0.0,1.3,75,0.00,,---,0.00,VWS V14.01,2013-09-18 05:26:00,
2013-09-18 01:27:00,76.3,67.8,29.76,NE,45,0.0,0.0,75,0.00,,---,0.00,VWS V14.01,2013-09-18 05:27:00,
2013-09-18 01:28:00,76.3,67.8,29.76,NE,45,1.3,2.0,75,0.00,,---,0.00,VWS V14.01,2013-09-18 05:28:00,
2013-09-18 01:29:00,76.3,67.8,29.76,NE,45,0.9,1.3,75,0.00,,---,0.00,VWS V14.01,2013-09-18 05:29:00,
2013-09-18 01:30:00,76.3,67.8,29.76,NE,45,0.0,0.9,75,0.00,,---,0.00,VWS V14.01,2013-09-18 05:30:00,
2013-09-18 01:31:00,76.1,67.6,29.76,NE,45,0.0,0.0,75,0.00,,---,0.00,VWS V14.01,2013-09-18 05:31:00,
2013-09-18 01:32:00,76.1,67.6,29.76,NE,45,0.0,0.0,75,0.00,,---,0.00,VWS V14.01,2013-09-18 05:32:00,
2013-09-18 01:33:00,76.1,67.2,29.76,NE,45,0.0,0.0,74,0.00,,---,0.00,VWS V14.01,2013-09-18 05:33:00,
2013-09-18 01:34:00,75.9,67.0,29.76,NE,45,0.0,0.0,74,0.00,,---,0.00,VWS V14.01,2013-09-18 05:34:00,
2013-09-18 01:35:00,75.9,67.0,29.76,NE,45,0.0,0.0,74,0.00,,---,0.00,VWS V14.01,2013-09-18 05:35:00,
2013-09-18 01:36:00,75.9,67.0,29.76,NE,45,0.9,1.6,74,0.00,,---,0.00,VWS V14.01,2013-09-18 05:36:00,
2013-09-18 01:37:00,75.9,67.0,29.76,NE,45,0.0,1.3,74,0.00,,---,0.00,VWS V14.01,2013-09-18 05:37:00,
2013-09-18 01:38:00,75.7,66.9,29.76,NE,45,0.0,0.0,74,0.00,,---,0.00,VWS V14.01,2013-09-18 05:38:00,
2013-09-18 01:39:00,75.7,66.9,29.76,NE,45,0.0,0.0,74,0.00,,---,0.00,VWS V14.01,2013-09-18 05:39:00,
2013-09-18 01:40:00,75.7,66.9,29.76,NE,45,0.0,0.0,74,0.00,,---,0.00,VWS V14.01,2013-09-18 05:40:00,
2013-09-18 01:41:00,75.6,66.7,29.76,NE,45,0.0,0.0,74,0.00,,---,0.00,VWS V14.01,2013-09-18 05:41:00,
2013-09-18 01:42:00,75.6,66.7,29.76,NE,45,0.0,0.0,74,0.00,,---,0.00,VWS V14.01,2013-09-18 05:42:00,
2013-09-18 01:43:00,75.6,67.1,29.76,NE,45,0.0,0.0,75,0.00,,---,0.00,VWS V14.01,2013-09-18 05:43:00,
2013-09-18 01:44:00,75.6,67.1,29.76,NE,45,2.2,2.2,75,0.00,,---,0.00,VWS V14.01,2013-09-18 05:44:00,
2013-09-18 01:45:00,75.6,67.1,29.76,NE,45,1.3,2.2,75,0.00,,---,0.00,VWS V14.01,2013-09-18 05:45:00,
2013-09-18 01:46:00,75.6,67.1,29.76,NE,45,0.0,1.3,75,0.00,,---,0.00,VWS V14.01,2013-09-18 05:46:00,
2013-09-18 01:47:00,75.6,67.5,29.76,NE,45,1.1,1.6,76,0.00,,---,0.00,VWS V14.01,2013-09-18 05:47:00,
2013-09-18 01:48:00,75.6,67.5,29.76,NE,45,0.0,1.3,76,0.00,,---,0.00,VWS V14.01,2013-09-18 05:48:00,
2013-09-18 01:49:00,75.6,67.5,29.76,NE,45,0.0,2.0,76,0.00,,---,0.00,VWS V14.01,2013-09-18 05:49:00,
2013-09-18 01:50:00,75.6,67.5,29.76,NE,45,0.0,0.9,76,0.00,,---,0.00,VWS V14.01,2013-09-18 05:50:00,
2013-09-18 01:51:00,75.6,67.5,29.76,NE,45,0.9,0.9,76,0.00,,---,0.00,VWS V14.01,2013-09-18 05:51:00,
2013-09-18 01:52:00,75.6,67.5,29.76,NE,45,0.9,1.3,76,0.00,,---,0.00,VWS V14.01,2013-09-18 05:52:00,
2013-09-18 01:53:00,75.6,67.5,29.76,West,270,1.6,1.6,76,0.00,,---,0.00,VWS V14.01,2013-09-18 05:53:00,
2013-09-18 01:54:00,75.6,67.5,29.76,ENE,68,0.0,2.0,76,0.00,,---,0.00,VWS V14.01,2013-09-18 05:54:00,
2013-09-18 01:55:00,75.6,67.5,29.76,ENE,68,0.0,1.1,76,0.00,,---,0.00,VWS V14.01,2013-09-18 05:55:00,
2013-09-18 01:56:00,75.6,67.8,29.76,ENE,68,0.0,0.9,77,0.00,,---,0.00,VWS V14.01,2013-09-18 05:56:00,
2013-09-18 01:57:00,75.6,67.8,29.76,ENE,68,0.0,0.0,77,0.00,,---,0.00,VWS V14.01,2013-09-18 05:57:00,
2013-09-18 01:58:00,75.6,67.8,29.76,ENE,68,1.6,1.6,77,0.00,,---,0.00,VWS V14.01,2013-09-18 05:58:00,
2013-09-18 01:59:00,75.6,67.8,29.76,NNW,338,2.0,2.0,77,0.00,,---,0.00,VWS V14.01,2013-09-18 05:59:00,
2013-09-18 02:00:00,75.6,67.8,29.76,North,0,1.6,4.0,77,0.00,,---,0.00,VWS V14.01,2013-09-18 06:00:00,
2013-09-18 02:01:00,75.6,67.8,29.76,North,0,1.1,1.6,77,0.00,,---,0.00,VWS V14.01,2013-09-18 06:01:00,
2013-09-18 02:02:00,75.6,67.8,29.76,ENE,68,2.2,2.2,77,0.00,,---,0.00,VWS V14.01,2013-09-18 06:02:00,
2013-09-18 02:03:00,75.7,68.0,29.76,NNE,22,1.1,2.7,77,0.00,,---,0.00,VWS V14.01,2013-09-18 06:03:00,
2013-09-18 02:04:00,75.7,68.4,29.76,ESE,112,2.0,2.0,78,0.00,,---,0.00,VWS V14.01,2013-09-18 06:04:00,
2013-09-18 02:05:00,75.7,68.4,29.76,ESE,112,1.6,2.0,78,0.00,,---,0.00,VWS V14.01,2013-09-18 06:05:00,
2013-09-18 02:06:00,75.7,68.8,29.76,East,90,1.6,1.6,79,0.00,,---,0.00,VWS V14.01,2013-09-18 06:06:00,
2013-09-18 02:07:00,75.9,68.9,29.76,North,0,2.0,2.2,79,0.00,,---,0.00,VWS V14.01,2013-09-18 06:07:00,
2013-09-18 02:08:00,75.9,68.6,29.76,ENE,68,2.7,2.7,78,0.00,,---,0.00,VWS V14.01,2013-09-18 06:08:00,
2013-09-18 02:09:00,75.9,68.9,29.76,NE,45,1.6,2.7,79,0.00,,---,0.00,VWS V14.01,2013-09-18 06:09:00,
2013-09-18 02:10:00,75.9,68.9,29.76,NE,45,0.0,2.2,79,0.00,,---,0.00,VWS V14.01,2013-09-18 06:10:00,
2013-09-18 02:11:00,75.9,68.9,29.76,NE,45,0.0,2.2,79,0.00,,---,0.00,VWS V14.01,2013-09-18 06:11:00,
2013-09-18 02:12:00,76.1,69.1,29.76,NNW,338,2.7,2.7,79,0.00,,---,0.00,VWS V14.01,2013-09-18 06:12:00,
2013-09-18 02:13:00,76.1,69.1,29.76,NW,315,2.0,2.9,79,0.00,,---,0.00,VWS V14.01,2013-09-18 06:13:00,
2013-09-18 02:14:00,76.1,69.1,29.76,NE,45,1.1,2.0,79,0.00,,---,0.00,VWS V14.01,2013-09-18 06:14:00,
2013-09-18 02:15:00,76.1,69.1,29.76,NNE,22,2.0,2.0,79,0.00,,---,0.00,VWS V14.01,2013-09-18 06:15:00,
2013-09-18 02:16:00,76.1,69.1,29.76,West,270,2.0,2.0,79,0.00,,---,0.00,VWS V14.01,2013-09-18 06:16:00,
2013-09-18 02:17:00,76.1,69.1,29.76,NNW,338,2.9,3.6,79,0.00,,---,0.00,VWS V14.01,2013-09-18 06:17:00,
2013-09-18 02:18:00,76.1,69.1,29.76,NE,45,1.1,2.9,79,0.00,,---,0.00,VWS V14.01,2013-09-18 06:18:00,
2013-09-18 02:19:00,76.1,69.1,29.76,North,0,2.7,2.7,79,0.00,,---,0.00,VWS V14.01,2013-09-18 06:19:00,
2013-09-18 02:20:00,76.1,69.1,29.76,NNE,22,1.6,2.9,79,0.00,,---,0.00,VWS V14.01,2013-09-18 06:20:00,
2013-09-18 02:21:00,76.1,69.1,29.76,NE,45,1.6,2.5,79,0.00,,---,0.00,VWS V14.01,2013-09-18 06:21:00,
2013-09-18 02:22:00,76.1,69.1,29.76,NE,45,1.1,2.5,79,0.00,,---,0.00,VWS V14.01,2013-09-18 06:22:00,
2013-09-18 02:23:00,76.1,69.1,29.76,NE,45,0.0,1.1,79,0.00,,---,0.00,VWS V14.01,2013-09-18 06:23:00,
2013-09-18 02:24:00,76.1,69.1,29.76,NE,45,0.0,0.0,79,0.00,,---,0.00,VWS V14.01,2013-09-18 06:24:00,
2013-09-18 02:25:00,76.1,69.1,29.76,NW,315,2.0,2.0,79,0.00,,---,0.00,VWS V14.01,2013-09-18 06:25:00,
2013-09-18 02:26:00,76.1,69.1,29.76,North,0,0.9,2.0,79,0.00,,---,0.00,VWS V14.01,2013-09-18 06:26:00,
2013-09-18 02:27:00,76.1,69.1,29.76,West,270,2.0,2.9,79,0.00,,---,0.00,VWS V14.01,2013-09-18 06:27:00,
2013-09-18 02:28:00,76.1,69.1,29.76,East,90,1.3,2.0,79,0.00,,---,0.00,VWS V14.01,2013-09-18 06:28:00,
2013-09-18 02:29:00,76.1,69.1,29.76,East,90,0.0,1.3,79,0.00,,---,0.00,VWS V14.01,2013-09-18 06:29:00,
2013-09-18 02:30:00,76.1,69.1,29.76,East,90,0.0,0.0,79,0.00,,---,0.00,VWS V14.01,2013-09-18 06:30:00,
2013-09-18 02:31:00,76.1,69.1,29.76,NE,45,0.0,2.2,79,0.00,,---,0.00,VWS V14.01,2013-09-18 06:31:00,
2013-09-18 02:32:00,76.1,69.1,29.76,North,0,2.7,2.7,79,0.00,,---,0.00,VWS V14.01,2013-09-18 06:32:00,
2013-09-18 02:33:00,76.1,69.1,29.76,North,0,2.7,2.7,79,0.00,,---,0.00,VWS V14.01,2013-09-18 06:33:00,
2013-09-18 02:34:00,76.1,69.1,29.76,NNE,22,2.0,2.7,79,0.00,,---,0.00,VWS V14.01,2013-09-18 06:34:00,
2013-09-18 02:35:00,76.1,69.1,29.76,WNW,292,1.3,2.0,79,0.00,,---,0.00,VWS V14.01,2013-09-18 06:35:00,
2013-09-18 02:36:00,75.9,68.9,29.76,NE,45,3.6,3.6,79,0.00,,---,0.00,VWS V14.01,2013-09-18 06:36:00,
2013-09-18 02:37:00,75.9,68.9,29.76,NNE,22,1.3,3.6,79,0.00,,---,0.00,VWS V14.01,2013-09-18 06:37:00,
2013-09-18 02:38:00,75.9,68.9,29.76,NNE,22,0.9,2.0,79,0.00,,---,0.00,VWS V14.01,2013-09-18 06:38:00,
2013-09-18 02:39:00,75.9,68.9,29.76,NNE,22,1.1,1.3,79,0.00,,---,0.00,VWS V14.01,2013-09-18 06:39:00,
2013-09-18 02:40:00,75.9,68.9,29.76,NNE,22,1.3,1.3,79,0.00,,---,0.00,VWS V14.01,2013-09-18 06:40:00,
2013-09-18 02:41:00,75.9,68.9,29.76,NNE,22,0.0,1.3,79,0.00,,---,0.00,VWS V14.01,2013-09-18 06:41:00,
2013-09-18 02:42:00,75.9,68.9,29.76,NNE,22,0.0,1.1,79,0.00,,---,0.00,VWS V14.01,2013-09-18 06:42:00,
2013-09-18 02:43:00,75.9,68.9,29.76,NNE,22,2.0,2.0,79,0.00,,---,0.00,VWS V14.01,2013-09-18 06:43:00,
2013-09-18 02:44:00,75.7,68.8,29.76,NNE,22,2.0,2.2,79,0.00,,---,0.00,VWS V14.01,2013-09-18 06:44:00,
2013-09-18 02:45:00,75.7,68.8,29.76,NW,315,2.7,2.7,79,0.00,,---,0.00,VWS V14.01,2013-09-18 06:45:00,
2013-09-18 02:46:00,75.7,68.8,29.76,NW,315,1.1,2.7,79,0.00,,---,0.00,VWS V14.01,2013-09-18 06:46:00,
2013-09-18 02:49:00,75.7,68.8,29.76,ENE,68,0.9,1.3,79,0.00,,---,0.00,VWS V14.01,2013-09-18 06:49:00,
2013-09-18 02:50:00,75.7,68.8,29.76,WNW,292,1.6,2.0,79,0.00,,---,0.00,VWS V14.01,2013-09-18 06:50:00,
2013-09-18 02:51:00,75.6,68.6,29.76,West,270,1.6,2.5,79,0.00,,---,0.00,VWS V14.01,2013-09-18 06:51:00,
2013-09-18 02:52:00,75.6,68.6,29.76,NNW,338,0.9,2.0,79,0.00,,---,0.00,VWS V14.01,2013-09-18 06:52:00,
2013-09-18 02:53:00,75.6,68.6,29.76,NNW,338,0.0,0.9,79,0.00,,---,0.00,VWS V14.01,2013-09-18 06:53:00,
2013-09-18 02:54:00,75.6,68.6,29.76,North,0,0.9,1.1,79,0.00,,---,0.00,VWS V14.01,2013-09-18 06:54:00,
2013-09-18 02:55:00,75.6,68.6,29.74,North,0,0.0,1.3,79,0.00,,---,0.00,VWS V14.01,2013-09-18 06:55:00,
2013-09-18 02:56:00,75.6,68.6,29.74,North,0,0.0,0.0,79,0.00,,---,0.00,VWS V14.01,2013-09-18 06:56:00,
2013-09-18 02:57:00,75.6,68.6,29.74,North,0,0.0,0.0,79,0.00,,---,0.00,VWS V14.01,2013-09-18 06:57:00,
2013-09-18 02:58:00,75.6,68.6,29.74,North,0,0.0,0.0,79,0.00,,---,0.00,VWS V14.01,2013-09-18 06:58:00,
2013-09-18 02:59:00,75.4,68.4,29.74,North,0,0.0,0.0,79,0.00,,---,0.00,VWS V14.01,2013-09-18 06:59:00,
2013-09-18 03:00:00,75.4,68.4,29.74,North,0,0.0,0.0,79,0.00,,---,0.00,VWS V14.01,2013-09-18 07:00:00,
2013-09-18 03:01:00,75.4,68.4,29.74,North,0,0.0,0.0,79,0.00,,---,0.00,VWS V14.01,2013-09-18 07:01:00,
2013-09-18 03:02:00,75.4,68.4,29.74,North,0,0.0,0.0,79,0.00,,---,0.00,VWS V14.01,2013-09-18 07:02:00,
2013-09-18 03:03:00,75.2,68.2,29.74,NE,45,2.0,2.0,79,0.00,,---,0.00,VWS V14.01,2013-09-18 07:03:00,
2013-09-18 03:04:00,75.2,68.2,29.74,NE,45,0.0,2.0,79,0.00,,---,0.00,VWS V14.01,2013-09-18 07:04:00,
2013-09-18 03:05:00,75.2,68.2,29.74,NE,45,0.0,0.0,79,0.00,,---,0.00,VWS V14.01,2013-09-18 07:05:00,
2013-09-18 03:06:00,75.2,68.2,29.74,NE,45,0.0,0.0,79,0.00,,---,0.00,VWS V14.01,2013-09-18 07:06:00,
2013-09-18 03:07:00,75.2,68.2,29.74,NE,45,1.6,1.6,79,0.00,,---,0.00,VWS V14.01,2013-09-18 07:07:00,
2013-09-18 03:08:00,75.0,68.4,29.74,NE,45,0.0,1.6,80,0.00,,---,0.00,VWS V14.01,2013-09-18 07:08:00,
2013-09-18 03:09:00,75.0,68.4,29.74,NE,45,0.0,0.0,80,0.00,,---,0.00,VWS V14.01,2013-09-18 07:09:00,
2013-09-18 03:10:00,75.0,68.4,29.74,NE,45,0.0,0.0,80,0.00,,---,0.00,VWS V14.01,2013-09-18 07:10:00,
2013-09-18 03:11:00,75.0,68.4,29.74,NNE,22,2.0,2.0,80,0.00,,---,0.00,VWS V14.01,2013-09-18 07:11:00,
2013-09-18 03:12:00,75.0,68.4,29.74,NNE,22,0.0,2.0,80,0.00,,---,0.00,VWS V14.01,2013-09-18 07:12:00,
2013-09-18 03:13:00,74.8,68.3,29.74,NNE,22,0.0,0.0,80,0.00,,---,0.00,VWS V14.01,2013-09-18 07:13:00,
2013-09-18 03:14:00,74.8,68.3,29.74,ENE,68,0.9,0.9,80,0.00,,---,0.00,VWS V14.01,2013-09-18 07:14:00,
2013-09-18 03:15:00,74.8,68.3,29.74,ENE,68,0.0,0.9,80,0.00,,---,0.00,VWS V14.01,2013-09-18 07:15:00,
2013-09-18 03:16:00,74.8,68.3,29.74,ENE,68,0.0,0.0,80,0.00,,---,0.00,VWS V14.01,2013-09-18 07:16:00,
2013-09-18 03:17:00,74.8,68.3,29.74,ENE,68,0.0,1.3,80,0.00,,---,0.00,VWS V14.01,2013-09-18 07:17:00,
2013-09-18 03:18:00,74.8,68.3,29.74,ENE,68,1.3,1.3,80,0.00,,---,0.00,VWS V14.01,2013-09-18 07:18:00,
2013-09-18 03:19:00,74.8,68.3,29.74,ENE,68,0.0,1.3,80,0.00,,---,0.00,VWS V14.01,2013-09-18 07:19:00,
2013-09-18 03:20:00,74.8,68.3,29.74,ENE,68,0.0,0.0,80,0.00,,---,0.00,VWS V14.01,2013-09-18 07:20:00,
2013-09-18 03:21:00,74.8,68.3,29.74,ENE,68,0.0,0.0,80,0.00,,---,0.00,VWS V14.01,2013-09-18 07:21:00,
2013-09-18 03:22:00,74.8,68.3,29.74,ENE,68,0.0,0.0,80,0.00,,---,0.00,VWS V14.01,2013-09-18 07:22:00,
2013-09-18 03:23:00,74.8,68.3,29.74,ENE,68,0.0,0.0,80,0.00,,---,0.00,VWS V14.01,2013-09-18 07:23:00,
2013-09-18 03:24:00,74.8,68.3,29.74,NE,45,0.0,0.0,80,0.00,,---,0.00,VWS V14.01,2013-09-18 07:24:00,
2013-09-18 03:25:00,74.8,68.3,29.74,NE,45,1.3,1.6,80,0.00,,---,0.00,VWS V14.01,2013-09-18 07:25:00,
2013-09-18 03:26:00,74.8,68.3,29.74,NE,45,2.2,2.2,80,0.00,,---,0.00,VWS V14.01,2013-09-18 07:26:00,
2013-09-18 03:27:00,74.8,68.6,29.74,NE,45,0.0,2.2,81,0.00,,---,0.00,VWS V14.01,2013-09-18 07:27:00,
2013-09-18 03:28:00,74.8,68.6,29.74,NE,45,0.0,0.0,81,0.00,,---,0.00,VWS V14.01,2013-09-18 07:28:00,
2013-09-18 03:29:00,74.7,68.4,29.74,NNW,338,0.9,1.3,81,0.00,,---,0.00,VWS V14.01,2013-09-18 07:29:00,
2013-09-18 03:30:00,74.7,68.4,29.74,NNW,338,1.6,3.8,81,0.00,,---,0.00,VWS V14.01,2013-09-18 07:30:00,
2013-09-18 03:31:00,74.8,68.6,29.74,NNE,22,1.6,1.6,81,0.00,,---,0.00,VWS V14.01,2013-09-18 07:31:00,
2013-09-18 03:32:00,74.8,68.6,29.74,NNE,22,2.0,2.2,81,0.00,,---,0.00,VWS V14.01,2013-09-18 07:32:00,
2013-09-18 03:33:00,74.8,68.6,29.74,NW,315,2.5,2.5,81,0.00,,---,0.00,VWS V14.01,2013-09-18 07:33:00,
2013-09-18 03:34:00,74.8,68.6,29.74,NNW,338,1.3,2.5,81,0.00,,---,0.00,VWS V14.01,2013-09-18 07:34:00,
2013-09-18 03:35:00,74.8,68.6,29.74,NNW,338,0.0,1.3,81,0.00,,---,0.00,VWS V14.01,2013-09-18 07:35:00,
2013-09-18 03:36:00,74.8,68.6,29.74,NNW,338,2.0,2.0,81,0.00,,---,0.00,VWS V14.01,2013-09-18 07:36:00,
2013-09-18 03:37:00,74.8,68.6,29.74,NW,315,2.7,2.7,81,0.00,,---,0.00,VWS V14.01,2013-09-18 07:37:00,
2013-09-18 03:38:00,74.8,68.6,29.74,NW,315,0.0,2.7,81,0.00,,---,0.00,VWS V14.01,2013-09-18 07:38:00,
2013-09-18 03:39:00,74.8,69.0,29.74,NW,315,0.0,0.0,82,0.00,,---,0.00,VWS V14.01,2013-09-18 07:39:00,
2013-09-18 03:40:00,74.8,69.0,29.74,North,0,1.3,1.3,82,0.00,,---,0.00,VWS V14.01,2013-09-18 07:40:00,
2013-09-18 03:41:00,74.8,69.0,29.74,NE,45,2.0,2.0,82,0.00,,---,0.00,VWS V14.01,2013-09-18 07:41:00,
2013-09-18 03:42:00,74.8,69.0,29.74,North,0,3.6,3.6,82,0.00,,---,0.00,VWS V14.01,2013-09-18 07:42:00,
2013-09-18 03:43:00,74.8,69.0,29.74,SE,135,0.9,3.6,82,0.00,,---,0.00,VWS V14.01,2013-09-18 07:43:00,
2013-09-18 03:44:00,74.8,69.0,29.74,North,0,2.9,2.9,82,0.00,,---,0.00,VWS V14.01,2013-09-18 07:44:00,
2013-09-18 03:45:00,74.8,69.0,29.74,North,0,2.7,3.1,82,0.00,,---,0.00,VWS V14.01,2013-09-18 07:45:00,
2013-09-18 03:46:00,75.0,69.5,29.74,North,0,0.9,0.9,83,0.00,,---,0.00,VWS V14.01,2013-09-18 07:46:00,
2013-09-18 03:47:00,75.0,69.5,29.74,North,0,0.0,1.1,83,0.00,,---,0.00,VWS V14.01,2013-09-18 07:47:00,
2013-09-18 03:48:00,75.2,69.7,29.74,North,0,1.3,2.0,83,0.00,,---,0.00,VWS V14.01,2013-09-18 07:48:00,
2013-09-18 03:49:00,75.2,69.7,29.74,NNW,338,4.3,4.3,83,0.00,,---,0.00,VWS V14.01,2013-09-18 07:49:00,
2013-09-18 03:50:00,75.2,69.7,29.74,NW,315,4.3,4.3,83,0.00,,---,0.00,VWS V14.01,2013-09-18 07:50:00,
2013-09-18 03:51:00,75.2,69.7,29.74,NNW,338,1.6,1.6,83,0.00,,---,0.00,VWS V14.01,2013-09-18 07:51:00,
2013-09-18 03:52:00,75.2,69.7,29.74,NW,315,1.6,3.1,83,0.00,,---,0.00,VWS V14.01,2013-09-18 07:52:00,
2013-09-18 03:53:00,75.2,69.7,29.74,NW,315,2.0,2.0,83,0.00,,---,0.00,VWS V14.01,2013-09-18 07:53:00,
2013-09-18 03:54:00,75.2,69.7,29.74,NNE,22,1.1,3.6,83,0.00,,---,0.00,VWS V14.01,2013-09-18 07:54:00,
2013-09-18 03:55:00,75.2,69.7,29.74,ENE,68,2.0,2.9,83,0.00,,---,0.00,VWS V14.01,2013-09-18 07:55:00,
2013-09-18 03:56:00,75.2,69.7,29.74,ENE,68,2.2,2.2,83,0.00,,---,0.00,VWS V14.01,2013-09-18 07:56:00,
2013-09-18 03:57:00,75.4,69.9,29.74,North,0,2.0,2.0,83,0.00,,---,0.00,VWS V14.01,2013-09-18 07:57:00,
2013-09-18 03:58:00,75.4,69.9,29.74,North,0,3.1,3.6,83,0.00,,---,0.00,VWS V14.01,2013-09-18 07:58:00,
2013-09-18 03:59:00,75.4,69.9,29.74,NW,315,0.9,3.1,83,0.00,,---,0.00,VWS V14.01,2013-09-18 07:59:00,
2013-09-18 04:00:00,75.4,69.9,29.74,NE,45,2.5,2.5,83,0.00,,---,0.00,VWS V14.01,2013-09-18 08:00:00,
2013-09-18 04:01:00,75.2,69.7,29.74,North,0,3.8,3.8,83,0.00,,---,0.00,VWS V14.01,2013-09-18 08:01:00,
2013-09-18 04:02:00,75.4,69.9,29.74,East,90,2.2,5.8,83,0.00,,---,0.00,VWS V14.01,2013-09-18 08:02:00,
2013-09-18 04:03:00,75.4,69.9,29.74,NNW,338,3.1,3.1,83,0.00,,---,0.00,VWS V14.01,2013-09-18 08:03:00,
2013-09-18 04:04:00,75.4,69.9,29.74,NE,45,0.0,3.8,83,0.00,,---,0.00,VWS V14.01,2013-09-18 08:04:00,
2013-09-18 04:05:00,75.4,69.9,29.74,East,90,2.2,2.2,83,0.00,,---,0.00,VWS V14.01,2013-09-18 08:05:00,
2013-09-18 04:06:00,75.4,69.9,29.74,SW,225,1.3,1.3,83,0.00,,---,0.00,VWS V14.01,2013-09-18 08:06:00,
2013-09-18 04:07:00,75.2,69.7,29.74,SW,225,1.3,1.3,83,0.00,,---,0.00,VWS V14.01,2013-09-18 08:07:00,
2013-09-18 04:08:00,75.4,69.9,29.74,NE,45,2.5,2.5,83,0.00,,---,0.00,VWS V14.01,2013-09-18 08:08:00,
2013-09-18 04:09:00,75.2,69.7,29.74,NE,45,4.3,4.3,83,0.00,,---,0.00,VWS V14.01,2013-09-18 08:09:00,
2013-09-18 04:10:00,75.2,69.7,29.74,NNE,22,2.7,4.3,83,0.00,,---,0.00,VWS V14.01,2013-09-18 08:10:00,
2013-09-18 04:11:00,75.2,69.3,29.74,NE,45,1.1,1.1,82,0.00,,---,0.00,VWS V14.01,2013-09-18 08:11:00,
2013-09-18 04:12:00,75.2,69.3,29.74,NE,45,0.0,1.1,82,0.00,,---,0.00,VWS V14.01,2013-09-18 08:12:00,
2013-09-18 04:13:00,75.2,69.3,29.74,NE,45,0.0,0.0,82,0.00,,---,0.00,VWS V14.01,2013-09-18 08:13:00,
2013-09-18 04:14:00,75.2,69.3,29.74,NE,45,1.3,2.7,82,0.00,,---,0.00,VWS V14.01,2013-09-18 08:14:00,
2013-09-18 04:15:00,75.2,69.3,29.74,NE,45,2.7,2.7,82,0.00,,---,0.00,VWS V14.01,2013-09-18 08:15:00,
2013-09-18 04:16:00,75.2,69.3,29.74,NE,45,2.2,2.9,82,0.00,,---,0.00,VWS V14.01,2013-09-18 08:16:00,
2013-09-18 04:17:00,75.2,69.3,29.74,NE,45,0.0,2.9,82,0.00,,---,0.00,VWS V14.01,2013-09-18 08:17:00,
2013-09-18 04:18:00,75.2,69.3,29.74,NE,45,0.0,0.9,82,0.00,,---,0.00,VWS V14.01,2013-09-18 08:18:00,
2013-09-18 04:19:00,75.2,69.3,29.74,NW,315,1.3,2.9,82,0.00,,---,0.00,VWS V14.01,2013-09-18 08:19:00,
2013-09-18 04:20:00,75.2,69.3,29.74,NE,45,1.1,1.3,82,0.00,,---,0.00,VWS V14.01,2013-09-18 08:20:00,
2013-09-18 04:21:00,75.4,69.5,29.74,NE,45,1.1,2.5,82,0.00,,---,0.00,VWS V14.01,2013-09-18 08:21:00,
2013-09-18 04:22:00,75.4,69.5,29.74,NNE,22,3.6,3.6,82,0.00,,---,0.00,VWS V14.01,2013-09-18 08:22:00,
2013-09-18 04:23:00,75.4,69.5,29.74,NNE,22,1.3,3.6,82,0.00,,---,0.00,VWS V14.01,2013-09-18 08:23:00,
2013-09-18 04:24:00,75.4,69.5,29.74,ENE,68,1.3,3.6,82,0.00,,---,0.00,VWS V14.01,2013-09-18 08:24:00,
2013-09-18 04:25:00,75.4,69.5,29.74,ENE,68,3.4,3.4,82,0.00,,---,0.00,VWS V14.01,2013-09-18 08:25:00,
2013-09-18 04:26:00,75.4,69.5,29.74,North,0,2.7,2.9,82,0.00,,---,0.00,VWS V14.01,2013-09-18 08:26:00,
2013-09-18 04:27:00,75.4,69.5,29.74,North,0,2.0,2.9,82,0.00,,---,0.00,VWS V14.01,2013-09-18 08:27:00,
2013-09-18 04:28:00,75.4,69.5,29.74,NE,45,1.1,3.1,82,0.00,,---,0.00,VWS V14.01,2013-09-18 08:28:00,
2013-09-18 04:29:00,75.2,69.3,29.74,NNE,22,2.9,3.1,82,0.00,,---,0.00,VWS V14.01,2013-09-18 08:29:00,
2013-09-18 04:30:00,75.2,69.3,29.74,NE,45,3.4,4.3,82,0.00,,---,0.00,VWS V14.01,2013-09-18 08:30:00,
2013-09-18 04:31:00,75.2,69.3,29.74,NE,45,2.0,2.0,82,0.00,,---,0.00,VWS V14.01,2013-09-18 08:31:00,
2013-09-18 04:32:00,75.2,69.3,29.74,NE,45,1.1,2.0,82,0.00,,---,0.00,VWS V14.01,2013-09-18 08:32:00,
2013-09-18 04:33:00,75.2,69.3,29.74,East,90,2.5,2.5,82,0.00,,---,0.00,VWS V14.01,2013-09-18 08:33:00,
2013-09-18 04:34:00,75.2,69.3,29.74,East,90,1.1,2.5,82,0.00,,---,0.00,VWS V14.01,2013-09-18 08:34:00,
2013-09-18 04:35:00,75.2,69.3,29.74,East,90,0.0,1.1,82,0.00,,---,0.00,VWS V14.01,2013-09-18 08:35:00,
2013-09-18 04:36:00,75.2,69.0,29.74,East,90,0.0,0.9,81,0.00,,---,0.00,VWS V14.01,2013-09-18 08:36:00,
2013-09-18 04:37:00,75.2,69.0,29.74,NE,45,2.9,3.1,81,0.00,,---,0.00,VWS V14.01,2013-09-18 08:37:00,
2013-09-18 04:38:00,75.2,69.0,29.74,NE,45,1.6,3.6,81,0.00,,---,0.00,VWS V14.01,2013-09-18 08:38:00,
2013-09-18 04:39:00,75.0,69.2,29.74,North,0,2.0,2.7,82,0.00,,---,0.00,VWS V14.01,2013-09-18 08:39:00,
2013-09-18 04:40:00,75.0,69.2,29.74,NE,45,4.0,5.4,82,0.00,,---,0.00,VWS V14.01,2013-09-18 08:40:00,
2013-09-18 04:41:00,75.0,68.8,29.74,East,90,2.2,4.0,81,0.00,,---,0.00,VWS V14.01,2013-09-18 08:41:00,
2013-09-18 04:42:00,75.0,68.8,29.74,NNE,22,3.6,4.0,81,0.00,,---,0.00,VWS V14.01,2013-09-18 08:42:00,
2013-09-18 04:43:00,75.0,68.8,29.74,East,90,2.5,3.6,81,0.00,,---,0.00,VWS V14.01,2013-09-18 08:43:00,
2013-09-18 04:44:00,75.0,68.8,29.74,ESE,112,0.0,2.5,81,0.00,,---,0.00,VWS V14.01,2013-09-18 08:44:00,
2013-09-18 04:45:00,75.0,68.8,29.74,ESE,112,0.0,0.0,81,0.00,,---,0.00,VWS V14.01,2013-09-18 08:45:00,
2013-09-18 04:46:00,75.0,68.8,29.74,East,90,1.6,2.0,81,0.00,,---,0.00,VWS V14.01,2013-09-18 08:46:00,
2013-09-18 04:47:00,75.0,68.8,29.74,East,90,0.0,2.0,81,0.00,,---,0.00,VWS V14.01,2013-09-18 08:47:00,
2013-09-18 04:48:00,75.0,68.8,29.74,East,90,1.1,2.2,81,0.00,,---,0.00,VWS V14.01,2013-09-18 08:48:00,
2013-09-18 04:49:00,74.8,68.6,29.74,ESE,112,1.1,1.3,81,0.00,,---,0.00,VWS V14.01,2013-09-18 08:49:00,
2013-09-18 04:50:00,74.8,68.6,29.74,NNE,22,3.4,3.4,81,0.00,,---,0.00,VWS V14.01,2013-09-18 08:50:00,
2013-09-18 04:51:00,74.8,68.6,29.74,NE,45,1.3,1.3,81,0.00,,---,0.00,VWS V14.01,2013-09-18 08:51:00,
2013-09-18 04:52:00,74.8,68.6,29.74,NE,45,1.3,1.3,81,0.00,,---,0.00,VWS V14.01,2013-09-18 08:52:00,
2013-09-18 04:53:00,74.8,68.3,29.74,ENE,68,2.0,2.0,80,0.00,,---,0.00,VWS V14.01,2013-09-18 08:53:00,
2013-09-18 04:54:00,74.7,68.1,29.74,East,90,0.0,2.0,80,0.00,,---,0.00,VWS V14.01,2013-09-18 08:54:00,
2013-09-18 04:55:00,74.7,68.1,29.74,East,90,0.0,0.0,80,0.00,,---,0.00,VWS V14.01,2013-09-18 08:55:00,
2013-09-18 04:56:00,74.7,68.1,29.74,East,90,1.1,1.1,80,0.00,,---,0.00,VWS V14.01,2013-09-18 08:56:00,
2013-09-18 04:57:00,74.7,68.1,29.74,North,0,0.0,1.1,80,0.00,,---,0.00,VWS V14.01,2013-09-18 08:57:00,
2013-09-18 04:58:00,74.5,67.9,29.74,North,0,0.0,0.0,80,0.00,,---,0.00,VWS V14.01,2013-09-18 08:58:00,
2013-09-18 04:59:00,74.5,67.9,29.74,NW,315,1.3,1.3,80,0.00,,---,0.00,VWS V14.01,2013-09-18 08:59:00,
2013-09-18 05:00:00,74.5,67.9,29.74,NW,315,0.0,2.7,80,0.00,,---,0.00,VWS V14.01,2013-09-18 09:00:00,
2013-09-18 05:01:00,74.5,67.9,29.74,NW,315,0.0,1.3,80,0.00,,---,0.00,VWS V14.01,2013-09-18 09:01:00,
2013-09-18 05:02:00,74.5,67.9,29.74,NW,315,0.0,0.9,80,0.00,,---,0.00,VWS V14.01,2013-09-18 09:02:00,
2013-09-18 05:03:00,74.5,67.9,29.74,NE,45,0.0,1.1,80,0.00,,---,0.00,VWS V14.01,2013-09-18 09:03:00,
2013-09-18 05:04:00,74.5,67.9,29.74,NW,315,2.0,2.9,80,0.00,,---,0.00,VWS V14.01,2013-09-18 09:04:00,
2013-09-18 05:05:00,74.3,67.7,29.74,NNW,338,1.1,2.0,80,0.00,,---,0.00,VWS V14.01,2013-09-18 09:05:00,
2013-09-18 05:06:00,74.3,67.7,29.74,NNW,338,0.0,1.1,80,0.00,,---,0.00,VWS V14.01,2013-09-18 09:06:00,
2013-09-18 05:07:00,74.3,67.7,29.74,NNE,22,1.6,2.2,80,0.00,,---,0.00,VWS V14.01,2013-09-18 09:07:00,
2013-09-18 05:08:00,74.3,67.7,29.74,NE,45,1.1,2.7,80,0.00,,---,0.00,VWS V14.01,2013-09-18 09:08:00,
2013-09-18 05:09:00,74.3,67.7,29.74,NE,45,0.0,1.1,80,0.00,,---,0.00,VWS V14.01,2013-09-18 09:09:00,
2013-09-18 05:10:00,74.3,67.7,29.74,NE,45,0.0,0.0,80,0.00,,---,0.00,VWS V14.01,2013-09-18 09:10:00,
2013-09-18 05:11:00,74.3,67.7,29.74,NE,45,0.9,2.2,80,0.00,,---,0.00,VWS V14.01,2013-09-18 09:11:00,
2013-09-18 05:12:00,74.3,67.7,29.74,North,0,1.1,1.1,80,0.00,,---,0.00,VWS V14.01,2013-09-18 09:12:00,
2013-09-18 05:13:00,74.3,68.1,29.74,NNW,338,1.1,1.1,81,0.00,,---,0.00,VWS V14.01,2013-09-18 09:13:00,
2013-09-18 05:14:00,74.3,68.1,29.74,NW,315,2.5,2.5,81,0.00,,---,0.00,VWS V14.01,2013-09-18 09:14:00,
2013-09-18 05:15:00,74.3,68.1,29.74,NW,315,2.7,2.7,81,0.00,,---,0.00,VWS V14.01,2013-09-18 09:15:00,
2013-09-18 05:16:00,74.3,68.1,29.74,North,0,1.3,2.7,81,0.00,,---,0.00,VWS V14.01,2013-09-18 09:16:00,
2013-09-18 05:17:00,74.3,68.1,29.74,NW,315,2.5,2.5,81,0.00,,---,0.00,VWS V14.01,2013-09-18 09:17:00,
2013-09-18 05:18:00,74.3,68.1,29.74,North,0,1.6,3.6,81,0.00,,---,0.00,VWS V14.01,2013-09-18 09:18:00,
2013-09-18 05:19:00,74.3,68.1,29.74,North,0,0.0,1.6,81,0.00,,---,0.00,VWS V14.01,2013-09-18 09:19:00,
2013-09-18 05:20:00,74.3,68.1,29.74,North,0,0.0,0.0,81,0.00,,---,0.00,VWS V14.01,2013-09-18 09:20:00,
2013-09-18 05:21:00,74.3,68.1,29.74,North,0,0.0,0.0,81,0.00,,---,0.00,VWS V14.01,2013-09-18 09:21:00,
2013-09-18 05:22:00,74.3,68.1,29.74,North,0,0.0,0.0,81,0.00,,---,0.00,VWS V14.01,2013-09-18 09:22:00,
2013-09-18 05:23:00,74.3,68.1,29.74,North,0,0.0,0.0,81,0.00,,---,0.00,VWS V14.01,2013-09-18 09:23:00,
2013-09-18 05:24:00,74.3,68.1,29.74,North,0,0.0,0.0,81,0.00,,---,0.00,VWS V14.01,2013-09-18 09:24:00,
2013-09-18 05:25:00,74.3,68.1,29.74,North,0,0.0,0.0,81,0.00,,---,0.00,VWS V14.01,2013-09-18 09:25:00,
2013-09-18 05:26:00,74.1,67.9,29.74,North,0,0.0,0.0,81,0.00,,---,0.00,VWS V14.01,2013-09-18 09:26:00,
2013-09-18 05:27:00,74.1,67.9,29.74,North,0,0.0,0.0,81,0.00,,---,0.00,VWS V14.01,2013-09-18 09:27:00,
2013-09-18 05:28:00,74.1,67.9,29.74,North,0,0.0,0.0,81,0.00,,---,0.00,VWS V14.01,2013-09-18 09:28:00,
2013-09-18 05:29:00,74.1,67.9,29.74,North,0,0.0,0.0,81,0.00,,---,0.00,VWS V14.01,2013-09-18 09:29:00,
2013-09-18 05:30:00,74.1,67.9,29.74,North,0,0.0,0.0,81,0.00,,---,0.00,VWS V14.01,2013-09-18 09:30:00,
2013-09-18 05:31:00,73.9,67.8,29.74,North,0,0.0,0.0,81,0.00,,---,0.00,VWS V14.01,2013-09-18 09:31:00,
2013-09-18 05:32:00,73.9,67.8,29.74,North,0,0.0,0.0,81,0.00,,---,0.00,VWS V14.01,2013-09-18 09:32:00,
2013-09-18 05:33:00,73.9,67.8,29.74,North,0,0.0,0.0,81,0.00,,---,0.00,VWS V14.01,2013-09-18 09:33:00,
2013-09-18 05:34:00,73.9,67.8,29.74,North,0,0.0,0.0,81,0.00,,---,0.00,VWS V14.01,2013-09-18 09:34:00,
2013-09-18 05:35:00,73.9,67.8,29.74,NW,315,1.6,1.6,81,0.00,,---,0.00,VWS V14.01,2013-09-18 09:35:00,
2013-09-18 05:36:00,73.9,67.8,29.74,West,270,1.6,2.5,81,0.00,,---,0.00,VWS V14.01,2013-09-18 09:36:00,
2013-09-18 05:37:00,73.9,67.8,29.74,WNW,292,0.9,2.0,81,0.00,,---,0.00,VWS V14.01,2013-09-18 09:37:00,
2013-09-18 05:38:00,73.9,67.8,29.74,NNE,22,0.0,1.3,81,0.00,,---,0.00,VWS V14.01,2013-09-18 09:38:00,
2013-09-18 05:39:00,73.9,67.8,29.74,NNE,22,0.9,0.9,81,0.00,,---,0.00,VWS V14.01,2013-09-18 09:39:00,
2013-09-18 05:40:00,73.9,67.8,29.74,NNE,22,0.9,0.9,81,0.00,,---,0.00,VWS V14.01,2013-09-18 09:40:00,
2013-09-18 05:41:00,73.9,67.8,29.74,NNE,22,0.0,1.6,81,0.00,,---,0.00,VWS V14.01,2013-09-18 09:41:00,
2013-09-18 05:42:00,73.9,67.8,29.74,NNE,22,0.0,0.0,81,0.00,,---,0.00,VWS V14.01,2013-09-18 09:42:00,
2013-09-18 05:43:00,73.9,68.1,29.74,NNE,22,0.9,0.9,82,0.00,,---,0.00,VWS V14.01,2013-09-18 09:43:00,
2013-09-18 05:44:00,73.9,68.1,29.74,NNE,22,0.9,0.9,82,0.00,,---,0.00,VWS V14.01,2013-09-18 09:44:00,
2013-09-18 05:45:00,73.9,68.1,29.74,NNE,22,1.6,2.0,82,0.00,,---,0.00,VWS V14.01,2013-09-18 09:45:00,
2013-09-18 05:46:00,73.9,68.1,29.74,NW,315,2.9,2.9,82,0.00,,---,0.00,VWS V14.01,2013-09-18 09:46:00,
2013-09-18 05:47:00,73.9,68.1,29.74,North,0,2.2,3.1,82,0.00,,---,0.00,VWS V14.01,2013-09-18 09:47:00,
2013-09-18 05:48:00,73.9,68.1,29.74,NNW,338,1.6,2.2,82,0.00,,---,0.00,VWS V14.01,2013-09-18 09:48:00,
2013-09-18 05:49:00,73.9,68.1,29.74,NNW,338,2.5,2.5,82,0.00,,---,0.00,VWS V14.01,2013-09-18 09:49:00,
2013-09-18 05:50:00,74.1,68.6,29.74,NW,315,1.6,2.5,83,0.00,,---,0.00,VWS V14.01,2013-09-18 09:50:00,
2013-09-18 05:51:00,74.1,68.6,29.74,NW,315,0.0,2.2,83,0.00,,---,0.00,VWS V14.01,2013-09-18 09:51:00,
2013-09-18 05:52:00,74.1,68.6,29.74,WNW,292,3.8,3.8,83,0.00,,---,0.00,VWS V14.01,2013-09-18 09:52:00,
2013-09-18 05:53:00,74.1,68.6,29.74,NW,315,2.5,3.6,83,0.00,,---,0.00,VWS V14.01,2013-09-18 09:53:00,
2013-09-18 05:54:00,74.1,68.6,29.74,NW,315,2.5,3.4,83,0.00,,---,0.00,VWS V14.01,2013-09-18 09:54:00,
2013-09-18 05:55:00,74.1,69.0,29.74,NNW,338,2.9,2.9,84,0.00,,---,0.00,VWS V14.01,2013-09-18 09:55:00,
2013-09-18 05:56:00,74.3,69.2,29.74,NW,315,2.7,3.1,84,0.00,,---,0.00,VWS V14.01,2013-09-18 09:56:00,
2013-09-18 05:57:00,74.3,69.2,29.74,NNW,338,0.9,2.7,84,0.00,,---,0.00,VWS V14.01,2013-09-18 09:57:00,
2013-09-18 05:58:00,74.3,69.2,29.74,West,270,1.1,2.5,84,0.00,,---,0.00,VWS V14.01,2013-09-18 09:58:00,
2013-09-18 05:59:00,74.3,69.2,29.74,WNW,292,2.7,2.9,84,0.00,,---,0.00,VWS V14.01,2013-09-18 09:59:00,
2013-09-18 06:00:00,74.3,69.2,29.74,NNE,22,1.3,2.7,84,0.00,,---,0.00,VWS V14.01,2013-09-18 10:00:00,
2013-09-18 06:01:00,74.3,69.2,29.74,NNE,22,0.0,1.3,84,0.00,,---,0.00,VWS V14.01,2013-09-18 10:01:00,
2013-09-18 06:02:00,74.3,69.2,29.74,NNE,22,0.9,0.9,84,0.00,,---,0.00,VWS V14.01,2013-09-18 10:02:00,
2013-09-18 06:03:00,74.3,69.2,29.74,NNE,22,1.6,1.6,84,0.00,,---,0.00,VWS V14.01,2013-09-18 10:03:00,
2013-09-18 06:04:00,74.3,69.2,29.74,NNE,22,1.3,1.6,84,0.00,,---,0.00,VWS V14.01,2013-09-18 10:04:00,
2013-09-18 06:05:00,74.3,69.2,29.74,NNE,22,0.0,1.3,84,0.00,,---,0.00,VWS V14.01,2013-09-18 10:05:00,
2013-09-18 06:06:00,74.3,69.2,29.74,North,0,2.5,2.5,84,0.00,,---,0.00,VWS V14.01,2013-09-18 10:06:00,
2013-09-18 06:07:00,74.3,69.2,29.74,NNW,338,2.9,2.9,84,0.00,,---,0.00,VWS V14.01,2013-09-18 10:07:00,
2013-09-18 06:08:00,74.3,69.2,29.74,NNE,22,2.2,3.1,84,0.00,,---,0.00,VWS V14.01,2013-09-18 10:08:00,
2013-09-18 06:09:00,74.3,69.2,29.74,NNE,22,2.0,2.2,84,0.00,,---,0.00,VWS V14.01,2013-09-18 10:09:00,
2013-09-18 06:10:00,74.3,69.2,29.76,NNE,22,1.6,2.2,84,0.00,,---,0.00,VWS V14.01,2013-09-18 10:10:00,
2013-09-18 06:11:00,74.3,69.2,29.76,NNE,22,0.0,1.6,84,0.00,,---,0.00,VWS V14.01,2013-09-18 10:11:00,
2013-09-18 06:12:00,74.3,69.2,29.76,NNE,22,0.0,0.0,84,0.00,,---,0.00,VWS V14.01,2013-09-18 10:12:00,
2013-09-18 06:13:00,74.3,69.2,29.76,NNE,22,0.0,0.0,84,0.00,,---,0.00,VWS V14.01,2013-09-18 10:13:00,
2013-09-18 06:14:00,74.3,69.2,29.76,NNE,22,0.0,0.0,84,0.00,,---,0.00,VWS V14.01,2013-09-18 10:14:00,
2013-09-18 06:15:00,74.3,69.2,29.76,NNE,22,0.0,0.0,84,0.00,,---,0.00,VWS V14.01,2013-09-18 10:15:00,
2013-09-18 06:16:00,74.3,69.2,29.76,NNE,22,2.7,2.7,84,0.00,,---,0.00,VWS V14.01,2013-09-18 10:16:00,
2013-09-18 06:17:00,74.3,69.2,29.76,NNE,22,1.6,2.7,84,0.00,,---,0.00,VWS V14.01,2013-09-18 10:17:00,
2013-09-18 06:18:00,74.3,69.2,29.76,NNE,22,0.0,1.6,84,0.00,,---,0.00,VWS V14.01,2013-09-18 10:18:00,
2013-09-18 06:19:00,74.3,69.2,29.76,NNE,22,2.7,2.7,84,0.00,,---,0.00,VWS V14.01,2013-09-18 10:19:00,
2013-09-18 06:20:00,74.3,69.2,29.76,NNE,22,2.2,2.7,84,0.00,,---,0.00,VWS V14.01,2013-09-18 10:20:00,
2013-09-18 06:21:00,74.3,69.2,29.76,NNE,22,2.2,2.2,84,0.00,,---,0.00,VWS V14.01,2013-09-18 10:21:00,
2013-09-18 06:22:00,74.3,69.2,29.76,NNE,22,0.0,2.2,84,0.00,,---,0.00,VWS V14.01,2013-09-18 10:22:00,
2013-09-18 06:23:00,74.3,69.2,29.76,NNE,22,1.1,2.0,84,0.00,,---,0.00,VWS V14.01,2013-09-18 10:23:00,
2013-09-18 06:24:00,74.3,69.2,29.76,NNE,22,2.0,2.0,84,0.00,,---,0.00,VWS V14.01,2013-09-18 10:24:00,
2013-09-18 06:25:00,74.3,69.2,29.74,NNE,22,0.0,2.2,84,0.00,,---,0.00,VWS V14.01,2013-09-18 10:25:00,
2013-09-18 06:26:00,74.3,69.2,29.74,NNE,22,0.9,1.1,84,0.00,,---,0.00,VWS V14.01,2013-09-18 10:26:00,
2013-09-18 06:27:00,74.3,69.2,29.74,NNE,22,1.3,1.3,84,0.00,,---,0.00,VWS V14.01,2013-09-18 10:27:00,
2013-09-18 06:28:00,74.3,69.2,29.74,NNE,22,2.0,2.0,84,0.00,,---,0.00,VWS V14.01,2013-09-18 10:28:00,
2013-09-18 06:29:00,74.3,69.2,29.74,NNE,22,1.3,2.0,84,0.00,,---,0.00,VWS V14.01,2013-09-18 10:29:00,
2013-09-18 06:30:00,74.3,69.2,29.74,North,0,3.4,3.4,84,0.00,,---,0.00,VWS V14.01,2013-09-18 10:30:00,
2013-09-18 06:32:00,74.3,69.2,29.74,NW,315,2.5,3.4,84,0.00,,---,0.00,VWS V14.01,2013-09-18 10:32:00,
2013-09-18 06:33:00,74.3,69.2,29.74,NNE,22,1.3,2.5,84,0.00,,---,0.00,VWS V14.01,2013-09-18 10:33:00,
2013-09-18 06:34:00,74.3,69.2,29.74,NNE,22,2.0,2.0,84,0.00,,---,0.00,VWS V14.01,2013-09-18 10:34:00,
2013-09-18 06:35:00,74.3,69.2,29.74,NNE,22,0.9,2.0,84,0.00,,---,0.00,VWS V14.01,2013-09-18 10:35:00,
2013-09-18 06:36:00,74.3,69.2,29.74,NNE,22,1.1,1.1,84,0.00,,---,0.00,VWS V14.01,2013-09-18 10:36:00,
2013-09-18 06:37:00,74.3,69.2,29.74,NNE,22,1.1,1.1,84,0.00,,---,0.00,VWS V14.01,2013-09-18 10:37:00,
2013-09-18 06:38:00,74.3,69.2,29.74,NNE,22,0.9,1.1,84,0.00,,---,0.00,VWS V14.01,2013-09-18 10:38:00,
2013-09-18 06:39:00,74.3,69.2,29.74,NNE,22,1.1,1.1,84,0.00,,---,0.00,VWS V14.01,2013-09-18 10:39:00,
2013-09-18 06:40:00,74.3,69.2,29.76,North,0,2.5,2.5,84,0.00,,---,0.00,VWS V14.01,2013-09-18 10:40:00,
2013-09-18 06:41:00,74.3,69.2,29.76,NW,315,1.3,2.7,84,0.00,,---,0.00,VWS V14.01,2013-09-18 10:41:00,
2013-09-18 06:42:00,74.3,69.2,29.76,NNE,22,2.2,2.2,84,0.00,,---,0.00,VWS V14.01,2013-09-18 10:42:00,
2013-09-18 06:43:00,74.3,69.2,29.76,NNE,22,0.9,2.2,84,0.00,,---,0.00,VWS V14.01,2013-09-18 10:43:00,
2013-09-18 06:44:00,74.3,69.2,29.76,NNE,22,2.0,2.0,84,0.00,,---,0.00,VWS V14.01,2013-09-18 10:44:00,
2013-09-18 06:45:00,74.3,69.2,29.76,NW,315,2.0,2.0,84,0.00,,---,0.00,VWS V14.01,2013-09-18 10:45:00,
2013-09-18 06:46:00,74.3,69.2,29.76,NW,315,2.0,2.2,84,0.00,,---,0.00,VWS V14.01,2013-09-18 10:46:00,
2013-09-18 06:47:00,74.3,69.2,29.76,NW,315,0.9,2.0,84,0.00,,---,0.00,VWS V14.01,2013-09-18 10:47:00,
2013-09-18 06:48:00,74.3,69.2,29.76,NW,315,0.9,0.9,84,0.00,,---,0.00,VWS V14.01,2013-09-18 10:48:00,
2013-09-18 06:49:00,74.3,69.2,29.76,NW,315,2.0,2.5,84,0.00,,---,0.00,VWS V14.01,2013-09-18 10:49:00,
2013-09-18 06:50:00,74.3,69.2,29.76,NNE,22,1.1,2.5,84,0.00,,---,0.00,VWS V14.01,2013-09-18 10:50:00,
2013-09-18 06:51:00,74.5,69.3,29.76,NNE,22,1.1,1.3,84,0.00,,---,0.00,VWS V14.01,2013-09-18 10:51:00,
2013-09-18 06:52:00,74.5,69.3,29.76,NNE,22,2.2,2.2,84,0.00,,---,0.00,VWS V14.01,2013-09-18 10:52:00,
2013-09-18 06:53:00,74.5,69.3,29.76,WNW,292,2.0,2.2,84,0.00,,---,0.00,VWS V14.01,2013-09-18 10:53:00,
2013-09-18 06:54:00,74.5,69.3,29.76,NW,315,2.0,2.9,84,0.00,,---,0.00,VWS V14.01,2013-09-18 10:54:00,
2013-09-18 06:55:00,74.5,69.3,29.76,North,0,1.6,2.0,84,0.00,,---,0.00,VWS V14.01,2013-09-18 10:55:00,
2013-09-18 06:56:00,74.5,69.3,29.76,North,0,0.9,2.7,84,0.00,,---,0.00,VWS V14.01,2013-09-18 10:56:00,
2013-09-18 06:57:00,74.5,69.3,29.76,NW,315,3.1,3.1,84,0.00,,---,0.00,VWS V14.01,2013-09-18 10:57:00,
2013-09-18 06:58:00,74.5,69.3,29.76,NW,315,2.5,2.5,84,0.00,,---,0.00,VWS V14.01,2013-09-18 10:58:00,
2013-09-18 07:00:00,74.5,69.3,29.76,NW,315,1.6,2.5,84,0.00,,---,0.00,VWS V14.01,2013-09-18 11:00:00,
2013-09-18 07:01:00,74.5,69.3,29.76,WNW,292,1.1,1.6,84,0.00,,---,0.00,VWS V14.01,2013-09-18 11:01:00,
2013-09-18 07:02:00,74.5,69.3,29.76,WNW,292,2.5,3.1,84,0.00,,---,0.00,VWS V14.01,2013-09-18 11:02:00,
2013-09-18 07:03:00,74.5,69.3,29.76,North,0,2.7,2.7,84,0.00,,---,0.00,VWS V14.01,2013-09-18 11:03:00,
2013-09-18 07:04:00,74.5,69.3,29.76,NW,315,2.9,2.9,84,0.00,,---,0.00,VWS V14.01,2013-09-18 11:04:00,
2013-09-18 07:05:00,74.5,69.3,29.76,NW,315,2.5,3.4,84,0.00,,---,0.00,VWS V14.01,2013-09-18 11:05:00,
2013-09-18 07:06:00,74.5,69.3,29.76,NNW,338,1.1,2.5,84,0.00,,---,0.00,VWS V14.01,2013-09-18 11:06:00,
2013-09-18 07:07:00,74.5,69.3,29.76,NNW,338,1.1,1.1,84,0.00,,---,0.00,VWS V14.01,2013-09-18 11:07:00,
2013-09-18 07:08:00,74.5,69.3,29.76,North,0,0.9,2.7,84,0.00,,---,0.00,VWS V14.01,2013-09-18 11:08:00,
2013-09-18 07:09:00,74.5,69.3,29.76,NNE,22,0.0,1.1,84,0.00,,---,0.00,VWS V14.01,2013-09-18 11:09:00,
2013-09-18 07:10:00,74.5,69.3,29.76,NW,315,2.7,2.7,84,0.00,,---,0.00,VWS V14.01,2013-09-18 11:10:00,
2013-09-18 07:11:00,74.5,69.3,29.76,NNE,22,1.1,2.7,84,0.00,,---,0.00,VWS V14.01,2013-09-18 11:11:00,
2013-09-18 07:12:00,74.5,69.3,29.76,NNE,22,1.1,1.1,84,0.00,,---,0.00,VWS V14.01,2013-09-18 11:12:00,
2013-09-18 07:13:00,74.5,69.3,29.76,NNE,22,0.0,1.1,84,0.00,,---,0.00,VWS V14.01,2013-09-18 11:13:00,
2013-09-18 07:14:00,74.5,69.3,29.76,NNE,22,0.0,0.9,84,0.00,,---,0.00,VWS V14.01,2013-09-18 11:14:00,
2013-09-18 07:15:00,74.5,69.3,29.76,NW,315,2.9,2.9,84,0.00,,---,0.00,VWS V14.01,2013-09-18 11:15:00,
2013-09-18 07:16:00,74.5,69.3,29.76,NNW,338,2.2,2.9,84,0.00,,---,0.00,VWS V14.01,2013-09-18 11:16:00,
2013-09-18 07:17:00,74.5,69.3,29.76,North,0,0.0,2.2,84,0.00,,---,0.00,VWS V14.01,2013-09-18 11:17:00,
2013-09-18 07:18:00,74.7,69.5,29.76,North,0,0.0,0.0,84,0.00,,---,0.00,VWS V14.01,2013-09-18 11:18:00,
2013-09-18 07:19:00,74.7,69.5,29.76,North,0,0.0,0.9,84,0.00,,---,0.00,VWS V14.01,2013-09-18 11:19:00,
2013-09-18 07:20:00,74.7,69.5,29.76,North,0,0.0,0.0,84,0.00,,---,0.00,VWS V14.01,2013-09-18 11:20:00,
2013-09-18 07:21:00,74.7,69.5,29.76,North,0,0.0,0.0,84,0.00,,---,0.00,VWS V14.01,2013-09-18 11:21:00,
2013-09-18 07:22:00,74.8,69.7,29.76,NNE,22,1.1,2.2,84,0.00,,---,0.00,VWS V14.01,2013-09-18 11:22:00,
2013-09-18 07:23:00,74.8,69.7,29.76,NNE,22,1.6,1.6,84,0.00,,---,0.00,VWS V14.01,2013-09-18 11:23:00,
2013-09-18 07:24:00,74.8,69.7,29.76,NW,315,1.6,1.6,84,0.00,,---,0.00,VWS V14.01,2013-09-18 11:24:00,
2013-09-18 07:25:00,74.8,69.7,29.76,NNE,22,2.0,4.3,84,0.00,,---,0.00,VWS V14.01,2013-09-18 11:25:00,
2013-09-18 07:26:00,75.0,69.9,29.76,NNE,22,2.5,3.8,84,0.00,,---,0.00,VWS V14.01,2013-09-18 11:26:00,
2013-09-18 07:27:00,75.0,69.9,29.76,NE,45,2.0,2.9,84,0.00,,---,0.00,VWS V14.01,2013-09-18 11:27:00,
2013-09-18 07:28:00,75.0,69.9,29.76,NNE,22,2.0,2.0,84,0.00,,---,0.00,VWS V14.01,2013-09-18 11:28:00,
2013-09-18 07:29:00,75.0,69.9,29.76,NNE,22,1.6,2.2,84,0.00,,---,0.00,VWS V14.01,2013-09-18 11:29:00,
2013-09-18 07:30:00,75.4,69.9,29.76,North,0,3.8,3.8,83,0.00,,---,0.00,VWS V14.01,2013-09-18 11:30:00,
2013-09-18 07:31:00,75.4,69.9,29.76,NE,45,0.0,3.8,83,0.00,,---,0.00,VWS V14.01,2013-09-18 11:31:00,
2013-09-18 07:32:00,75.4,69.9,29.76,NNW,338,3.6,3.6,83,0.00,,---,0.00,VWS V14.01,2013-09-18 11:32:00,
2013-09-18 07:33:00,75.6,69.7,29.76,North,0,4.9,6.5,82,0.00,,---,0.00,VWS V14.01,2013-09-18 11:33:00,
2013-09-18 07:34:00,75.6,69.7,29.76,North,0,2.5,4.9,82,0.00,,---,0.00,VWS V14.01,2013-09-18 11:34:00,
2013-09-18 07:35:00,75.6,69.7,29.76,NE,45,2.5,3.8,82,0.00,,---,0.00,VWS V14.01,2013-09-18 11:35:00,
2013-09-18 07:36:00,75.6,69.3,29.76,NE,45,1.3,2.5,81,0.00,,---,0.00,VWS V14.01,2013-09-18 11:36:00,
2013-09-18 07:37:00,75.6,69.3,29.76,NNW,338,2.5,3.1,81,0.00,,---,0.00,VWS V14.01,2013-09-18 11:37:00,
2013-09-18 07:38:00,75.6,69.3,29.76,WNW,292,3.4,4.9,81,0.00,,---,0.00,VWS V14.01,2013-09-18 11:38:00,
2013-09-18 07:39:00,75.6,69.0,29.76,North,0,5.8,5.8,80,0.00,,---,0.00,VWS V14.01,2013-09-18 11:39:00,
2013-09-18 07:40:00,75.6,69.0,29.76,NNE,22,2.7,5.8,80,0.00,,---,0.00,VWS V14.01,2013-09-18 11:40:00,
2013-09-18 07:41:00,75.6,69.0,29.76,NE,45,2.5,2.7,80,0.00,,---,0.00,VWS V14.01,2013-09-18 11:41:00,
2013-09-18 07:42:00,75.6,69.0,29.76,WNW,292,2.2,6.0,80,0.00,,---,0.00,VWS V14.01,2013-09-18 11:42:00,
2013-09-18 07:43:00,75.6,69.0,29.76,SSW,202,1.1,3.4,80,0.00,,---,0.00,VWS V14.01,2013-09-18 11:43:00,
2013-09-18 07:44:00,75.6,69.0,29.76,NNW,338,5.8,6.3,80,0.00,,---,0.00,VWS V14.01,2013-09-18 11:44:00,
2013-09-18 07:45:00,75.6,69.0,29.76,North,0,6.3,6.3,80,0.00,,---,0.00,VWS V14.01,2013-09-18 11:45:00,
2013-09-18 07:46:00,75.6,68.6,29.76,NW,315,2.9,6.3,79,0.00,,---,0.00,VWS V14.01,2013-09-18 11:46:00,
2013-09-18 07:47:00,75.6,68.6,29.76,NW,315,0.9,2.9,79,0.00,,---,0.00,VWS V14.01,2013-09-18 11:47:00,
2013-09-18 07:48:00,75.6,68.6,29.76,North,0,5.6,5.6,79,0.00,,---,0.00,VWS V14.01,2013-09-18 11:48:00,
2013-09-18 07:49:00,75.6,68.6,29.76,NE,45,1.1,5.6,79,0.00,,---,0.00,VWS V14.01,2013-09-18 11:49:00,
2013-09-18 07:50:00,75.4,68.4,29.76,NE,45,0.0,1.3,79,0.00,,---,0.00,VWS V14.01,2013-09-18 11:50:00,
2013-09-18 07:51:00,75.4,68.4,29.76,East,90,2.0,2.0,79,0.00,,---,0.00,VWS V14.01,2013-09-18 11:51:00,
2013-09-18 07:52:00,75.4,68.4,29.76,North,0,2.7,4.7,79,0.00,,---,0.00,VWS V14.01,2013-09-18 11:52:00,
2013-09-18 07:53:00,75.6,68.6,29.76,NW,315,2.9,2.9,79,0.00,,---,0.00,VWS V14.01,2013-09-18 11:53:00,
2013-09-18 07:54:00,75.6,68.6,29.76,ESE,112,2.5,3.1,79,0.00,,---,0.00,VWS V14.01,2013-09-18 11:54:00,
2013-09-18 07:55:00,75.6,68.6,29.80,SE,135,1.3,2.9,79,0.00,,---,0.00,VWS V14.01,2013-09-18 11:55:00,
2013-09-18 07:56:00,75.6,68.6,29.80,NE,45,2.0,4.0,79,0.00,,---,0.00,VWS V14.01,2013-09-18 11:56:00,
2013-09-18 07:57:00,75.6,68.6,29.79,NNW,338,5.4,5.4,79,0.00,,---,0.00,VWS V14.01,2013-09-18 11:57:00,
2013-09-18 07:58:00,75.6,68.6,29.80,North,0,5.4,6.3,79,0.00,,---,0.00,VWS V14.01,2013-09-18 11:58:00,
2013-09-18 07:59:00,75.4,68.4,29.80,WNW,292,1.6,5.4,79,0.00,,---,0.00,VWS V14.01,2013-09-18 11:59:00,
2013-09-18 08:00:00,75.4,68.4,29.80,WNW,292,1.6,1.6,79,0.00,,---,0.00,VWS V14.01,2013-09-18 12:00:00,
2013-09-18 08:01:00,75.4,68.4,29.80,SE,135,1.1,2.2,79,0.00,,---,0.00,VWS V14.01,2013-09-18 12:01:00,
2013-09-18 08:02:00,75.4,68.4,29.79,NNW,338,3.6,5.6,79,0.00,,---,0.00,VWS V14.01,2013-09-18 12:02:00,
2013-09-18 08:03:00,75.4,68.4,29.80,WNW,292,3.6,3.6,79,0.00,,---,0.00,VWS V14.01,2013-09-18 12:03:00,
2013-09-18 08:04:00,75.4,68.4,29.80,WNW,292,0.0,3.6,79,0.00,,---,0.00,VWS V14.01,2013-09-18 12:04:00,
2013-09-18 08:05:00,75.4,68.4,29.80,NNE,22,2.0,2.7,79,0.00,,---,0.00,VWS V14.01,2013-09-18 12:05:00,
2013-09-18 08:06:00,75.4,68.4,29.80,NW,315,2.5,4.7,79,0.00,,---,0.00,VWS V14.01,2013-09-18 12:06:00,
2013-09-18 08:07:00,75.4,68.8,29.79,WNW,292,5.8,5.8,80,0.00,,---,0.00,VWS V14.01,2013-09-18 12:07:00,
2013-09-18 08:08:00,75.4,68.8,29.80,NE,45,3.4,6.3,80,0.00,,---,0.00,VWS V14.01,2013-09-18 12:08:00,
2013-09-18 08:09:00,75.4,68.8,29.80,WNW,292,3.4,4.7,80,0.00,,---,0.00,VWS V14.01,2013-09-18 12:09:00,
2013-09-18 08:10:00,75.4,68.8,29.80,NNW,338,4.0,5.8,80,0.00,,---,0.00,VWS V14.01,2013-09-18 12:10:00,
2013-09-18 08:11:00,75.4,68.8,29.80,NNW,338,6.3,8.1,80,0.00,,---,0.00,VWS V14.01,2013-09-18 12:11:00,
2013-09-18 08:12:00,75.4,68.8,29.79,NW,315,4.3,6.3,80,0.00,,---,0.00,VWS V14.01,2013-09-18 12:12:00,
2013-09-18 08:13:00,75.4,68.8,29.80,NW,315,4.0,4.3,80,0.00,,---,0.00,VWS V14.01,2013-09-18 12:13:00,
2013-09-18 08:14:00,75.4,68.8,29.80,NW,315,3.1,4.0,80,0.00,,---,0.00,VWS V14.01,2013-09-18 12:14:00,
2013-09-18 08:15:00,75.4,68.8,29.80,NW,315,0.0,3.1,80,0.00,,---,0.00,VWS V14.01,2013-09-18 12:15:00,
2013-09-18 08:16:00,75.4,68.8,29.80,NE,45,2.5,2.5,80,0.00,,---,0.00,VWS V14.01,2013-09-18 12:16:00,
2013-09-18 08:17:00,75.4,68.8,29.79,SW,225,2.7,2.9,80,0.00,,---,0.00,VWS V14.01,2013-09-18 12:17:00,
2013-09-18 08:18:00,75.4,69.2,29.80,NW,315,4.3,4.3,81,0.00,,---,0.00,VWS V14.01,2013-09-18 12:18:00,
2013-09-18 08:19:00,75.4,69.2,29.80,ESE,112,2.2,4.3,81,0.00,,---,0.00,VWS V14.01,2013-09-18 12:19:00,
2013-09-18 08:20:00,75.4,69.2,29.80,NW,315,1.1,2.9,81,0.00,,---,0.00,VWS V14.01,2013-09-18 12:20:00,
2013-09-18 08:21:00,75.4,69.2,29.80,NW,315,0.0,1.1,81,0.00,,---,0.00,VWS V14.01,2013-09-18 12:21:00,
2013-09-18 08:22:00,75.4,69.2,29.79,NNW,338,3.6,3.6,81,0.00,,---,0.00,VWS V14.01,2013-09-18 12:22:00,
2013-09-18 08:23:00,75.4,69.2,29.80,NW,315,3.1,3.6,81,0.00,,---,0.00,VWS V14.01,2013-09-18 12:23:00,
2013-09-18 08:24:00,75.4,69.2,29.80,NW,315,2.0,3.1,81,0.00,,---,0.00,VWS V14.01,2013-09-18 12:24:00,
2013-09-18 08:25:00,75.4,69.2,29.80,NW,315,2.5,3.4,81,0.00,,---,0.00,VWS V14.01,2013-09-18 12:25:00,
2013-09-18 08:26:00,75.6,69.3,29.80,North,0,5.6,5.6,81,0.00,,---,0.00,VWS V14.01,2013-09-18 12:26:00,
2013-09-18 08:27:00,75.6,69.3,29.79,NNW,338,3.8,5.6,81,0.00,,---,0.00,VWS V14.01,2013-09-18 12:27:00,
2013-09-18 08:28:00,75.6,69.3,29.80,ENE,68,0.9,3.8,81,0.00,,---,0.00,VWS V14.01,2013-09-18 12:28:00,
2013-09-18 08:29:00,75.6,69.3,29.80,WNW,292,1.1,1.1,81,0.00,,---,0.00,VWS V14.01,2013-09-18 12:29:00,
2013-09-18 08:30:00,75.6,69.3,29.80,WNW,292,1.1,1.3,81,0.00,,---,0.00,VWS V14.01,2013-09-18 12:30:00,
2013-09-18 08:31:00,75.6,69.3,29.80,NE,45,3.1,5.6,81,0.00,,---,0.00,VWS V14.01,2013-09-18 12:31:00,
2013-09-18 08:32:00,75.6,69.0,29.79,NW,315,3.4,3.6,80,0.00,,---,0.00,VWS V14.01,2013-09-18 12:32:00,
2013-09-18 08:33:00,75.6,69.0,29.80,NW,315,1.3,3.4,80,0.00,,---,0.00,VWS V14.01,2013-09-18 12:33:00,
2013-09-18 08:34:00,75.6,69.0,29.80,WNW,292,2.5,2.5,80,0.00,,---,0.00,VWS V14.01,2013-09-18 12:34:00,
2013-09-18 08:35:00,75.6,69.0,29.80,North,0,1.3,4.0,80,0.00,,---,0.00,VWS V14.01,2013-09-18 12:35:00,
2013-09-18 08:36:00,75.6,69.0,29.80,NW,315,2.5,4.0,80,0.00,,---,0.00,VWS V14.01,2013-09-18 12:36:00,
2013-09-18 08:37:00,75.6,69.0,29.79,NW,315,2.7,3.6,80,0.00,,---,0.00,VWS V14.01,2013-09-18 12:37:00,
2013-09-18 08:38:00,75.6,69.0,29.80,NE,45,3.8,4.7,80,0.00,,---,0.00,VWS V14.01,2013-09-18 12:38:00,
2013-09-18 08:39:00,75.7,69.1,29.80,NNW,338,3.6,3.8,80,0.00,,---,0.00,VWS V14.01,2013-09-18 12:39:00,
2013-09-18 08:40:00,75.7,69.1,29.80,NNW,338,3.8,4.0,80,0.00,,---,0.00,VWS V14.01,2013-09-18 12:40:00,
2013-09-18 08:41:00,75.7,69.1,29.80,NNE,22,1.3,6.3,80,0.00,,---,0.00,VWS V14.01,2013-09-18 12:41:00,
2013-09-18 08:42:00,75.7,69.1,29.79,NNE,22,5.4,5.4,80,0.00,,---,0.00,VWS V14.01,2013-09-18 12:42:00,
2013-09-18 08:43:00,75.6,68.6,29.80,WSW,248,2.7,4.0,79,0.00,,---,0.00,VWS V14.01,2013-09-18 12:43:00,
2013-09-18 08:44:00,75.7,68.8,29.80,NNE,22,3.1,3.1,79,0.00,,---,0.00,VWS V14.01,2013-09-18 12:44:00,
2013-09-18 08:45:00,75.7,68.8,29.80,North,0,2.5,4.3,79,0.00,,---,0.00,VWS V14.01,2013-09-18 12:45:00,
2013-09-18 08:46:00,75.7,68.8,29.80,NNW,338,4.0,6.0,79,0.00,,---,0.00,VWS V14.01,2013-09-18 12:46:00,
2013-09-18 08:47:00,75.7,68.8,29.79,NE,45,2.7,5.8,79,0.00,,---,0.00,VWS V14.01,2013-09-18 12:47:00,
2013-09-18 08:48:00,75.9,68.9,29.80,NE,45,2.5,2.7,79,0.00,,---,0.00,VWS V14.01,2013-09-18 12:48:00,
2013-09-18 08:49:00,75.9,68.9,29.80,SE,135,1.1,2.7,79,0.00,,---,0.00,VWS V14.01,2013-09-18 12:49:00,
2013-09-18 08:50:00,75.9,68.9,29.80,SE,135,2.0,2.0,79,0.00,,---,0.00,VWS V14.01,2013-09-18 12:50:00,
2013-09-18 08:51:00,75.9,68.9,29.80,ENE,68,2.0,3.8,79,0.00,,---,0.00,VWS V14.01,2013-09-18 12:51:00,
2013-09-18 08:52:00,75.9,68.9,29.79,SE,135,2.0,2.0,79,0.00,,---,0.00,VWS V14.01,2013-09-18 12:52:00,
2013-09-18 08:53:00,75.9,68.9,29.80,NE,45,1.6,2.0,79,0.00,,---,0.00,VWS V14.01,2013-09-18 12:53:00,
2013-09-18 08:54:00,76.1,69.1,29.80,NE,45,1.3,1.6,79,0.00,,---,0.00,VWS V14.01,2013-09-18 12:54:00,
2013-09-18 08:56:00,76.1,69.1,29.80,NNE,22,1.1,6.5,79,0.00,,---,0.00,VWS V14.01,2013-09-18 12:56:00,
2013-09-18 08:57:00,76.1,69.1,29.79,SE,135,2.7,2.7,79,0.00,,---,0.00,VWS V14.01,2013-09-18 12:57:00,
2013-09-18 08:58:00,76.1,68.8,29.80,North,0,2.9,2.9,78,0.00,,---,0.00,VWS V14.01,2013-09-18 12:58:00,
2013-09-18 08:59:00,76.3,68.9,29.80,West,270,3.4,3.8,78,0.00,,---,0.00,VWS V14.01,2013-09-18 12:59:00,
2013-09-18 09:00:00,76.3,68.9,29.80,NE,45,1.1,3.4,78,0.00,,---,0.00,VWS V14.01,2013-09-18 13:00:00,
2013-09-18 09:01:00,76.3,68.9,29.80,NNW,338,2.9,5.6,78,0.00,,---,0.00,VWS V14.01,2013-09-18 13:01:00,
2013-09-18 09:02:00,76.3,68.9,29.79,NW,315,2.9,4.9,78,0.00,,---,0.00,VWS V14.01,2013-09-18 13:02:00,
2013-09-18 09:03:00,76.3,68.9,29.80,NE,45,2.7,2.9,78,0.00,,---,0.00,VWS V14.01,2013-09-18 13:03:00,
2013-09-18 09:04:00,76.3,68.9,29.80,NW,315,3.4,4.5,78,0.00,,---,0.00,VWS V14.01,2013-09-18 13:04:00,
2013-09-18 09:05:00,76.3,68.9,29.80,SW,225,3.1,4.9,78,0.00,,---,0.00,VWS V14.01,2013-09-18 13:05:00,
2013-09-18 09:06:00,76.5,69.1,29.80,NW,315,3.8,4.3,78,0.00,,---,0.00,VWS V14.01,2013-09-18 13:06:00,
2013-09-18 09:07:00,76.5,69.1,29.79,NNW,338,2.0,3.8,78,0.00,,---,0.00,VWS V14.01,2013-09-18 13:07:00,
2013-09-18 09:08:00,76.6,68.9,29.80,North,0,3.8,4.0,77,0.00,,---,0.00,VWS V14.01,2013-09-18 13:08:00,
2013-09-18 09:09:00,76.6,68.9,29.80,NE,45,3.4,3.8,77,0.00,,---,0.00,VWS V14.01,2013-09-18 13:09:00,
2013-09-18 09:10:00,76.6,68.9,29.76,NE,45,1.1,3.4,77,0.00,,---,0.00,VWS V14.01,2013-09-18 13:10:00,
2013-09-18 09:11:00,76.8,69.1,29.76,NW,315,3.1,4.9,77,0.00,,---,0.00,VWS V14.01,2013-09-18 13:11:00,
2013-09-18 09:12:00,76.8,69.1,29.76,NNW,338,2.5,4.3,77,0.00,,---,0.00,VWS V14.01,2013-09-18 13:12:00,
2013-09-18 09:13:00,77.0,69.2,29.76,NNE,22,4.3,4.3,77,0.00,,---,0.00,VWS V14.01,2013-09-18 13:13:00,
2013-09-18 09:14:00,77.0,69.2,29.76,East,90,4.3,5.8,77,0.00,,---,0.00,VWS V14.01,2013-09-18 13:14:00,
2013-09-18 09:15:00,77.0,69.2,29.76,West,270,2.9,4.3,77,0.00,,---,0.00,VWS V14.01,2013-09-18 13:15:00,
2013-09-18 09:16:00,77.2,69.0,29.76,NNE,22,4.3,4.3,76,0.00,,---,0.00,VWS V14.01,2013-09-18 13:16:00,
2013-09-18 09:17:00,77.2,69.0,29.76,NNE,22,3.1,4.5,76,0.00,,---,0.00,VWS V14.01,2013-09-18 13:17:00,
2013-09-18 09:18:00,77.4,69.2,29.76,ENE,68,2.7,4.0,76,0.00,,---,0.00,VWS V14.01,2013-09-18 13:18:00,
2013-09-18 09:19:00,77.4,69.2,29.76,NE,45,3.8,6.3,76,0.00,,---,0.00,VWS V14.01,2013-09-18 13:19:00,
2013-09-18 09:20:00,77.4,68.8,29.76,WNW,292,2.9,4.3,75,0.00,,---,0.00,VWS V14.01,2013-09-18 13:20:00,
2013-09-18 09:21:00,77.5,69.0,29.76,ESE,112,4.7,4.7,75,0.00,,---,0.00,VWS V14.01,2013-09-18 13:21:00,
2013-09-18 09:22:00,77.7,69.2,29.76,NNW,338,2.7,2.7,75,0.00,,---,0.00,VWS V14.01,2013-09-18 13:22:00,
2013-09-18 09:23:00,77.7,69.2,29.76,West,270,3.1,4.7,75,0.00,,---,0.00,VWS V14.01,2013-09-18 13:23:00,
2013-09-18 09:24:00,77.9,69.3,29.76,NE,45,2.9,4.3,75,0.00,,---,0.00,VWS V14.01,2013-09-18 13:24:00,
2013-09-18 09:25:00,77.9,69.3,29.80,NNE,22,4.0,4.0,75,0.00,,---,0.00,VWS V14.01,2013-09-18 13:25:00,
2013-09-18 09:26:00,78.1,69.5,29.80,NNE,22,5.6,5.6,75,0.00,,---,0.00,VWS V14.01,2013-09-18 13:26:00,
2013-09-18 09:27:00,78.1,69.5,29.79,East,90,2.5,4.7,75,0.00,,---,0.00,VWS V14.01,2013-09-18 13:27:00,
2013-09-18 09:28:00,78.1,69.1,29.80,NW,315,5.8,5.8,74,0.00,,---,0.00,VWS V14.01,2013-09-18 13:28:00,
2013-09-18 09:29:00,78.3,69.3,29.80,North,0,3.8,5.8,74,0.00,,---,0.00,VWS V14.01,2013-09-18 13:29:00,
2013-09-18 09:30:00,78.8,69.4,29.80,NE,45,4.3,4.3,73,0.00,,---,0.00,VWS V14.01,2013-09-18 13:30:00,
2013-09-18 09:31:00,79.0,69.2,29.80,North,0,5.6,6.3,72,0.00,,---,0.00,VWS V14.01,2013-09-18 13:31:00,
2013-09-18 09:32:00,79.2,69.4,29.79,ENE,68,2.7,2.7,72,0.00,,---,0.00,VWS V14.01,2013-09-18 13:32:00,
2013-09-18 09:33:00,79.3,69.5,29.80,NE,45,3.1,3.1,72,0.00,,---,0.00,VWS V14.01,2013-09-18 13:33:00,
2013-09-18 09:34:00,79.5,69.7,29.80,NW,315,3.8,4.0,72,0.00,,---,0.00,VWS V14.01,2013-09-18 13:34:00,
2013-09-18 09:35:00,79.7,69.9,29.80,North,0,3.1,3.8,72,0.00,,---,0.00,VWS V14.01,2013-09-18 13:35:00,
2013-09-18 09:36:00,80.1,69.8,29.80,NE,45,1.6,3.4,71,0.00,,---,0.00,VWS V14.01,2013-09-18 13:36:00,
2013-09-18 09:37:00,80.6,69.9,29.79,WNW,292,2.9,2.9,70,0.00,,---,0.00,VWS V14.01,2013-09-18 13:37:00,
2013-09-18 09:38:00,80.8,70.1,29.80,NNE,22,4.0,4.0,70,0.00,,---,0.00,VWS V14.01,2013-09-18 13:38:00,
2013-09-18 09:39:00,80.8,69.7,29.80,NW,315,6.5,6.5,69,0.00,,---,0.00,VWS V14.01,2013-09-18 13:39:00,
2013-09-18 09:40:00,81.0,69.8,29.80,NNE,22,2.9,6.5,69,0.00,,---,0.00,VWS V14.01,2013-09-18 13:40:00,
2013-09-18 09:41:00,81.0,69.4,29.80,NW,315,4.5,4.5,68,0.00,,---,0.00,VWS V14.01,2013-09-18 13:41:00,
2013-09-18 09:42:00,81.0,69.8,29.79,NW,315,7.8,7.8,69,0.00,,---,0.00,VWS V14.01,2013-09-18 13:42:00,
2013-09-18 09:43:00,81.1,69.6,29.80,NNE,22,4.0,7.8,68,0.00,,---,0.00,VWS V14.01,2013-09-18 13:43:00,
2013-09-18 09:44:00,81.1,69.6,29.80,NNE,22,4.0,4.0,68,0.00,,---,0.00,VWS V14.01,2013-09-18 13:44:00,
2013-09-18 09:45:00,81.3,69.8,29.80,North,0,1.1,4.0,68,0.00,,---,0.00,VWS V14.01,2013-09-18 13:45:00,
2013-09-18 09:46:00,82.0,70.4,29.80,ESE,112,3.6,5.6,68,0.00,,---,0.00,VWS V14.01,2013-09-18 13:46:00,
2013-09-18 09:47:00,82.4,70.3,29.79,NNW,338,4.0,4.0,67,0.00,,---,0.00,VWS V14.01,2013-09-18 13:47:00,
2013-09-18 09:48:00,82.2,70.6,29.80,ESE,112,3.1,6.3,68,0.00,,---,0.00,VWS V14.01,2013-09-18 13:48:00,
2013-09-18 09:49:00,82.4,70.3,29.80,NE,45,2.5,3.6,67,0.00,,---,0.00,VWS V14.01,2013-09-18 13:49:00,
2013-09-18 09:50:00,82.6,70.1,29.80,East,90,2.5,5.4,66,0.00,,---,0.00,VWS V14.01,2013-09-18 13:50:00,
2013-09-18 09:51:00,82.6,70.1,29.80,NNW,338,4.3,4.3,66,0.00,,---,0.00,VWS V14.01,2013-09-18 13:51:00,
2013-09-18 09:52:00,82.6,70.1,29.80,NNE,22,3.4,4.7,66,0.00,,---,0.00,VWS V14.01,2013-09-18 13:52:00,
2013-09-18 09:53:00,83.1,70.6,29.79,South,180,2.5,3.4,66,0.00,,---,0.00,VWS V14.01,2013-09-18 13:53:00,
2013-09-18 09:54:00,83.7,71.1,29.80,NE,45,5.6,5.6,66,0.00,,---,0.00,VWS V14.01,2013-09-18 13:54:00,
2013-09-18 09:55:00,84.2,71.2,29.80,NW,315,7.2,9.8,65,0.00,,---,0.00,VWS V14.01,2013-09-18 13:55:00,
2013-09-18 09:56:00,84.2,71.2,29.80,WNW,292,4.9,7.2,65,0.00,,---,0.00,VWS V14.01,2013-09-18 13:56:00,
2013-09-18 09:57:00,84.2,70.7,29.80,ENE,68,3.1,6.3,64,0.00,,---,0.00,VWS V14.01,2013-09-18 13:57:00,
2013-09-18 09:58:00,84.6,71.1,29.79,NE,45,4.3,4.3,64,0.00,,---,0.00,VWS V14.01,2013-09-18 13:58:00,
2013-09-18 09:59:00,84.9,71.4,29.80,NNE,22,2.7,5.6,64,0.00,,---,0.00,VWS V14.01,2013-09-18 13:59:00,
2013-09-18 10:00:00,85.3,71.3,29.80,East,90,9.2,9.2,63,0.00,,---,0.00,VWS V14.01,2013-09-18 14:00:00,
2013-09-18 10:01:00,85.6,71.1,29.80,SE,135,2.5,9.2,62,0.00,,---,0.00,VWS V14.01,2013-09-18 14:01:00,
2013-09-18 10:02:00,85.8,70.8,29.80,NE,45,3.8,6.5,61,0.00,,---,0.00,VWS V14.01,2013-09-18 14:02:00,
2013-09-18 10:03:00,85.8,70.8,29.79,NNE,22,4.0,4.0,61,0.00,,---,0.00,VWS V14.01,2013-09-18 14:03:00,
2013-09-18 10:04:00,85.8,69.8,29.80,SW,225,2.7,4.3,59,0.00,,---,0.00,VWS V14.01,2013-09-18 14:04:00,
2013-09-18 10:06:00,86.2,70.2,29.80,NE,45,1.3,3.6,59,0.00,,---,0.00,VWS V14.01,2013-09-18 14:06:00,
2013-09-18 10:07:00,86.7,71.2,29.80,NE,45,1.6,2.2,60,0.00,,---,0.00,VWS V14.01,2013-09-18 14:07:00,
2013-09-18 10:08:00,87.1,71.5,29.79,NW,315,2.9,3.8,60,0.00,,---,0.00,VWS V14.01,2013-09-18 14:08:00,
2013-09-18 10:09:00,87.8,71.7,29.80,NE,45,2.5,4.3,59,0.00,,---,0.00,VWS V14.01,2013-09-18 14:09:00,
2013-09-18 10:10:00,88.2,71.5,29.80,NE,45,1.3,3.4,58,0.00,,---,0.00,VWS V14.01,2013-09-18 14:10:00,
2013-09-18 10:11:00,88.0,70.3,29.80,West,270,3.6,5.8,56,0.00,,---,0.00,VWS V14.01,2013-09-18 14:11:00,
2013-09-18 10:12:00,88.3,70.1,29.80,North,0,3.4,3.6,55,0.00,,---,0.00,VWS V14.01,2013-09-18 14:12:00,
2013-09-18 10:13:00,88.2,70.0,29.79,North,0,7.4,7.4,55,0.00,,---,0.00,VWS V14.01,2013-09-18 14:13:00,
2013-09-18 10:14:00,88.3,70.1,29.80,North,0,2.5,5.4,55,0.00,,---,0.00,VWS V14.01,2013-09-18 14:14:00,
2013-09-18 10:15:00,88.5,69.8,29.80,ENE,68,5.8,5.8,54,0.00,,---,0.00,VWS V14.01,2013-09-18 14:15:00,
2013-09-18 10:16:00,88.9,70.6,29.80,ENE,68,4.7,6.9,55,0.00,,---,0.00,VWS V14.01,2013-09-18 14:16:00,
2013-09-18 10:17:00,88.9,70.6,29.80,ESE,112,6.5,6.5,55,0.00,,---,0.00,VWS V14.01,2013-09-18 14:17:00,
2013-09-18 10:18:00,88.7,69.9,29.79,NE,45,3.4,6.5,54,0.00,,---,0.00,VWS V14.01,2013-09-18 14:18:00,
2013-09-18 10:19:00,88.2,68.3,29.80,NE,45,1.3,3.1,52,0.00,,---,0.00,VWS V14.01,2013-09-18 14:19:00,
2013-09-18 10:20:00,87.6,68.9,29.80,NW,315,5.4,5.6,54,0.00,,---,0.00,VWS V14.01,2013-09-18 14:20:00,
2013-09-18 10:21:00,87.4,68.8,29.80,NNE,22,2.7,6.5,54,0.00,,---,0.00,VWS V14.01,2013-09-18 14:21:00,
2013-09-18 10:22:00,87.3,68.6,29.80,NE,45,4.7,4.7,54,0.00,,---,0.00,VWS V14.01,2013-09-18 14:22:00,
2013-09-18 10:23:00,87.1,68.4,29.79,NW,315,2.9,7.2,54,0.00,,---,0.00,VWS V14.01,2013-09-18 14:23:00,
2013-09-18 10:24:00,86.4,67.8,29.80,South,180,4.7,5.6,54,0.00,,---,0.00,VWS V14.01,2013-09-18 14:24:00,
2013-09-18 10:25:00,86.2,67.6,29.80,NNE,22,4.7,5.6,54,0.00,,---,0.00,VWS V14.01,2013-09-18 14:25:00,
2013-09-18 10:26:00,86.0,67.4,29.80,NW,315,2.7,6.3,54,0.00,,---,0.00,VWS V14.01,2013-09-18 14:26:00,
2013-09-18 10:27:00,85.8,67.8,29.80,NW,315,0.9,2.7,55,0.00,,---,0.00,VWS V14.01,2013-09-18 14:27:00,
2013-09-18 10:28:00,85.8,68.3,29.79,NW,315,3.1,3.1,56,0.00,,---,0.00,VWS V14.01,2013-09-18 14:28:00,
2013-09-18 10:30:00,86.7,69.2,29.80,NE,45,3.8,3.8,56,0.00,,---,0.00,VWS V14.01,2013-09-18 14:30:00,
2013-09-18 10:31:00,86.7,68.6,29.80,NNE,22,3.4,4.3,55,0.00,,---,0.00,VWS V14.01,2013-09-18 14:31:00,
2013-09-18 10:32:00,86.2,68.1,29.80,NNE,22,4.5,4.5,55,0.00,,---,0.00,VWS V14.01,2013-09-18 14:32:00,
2013-09-18 10:33:00,86.7,68.6,29.79,WNW,292,5.4,5.4,55,0.00,,---,0.00,VWS V14.01,2013-09-18 14:33:00,
2013-09-18 10:34:00,86.7,68.6,29.80,North,0,3.4,3.6,55,0.00,,---,0.00,VWS V14.01,2013-09-18 14:34:00,
2013-09-18 10:35:00,87.1,69.5,29.80,North,0,5.4,5.8,56,0.00,,---,0.00,VWS V14.01,2013-09-18 14:35:00,
2013-09-18 10:36:00,87.6,70.0,29.80,North,0,3.1,5.4,56,0.00,,---,0.00,VWS V14.01,2013-09-18 14:36:00,
2013-09-18 10:37:00,88.2,70.5,29.80,East,90,2.9,3.6,56,0.00,,---,0.00,VWS V14.01,2013-09-18 14:37:00,
2013-09-18 10:38:00,88.9,71.2,29.79,NE,45,1.6,2.9,56,0.00,,---,0.00,VWS V14.01,2013-09-18 14:38:00,
2013-09-18 10:39:00,89.6,71.3,29.80,NW,315,2.0,4.3,55,0.00,,---,0.00,VWS V14.01,2013-09-18 14:39:00,
2013-09-18 10:40:00,89.8,70.9,29.80,WNW,292,6.3,6.3,54,0.00,,---,0.00,VWS V14.01,2013-09-18 14:40:00,
2013-09-18 10:41:00,90.5,71.6,29.80,ESE,112,3.6,8.1,54,0.00,,---,0.00,VWS V14.01,2013-09-18 14:41:00,
2013-09-18 10:42:00,90.7,71.2,29.80,North,0,2.0,4.0,53,0.00,,---,0.00,VWS V14.01,2013-09-18 14:42:00,
2013-09-18 10:43:00,91.2,71.2,29.79,NNW,338,4.0,6.0,52,0.00,,---,0.00,VWS V14.01,2013-09-18 14:43:00,
2013-09-18 10:44:00,91.0,69.2,29.80,East,90,4.0,6.3,49,0.00,,---,0.00,VWS V14.01,2013-09-18 14:44:00,
2013-09-18 10:45:00,91.2,70.0,29.80,NNE,22,2.5,4.3,50,0.00,,---,0.00,VWS V14.01,2013-09-18 14:45:00,
2013-09-18 10:46:00,91.6,69.7,29.80,NE,45,5.8,5.8,49,0.00,,---,0.00,VWS V14.01,2013-09-18 14:46:00,
2013-09-18 10:47:00,91.4,68.3,29.80,SE,135,2.7,5.8,47,0.00,,---,0.00,VWS V14.01,2013-09-18 14:47:00,
2013-09-18 10:48:00,91.4,68.3,29.79,ESE,112,3.1,3.1,47,0.00,,---,0.00,VWS V14.01,2013-09-18 14:48:00,
2013-09-18 10:49:00,91.4,68.3,29.80,NNE,22,3.8,3.8,47,0.00,,---,0.00,VWS V14.01,2013-09-18 14:49:00,
2013-09-18 10:50:00,90.7,68.3,29.80,East,90,6.5,6.5,48,0.00,,---,0.00,VWS V14.01,2013-09-18 14:50:00,
2013-09-18 10:51:00,90.9,69.1,29.80,ENE,68,5.4,6.5,49,0.00,,---,0.00,VWS V14.01,2013-09-18 14:51:00,
2013-09-18 10:52:00,91.2,68.8,29.80,NE,45,3.4,5.4,48,0.00,,---,0.00,VWS V14.01,2013-09-18 14:52:00,
2013-09-18 10:53:00,91.4,69.0,29.79,SE,135,3.6,4.3,48,0.00,,---,0.00,VWS V14.01,2013-09-18 14:53:00,
2013-09-18 10:54:00,91.8,68.7,29.80,North,0,4.9,5.8,47,0.00,,---,0.00,VWS V14.01,2013-09-18 14:54:00,
2013-09-18 10:55:00,91.6,68.5,29.80,NW,315,5.8,5.8,47,0.00,,---,0.00,VWS V14.01,2013-09-18 14:55:00,
2013-09-18 10:56:00,90.9,67.2,29.80,NE,45,5.4,5.8,46,0.00,,---,0.00,VWS V14.01,2013-09-18 14:56:00,
2013-09-18 10:57:00,90.3,67.4,29.80,East,90,4.3,5.4,47,0.00,,---,0.00,VWS V14.01,2013-09-18 14:57:00,
2013-09-18 10:58:00,89.6,66.7,29.79,North,0,4.9,6.5,47,0.00,,---,0.00,VWS V14.01,2013-09-18 14:58:00,
2013-09-18 10:59:00,89.4,67.2,29.80,NNE,22,4.9,6.5,48,0.00,,---,0.00,VWS V14.01,2013-09-18 14:59:00,
2013-09-18 11:00:00,89.1,66.2,29.80,NNE,22,2.5,4.9,47,0.00,,---,0.00,VWS V14.01,2013-09-18 15:00:00,
2013-09-18 11:01:00,89.8,67.5,29.80,NE,45,4.3,4.3,48,0.00,,---,0.00,VWS V14.01,2013-09-18 15:01:00,
2013-09-18 11:02:00,89.2,67.6,29.80,NNE,22,4.0,5.8,49,0.00,,---,0.00,VWS V14.01,2013-09-18 15:02:00,
2013-09-18 11:03:00,88.7,67.1,29.79,North,0,2.0,4.0,49,0.00,,---,0.00,VWS V14.01,2013-09-18 15:03:00,
2013-09-18 11:04:00,88.5,66.9,29.80,NE,45,4.0,4.0,49,0.00,,---,0.00,VWS V14.01,2013-09-18 15:04:00,
2013-09-18 11:05:00,88.2,67.2,29.80,NE,45,2.0,4.0,50,0.00,,---,0.00,VWS V14.01,2013-09-18 15:05:00,
2013-09-18 11:06:00,87.8,66.3,29.80,NE,45,3.6,8.1,49,0.00,,---,0.00,VWS V14.01,2013-09-18 15:06:00,
2013-09-18 11:07:00,87.6,66.7,29.80,NE,45,4.0,4.0,50,0.00,,---,0.00,VWS V14.01,2013-09-18 15:07:00,
2013-09-18 11:08:00,87.3,66.4,29.79,NNE,22,3.8,5.4,50,0.00,,---,0.00,VWS V14.01,2013-09-18 15:08:00,
2013-09-18 11:09:00,87.1,66.8,29.80,North,0,2.5,7.2,51,0.00,,---,0.00,VWS V14.01,2013-09-18 15:09:00,
2013-09-18 11:10:00,87.1,66.8,29.80,NNE,22,6.9,6.9,51,0.00,,---,0.00,VWS V14.01,2013-09-18 15:10:00,
2013-09-18 11:11:00,87.1,67.3,29.80,NE,45,3.4,6.9,52,0.00,,---,0.00,VWS V14.01,2013-09-18 15:11:00,
2013-09-18 11:12:00,87.3,67.5,29.80,NE,45,3.8,5.4,52,0.00,,---,0.00,VWS V14.01,2013-09-18 15:12:00,
2013-09-18 11:13:00,87.1,67.3,29.79,North,0,5.4,6.9,52,0.00,,---,0.00,VWS V14.01,2013-09-18 15:13:00,
2013-09-18 11:14:00,87.1,66.8,29.80,East,90,3.4,5.4,51,0.00,,---,0.00,VWS V14.01,2013-09-18 15:14:00,
2013-09-18 11:15:00,86.9,67.2,29.80,NNE,22,5.6,5.6,52,0.00,,---,0.00,VWS V14.01,2013-09-18 15:15:00,
2013-09-18 11:16:00,87.1,66.8,29.80,NW,315,4.3,5.6,51,0.00,,---,0.00,VWS V14.01,2013-09-18 15:16:00,
2013-09-18 11:17:00,87.6,67.8,29.80,North,0,5.6,5.6,52,0.00,,---,0.00,VWS V14.01,2013-09-18 15:17:00,
2013-09-18 11:18:00,87.6,67.8,29.79,NNW,338,2.7,5.6,52,0.00,,---,0.00,VWS V14.01,2013-09-18 15:18:00,
2013-09-18 11:19:00,87.6,67.8,29.80,North,0,1.1,7.4,52,0.00,,---,0.00,VWS V14.01,2013-09-18 15:19:00,
2013-09-18 11:20:00,87.8,67.4,29.80,SW,225,3.6,5.6,51,0.00,,---,0.00,VWS V14.01,2013-09-18 15:20:00,
2013-09-18 11:21:00,88.2,67.8,29.80,NW,315,4.5,4.5,51,0.00,,---,0.00,VWS V14.01,2013-09-18 15:21:00,
2013-09-18 11:22:00,88.0,67.0,29.80,NNW,338,3.6,4.5,50,0.00,,---,0.00,VWS V14.01,2013-09-18 15:22:00,
2013-09-18 11:23:00,88.0,67.0,29.79,East,90,3.6,4.9,50,0.00,,---,0.00,VWS V14.01,2013-09-18 15:23:00,
2013-09-18 11:24:00,87.6,66.7,29.80,NW,315,6.5,6.5,50,0.00,,---,0.00,VWS V14.01,2013-09-18 15:24:00,
2013-09-18 11:25:00,87.6,66.1,29.80,ESE,112,3.4,6.5,49,0.00,,---,0.00,VWS V14.01,2013-09-18 15:25:00,
2013-09-18 11:26:00,88.5,66.9,29.80,East,90,5.6,5.6,49,0.00,,---,0.00,VWS V14.01,2013-09-18 15:26:00,
2013-09-18 11:27:00,89.2,67.6,29.80,NE,45,2.7,5.6,49,0.00,,---,0.00,VWS V14.01,2013-09-18 15:27:00,
2013-09-18 11:28:00,90.0,67.7,29.79,SW,225,5.6,6.0,48,0.00,,---,0.00,VWS V14.01,2013-09-18 15:28:00,
2013-09-18 11:29:00,90.0,67.7,29.80,NNW,338,2.5,5.6,48,0.00,,---,0.00,VWS V14.01,2013-09-18 15:29:00,
2013-09-18 11:30:00,90.0,67.7,29.80,NNW,338,2.5,2.5,48,0.00,,---,0.00,VWS V14.01,2013-09-18 15:30:00,
2013-09-18 11:31:00,89.6,66.7,29.80,North,0,9.8,9.8,47,0.00,,---,0.00,VWS V14.01,2013-09-18 15:31:00,
2013-09-18 11:32:00,89.2,65.1,29.80,SSW,202,3.8,9.8,45,0.00,,---,0.00,VWS V14.01,2013-09-18 15:32:00,
2013-09-18 11:33:00,89.2,65.1,29.79,NNE,22,3.1,5.8,45,0.00,,---,0.00,VWS V14.01,2013-09-18 15:33:00,
2013-09-18 11:34:00,88.5,65.1,29.80,North,0,6.5,6.5,46,0.00,,---,0.00,VWS V14.01,2013-09-18 15:34:00,
2013-09-18 11:35:00,88.2,64.8,29.80,East,90,6.0,6.5,46,0.00,,---,0.00,VWS V14.01,2013-09-18 15:35:00,
2013-09-18 11:36:00,88.0,65.2,29.80,NNE,22,6.3,6.3,47,0.00,,---,0.00,VWS V14.01,2013-09-18 15:36:00,
2013-09-18 11:37:00,87.8,65.1,29.80,East,90,3.4,6.3,47,0.00,,---,0.00,VWS V14.01,2013-09-18 15:37:00,
2013-09-18 11:38:00,87.8,65.1,29.79,NW,315,3.6,5.8,47,0.00,,---,0.00,VWS V14.01,2013-09-18 15:38:00,
2013-09-18 11:39:00,87.6,64.9,29.80,ENE,68,5.8,8.1,47,0.00,,---,0.00,VWS V14.01,2013-09-18 15:39:00,
2013-09-18 11:40:00,87.4,64.8,29.80,NNE,22,3.4,6.3,47,0.00,,---,0.00,VWS V14.01,2013-09-18 15:40:00,
2013-09-18 11:41:00,87.4,64.8,29.80,SSW,202,2.9,4.3,47,0.00,,---,0.00,VWS V14.01,2013-09-18 15:41:00,
2013-09-18 11:42:00,87.6,64.9,29.80,NW,315,3.1,3.1,47,0.00,,---,0.00,VWS V14.01,2013-09-18 15:42:00,
2013-09-18 11:43:00,87.8,65.1,29.79,ENE,68,2.0,3.1,47,0.00,,---,0.00,VWS V14.01,2013-09-18 15:43:00,
2013-09-18 11:44:00,87.8,65.1,29.80,ENE,68,2.0,3.1,47,0.00,,---,0.00,VWS V14.01,2013-09-18 15:44:00,
2013-09-18 11:45:00,87.8,65.1,29.80,NNW,338,2.0,4.9,47,0.00,,---,0.00,VWS V14.01,2013-09-18 15:45:00,
2013-09-18 11:46:00,87.6,64.9,29.80,East,90,2.9,4.3,47,0.00,,---,0.00,VWS V14.01,2013-09-18 15:46:00,
2013-09-18 11:47:00,88.2,64.8,29.80,North,0,2.7,2.9,46,0.00,,---,0.00,VWS V14.01,2013-09-18 15:47:00,
2013-09-18 11:48:00,88.0,65.2,29.79,NNE,22,6.3,6.3,47,0.00,,---,0.00,VWS V14.01,2013-09-18 15:48:00,
2013-09-18 11:49:00,88.2,65.4,29.80,ESE,112,4.0,6.3,47,0.00,,---,0.00,VWS V14.01,2013-09-18 15:49:00,
2013-09-18 11:50:00,88.2,65.4,29.80,NE,45,2.9,6.3,47,0.00,,---,0.00,VWS V14.01,2013-09-18 15:50:00,
2013-09-18 11:51:00,88.0,64.0,29.80,North,0,3.8,3.8,45,0.00,,---,0.00,VWS V14.01,2013-09-18 15:51:00,
2013-09-18 11:52:00,88.3,64.9,29.80,NNE,22,3.1,5.8,46,0.00,,---,0.00,VWS V14.01,2013-09-18 15:52:00,
2013-09-18 11:53:00,89.6,66.1,29.79,NNW,338,2.5,2.9,46,0.00,,---,0.00,VWS V14.01,2013-09-18 15:53:00,
2013-09-18 11:54:00,90.1,65.9,29.80,NW,315,8.5,8.5,45,0.00,,---,0.00,VWS V14.01,2013-09-18 15:54:00,
2013-09-18 11:55:00,90.7,67.1,29.80,NNE,22,3.1,8.5,46,0.00,,---,0.00,VWS V14.01,2013-09-18 15:55:00,
2013-09-18 11:56:00,90.7,66.4,29.80,NE,45,5.4,5.8,45,0.00,,---,0.00,VWS V14.01,2013-09-18 15:56:00,
2013-09-18 11:57:00,90.9,66.6,29.80,NNW,338,2.9,7.8,45,0.00,,---,0.00,VWS V14.01,2013-09-18 15:57:00,
2013-09-18 11:58:00,91.2,66.9,29.79,NNW,338,6.5,6.5,45,0.00,,---,0.00,VWS V14.01,2013-09-18 15:58:00,
2013-09-18 11:59:00,90.7,65.8,29.80,West,270,3.4,7.8,44,0.00,,---,0.00,VWS V14.01,2013-09-18 15:59:00,
2013-09-18 12:00:00,91.0,66.8,29.80,NW,315,2.7,4.7,45,0.00,,---,0.00,VWS V14.01,2013-09-18 16:00:00,
2013-09-18 12:01:00,91.0,66.1,29.79,NE,45,5.4,5.4,44,0.00,,---,0.00,VWS V14.01,2013-09-18 16:01:00,
2013-09-18 12:02:00,91.6,65.9,29.80,North,0,4.9,8.5,43,0.00,,---,0.00,VWS V14.01,2013-09-18 16:02:00,
2013-09-18 12:03:00,91.6,65.9,29.80,ENE,68,3.6,4.9,43,0.00,,---,0.00,VWS V14.01,2013-09-18 16:03:00,
2013-09-18 12:04:00,91.8,64.0,29.80,NNE,22,9.0,9.0,40,0.00,,---,0.00,VWS V14.01,2013-09-18 16:04:00,
2013-09-18 12:05:00,90.9,63.2,29.80,North,0,3.8,9.0,40,0.00,,---,0.00,VWS V14.01,2013-09-18 16:05:00,
2013-09-18 12:06:00,90.9,63.9,29.79,East,90,4.9,4.9,41,0.00,,---,0.00,VWS V14.01,2013-09-18 16:06:00,
2013-09-18 12:07:00,91.2,64.2,29.80,NNE,22,4.9,4.9,41,0.00,,---,0.00,VWS V14.01,2013-09-18 16:07:00,
2013-09-18 12:08:00,91.2,64.2,29.80,NNW,338,3.4,5.6,41,0.00,,---,0.00,VWS V14.01,2013-09-18 16:08:00,
2013-09-18 12:09:00,92.5,65.4,29.80,ENE,68,6.0,6.0,41,0.00,,---,0.00,VWS V14.01,2013-09-18 16:09:00,
2013-09-18 12:10:00,92.7,64.8,29.80,NNE,22,6.0,6.0,40,0.00,,---,0.00,VWS V14.01,2013-09-18 16:10:00,
2013-09-18 12:11:00,92.7,64.8,29.79,North,0,6.3,9.6,40,0.00,,---,0.00,VWS V14.01,2013-09-18 16:11:00,
2013-09-18 12:12:00,92.7,64.8,29.80,WSW,248,2.0,7.6,40,0.00,,---,0.00,VWS V14.01,2013-09-18 16:12:00,
2013-09-18 12:13:00,92.8,65.0,29.80,SSW,202,6.0,6.0,40,0.00,,---,0.00,VWS V14.01,2013-09-18 16:13:00,
2013-09-18 12:14:00,92.7,64.8,29.80,NW,315,6.5,6.5,40,0.00,,---,0.00,VWS V14.01,2013-09-18 16:14:00,
2013-09-18 12:15:00,92.8,65.0,29.80,North,0,5.8,6.5,40,0.00,,---,0.00,VWS V14.01,2013-09-18 16:15:00,
2013-09-18 12:16:00,92.8,64.3,29.79,NE,45,3.6,8.5,39,0.00,,---,0.00,VWS V14.01,2013-09-18 16:16:00,
2013-09-18 12:17:00,92.3,63.0,29.80,NE,45,3.1,5.6,38,0.00,,---,0.00,VWS V14.01,2013-09-18 16:17:00,
2013-09-18 12:18:00,91.8,62.6,29.80,NNE,22,7.8,7.8,38,0.00,,---,0.00,VWS V14.01,2013-09-18 16:18:00,
2013-09-18 12:19:00,91.9,63.5,29.80,East,90,4.9,9.6,39,0.00,,---,0.00,VWS V14.01,2013-09-18 16:19:00,
2013-09-18 12:20:00,91.9,63.5,29.80,NE,45,4.0,6.5,39,0.00,,---,0.00,VWS V14.01,2013-09-18 16:20:00,
2013-09-18 12:21:00,92.3,63.8,29.79,NNE,22,5.4,10.1,39,0.00,,---,0.00,VWS V14.01,2013-09-18 16:21:00,
2013-09-18 12:22:00,92.3,63.8,29.80,NE,45,4.9,6.0,39,0.00,,---,0.00,VWS V14.01,2013-09-18 16:22:00,
2013-09-18 12:23:00,92.3,64.5,29.80,NE,45,5.4,5.6,40,0.00,,---,0.00,VWS V14.01,2013-09-18 16:23:00,
2013-09-18 12:24:00,91.9,63.5,29.80,NE,45,3.6,5.6,39,0.00,,---,0.00,VWS V14.01,2013-09-18 16:24:00,
2013-09-18 12:25:00,91.8,63.3,29.80,WSW,248,3.8,8.7,39,0.00,,---,0.00,VWS V14.01,2013-09-18 16:25:00,
2013-09-18 12:26:00,91.6,63.1,29.79,NW,315,7.2,8.5,39,0.00,,---,0.00,VWS V14.01,2013-09-18 16:26:00,
2013-09-18 12:27:00,91.0,62.7,29.80,North,0,5.8,5.8,39,0.00,,---,0.00,VWS V14.01,2013-09-18 16:27:00,
2013-09-18 12:28:00,91.6,63.1,29.80,North,0,3.8,8.1,39,0.00,,---,0.00,VWS V14.01,2013-09-18 16:28:00,
2013-09-18 12:29:00,91.8,63.3,29.80,ENE,68,3.8,6.3,39,0.00,,---,0.00,VWS V14.01,2013-09-18 16:29:00,
2013-09-18 12:30:00,92.3,64.5,29.80,NNW,338,3.1,3.8,40,0.00,,---,0.00,VWS V14.01,2013-09-18 16:30:00,
2013-09-18 12:31:00,92.3,64.5,29.79,NW,315,3.4,7.2,40,0.00,,---,0.00,VWS V14.01,2013-09-18 16:31:00,
2013-09-18 12:32:00,92.8,65.0,29.80,NW,315,5.4,5.4,40,0.00,,---,0.00,VWS V14.01,2013-09-18 16:32:00,
2013-09-18 12:33:00,92.3,63.8,29.80,NW,315,3.6,6.5,39,0.00,,---,0.00,VWS V14.01,2013-09-18 16:33:00,
2013-09-18 12:34:00,92.5,63.9,29.80,NNW,338,6.3,6.3,39,0.00,,---,0.00,VWS V14.01,2013-09-18 16:34:00,
2013-09-18 12:35:00,92.7,64.1,29.80,NNW,338,2.7,7.6,39,0.00,,---,0.00,VWS V14.01,2013-09-18 16:35:00,
2013-09-18 12:36:00,92.5,63.9,29.79,ENE,68,8.1,8.1,39,0.00,,---,0.00,VWS V14.01,2013-09-18 16:36:00,
2013-09-18 12:37:00,91.2,62.1,29.80,SE,135,7.6,8.1,38,0.00,,---,0.00,VWS V14.01,2013-09-18 16:37:00,
2013-09-18 12:38:00,90.7,62.3,29.80,NW,315,6.0,7.6,39,0.00,,---,0.00,VWS V14.01,2013-09-18 16:38:00,
2013-09-18 12:39:00,89.6,61.4,29.80,NNE,22,4.7,7.2,39,0.00,,---,0.00,VWS V14.01,2013-09-18 16:39:00,
2013-09-18 12:40:00,90.5,62.9,29.80,NNW,338,8.7,8.7,40,0.00,,---,0.00,VWS V14.01,2013-09-18 16:40:00,
2013-09-18 12:41:00,90.7,63.1,29.76,NNW,338,8.1,12.5,40,0.00,,---,0.00,VWS V14.01,2013-09-18 16:41:00,
2013-09-18 12:42:00,91.0,64.1,29.76,East,90,2.5,4.3,41,0.00,,---,0.00,VWS V14.01,2013-09-18 16:42:00,
2013-09-18 12:43:00,91.2,63.5,29.76,ENE,68,7.6,7.6,40,0.00,,---,0.00,VWS V14.01,2013-09-18 16:43:00,
2013-09-18 12:44:00,91.8,64.0,29.76,East,90,6.0,7.8,40,0.00,,---,0.00,VWS V14.01,2013-09-18 16:44:00,
2013-09-18 12:45:00,91.9,63.5,29.76,SW,225,4.9,6.0,39,0.00,,---,0.00,VWS V14.01,2013-09-18 16:45:00,
2013-09-18 12:46:00,92.1,63.6,29.76,East,90,2.5,5.4,39,0.00,,---,0.00,VWS V14.01,2013-09-18 16:46:00,
2013-09-18 12:47:00,92.1,63.6,29.76,NE,45,3.4,11.0,39,0.00,,---,0.00,VWS V14.01,2013-09-18 16:47:00,
2013-09-18 12:48:00,91.9,63.5,29.76,North,0,7.8,8.7,39,0.00,,---,0.00,VWS V14.01,2013-09-18 16:48:00,
2013-09-18 12:49:00,91.2,62.8,29.76,NNW,338,5.8,7.8,39,0.00,,---,0.00,VWS V14.01,2013-09-18 16:49:00,
2013-09-18 12:50:00,90.5,62.2,29.76,NE,45,2.9,7.4,39,0.00,,---,0.00,VWS V14.01,2013-09-18 16:50:00,
2013-09-18 12:51:00,91.0,63.4,29.76,East,90,4.0,4.0,40,0.00,,---,0.00,VWS V14.01,2013-09-18 16:51:00,
2013-09-18 12:52:00,90.7,63.1,29.76,NNE,22,3.1,5.8,40,0.00,,---,0.00,VWS V14.01,2013-09-18 16:52:00,
2013-09-18 12:53:00,90.5,63.6,29.76,ENE,68,2.7,8.7,41,0.00,,---,0.00,VWS V14.01,2013-09-18 16:53:00,
2013-09-18 12:54:00,90.1,63.3,29.76,NW,315,3.6,3.6,41,0.00,,---,0.00,VWS V14.01,2013-09-18 16:54:00,
2013-09-18 12:55:00,90.3,63.5,29.76,NNW,338,3.6,6.3,41,0.00,,---,0.00,VWS V14.01,2013-09-18 16:55:00,
2013-09-18 12:56:00,90.7,63.8,29.76,NE,45,7.2,9.0,41,0.00,,---,0.00,VWS V14.01,2013-09-18 16:56:00,
2013-09-18 12:57:00,90.5,63.6,29.76,NNE,22,9.2,9.2,41,0.00,,---,0.00,VWS V14.01,2013-09-18 16:57:00,
2013-09-18 12:58:00,90.3,62.7,29.76,NE,45,1.1,9.2,40,0.00,,---,0.00,VWS V14.01,2013-09-18 16:58:00,
2013-09-18 12:59:00,90.3,62.7,29.76,NNE,22,6.5,9.6,40,0.00,,---,0.00,VWS V14.01,2013-09-18 16:59:00,
2013-09-18 13:00:00,90.5,62.9,29.76,North,0,5.4,6.5,40,0.00,,---,0.00,VWS V14.01,2013-09-18 17:00:00,
2013-09-18 13:01:00,91.0,63.4,29.76,North,0,1.6,5.4,40,0.00,,---,0.00,VWS V14.01,2013-09-18 17:01:00,
2013-09-18 13:02:00,91.0,63.4,29.76,NNW,338,4.7,4.9,40,0.00,,---,0.00,VWS V14.01,2013-09-18 17:02:00,
2013-09-18 13:03:00,91.9,64.9,29.76,East,90,5.4,8.7,41,0.00,,---,0.00,VWS V14.01,2013-09-18 17:03:00,
2013-09-18 13:04:00,92.7,65.5,29.76,NE,45,1.6,6.5,41,0.00,,---,0.00,VWS V14.01,2013-09-18 17:04:00,
2013-09-18 13:05:00,92.7,64.1,29.76,ENE,68,6.3,6.3,39,0.00,,---,0.00,VWS V14.01,2013-09-18 17:05:00,
2013-09-18 13:06:00,92.8,64.3,29.76,NNE,22,6.5,6.5,39,0.00,,---,0.00,VWS V14.01,2013-09-18 17:06:00,
2013-09-18 13:07:00,92.8,63.5,29.76,ESE,112,6.9,6.9,38,0.00,,---,0.00,VWS V14.01,2013-09-18 17:07:00,
2013-09-18 13:08:00,92.8,63.5,29.76,North,0,3.8,6.9,38,0.00,,---,0.00,VWS V14.01,2013-09-18 17:08:00,
2013-09-18 13:09:00,92.8,63.5,29.76,East,90,4.9,4.9,38,0.00,,---,0.00,VWS V14.01,2013-09-18 17:09:00,
2013-09-18 13:10:00,92.5,63.2,29.76,NNE,22,4.3,6.7,38,0.00,,---,0.00,VWS V14.01,2013-09-18 17:10:00,
2013-09-18 13:11:00,92.3,63.8,29.76,East,90,12.1,12.1,39,0.00,,---,0.00,VWS V14.01,2013-09-18 17:11:00,
2013-09-18 13:12:00,91.9,62.7,29.76,ENE,68,3.1,12.1,38,0.00,,---,0.00,VWS V14.01,2013-09-18 17:12:00,
2013-09-18 13:13:00,91.9,63.5,29.76,North,0,2.0,6.3,39,0.00,,---,0.00,VWS V14.01,2013-09-18 17:13:00,
2013-09-18 13:14:00,91.8,63.3,29.76,North,0,3.8,4.9,39,0.00,,---,0.00,VWS V14.01,2013-09-18 17:14:00,
2013-09-18 13:15:00,91.9,63.5,29.76,NE,45,3.6,8.1,39,0.00,,---,0.00,VWS V14.01,2013-09-18 17:15:00,
2013-09-18 13:16:00,92.1,63.6,29.76,NNW,338,6.0,6.3,39,0.00,,---,0.00,VWS V14.01,2013-09-18 17:16:00,
2013-09-18 13:17:00,92.5,63.9,29.76,East,90,2.9,7.6,39,0.00,,---,0.00,VWS V14.01,2013-09-18 17:17:00,
2013-09-18 13:18:00,92.3,63.8,29.76,ESE,112,3.4,6.3,39,0.00,,---,0.00,VWS V14.01,2013-09-18 17:18:00,
2013-09-18 13:19:00,92.7,64.1,29.76,North,0,6.5,6.5,39,0.00,,---,0.00,VWS V14.01,2013-09-18 17:19:00,
2013-09-18 13:20:00,92.1,62.9,29.76,NE,45,3.8,8.7,38,0.00,,---,0.00,VWS V14.01,2013-09-18 17:20:00,
2013-09-18 13:21:00,91.8,63.3,29.76,NNE,22,2.5,5.6,39,0.00,,---,0.00,VWS V14.01,2013-09-18 17:21:00,
2013-09-18 13:22:00,91.4,63.0,29.76,East,90,5.4,5.6,39,0.00,,---,0.00,VWS V14.01,2013-09-18 17:22:00,
2013-09-18 13:23:00,91.0,62.7,29.76,NNW,338,3.6,5.4,39,0.00,,---,0.00,VWS V14.01,2013-09-18 17:23:00,
2013-09-18 13:24:00,90.7,63.1,29.76,NE,45,8.7,8.7,40,0.00,,---,0.00,VWS V14.01,2013-09-18 17:24:00,
2013-09-18 13:25:00,90.1,62.6,29.76,ENE,68,2.7,8.7,40,0.00,,---,0.00,VWS V14.01,2013-09-18 17:25:00,
2013-09-18 13:26:00,89.8,62.3,29.76,ENE,68,8.7,8.7,40,0.00,,---,0.00,VWS V14.01,2013-09-18 17:26:00,
2013-09-18 13:27:00,89.4,61.9,29.76,East,90,6.3,8.7,40,0.00,,---,0.00,VWS V14.01,2013-09-18 17:27:00,
2013-09-18 13:28:00,89.1,61.6,29.76,North,0,5.8,6.3,40,0.00,,---,0.00,VWS V14.01,2013-09-18 17:28:00,
2013-09-18 13:29:00,88.9,62.2,29.76,NE,45,1.6,5.8,41,0.00,,---,0.00,VWS V14.01,2013-09-18 17:29:00,
2013-09-18 13:30:00,89.1,62.3,29.76,East,90,2.5,5.4,41,0.00,,---,0.00,VWS V14.01,2013-09-18 17:30:00,
2013-09-18 13:31:00,89.4,62.6,29.76,East,90,3.4,3.4,41,0.00,,---,0.00,VWS V14.01,2013-09-18 17:31:00,
2013-09-18 13:32:00,89.4,62.6,29.76,NNE,22,5.4,5.4,41,0.00,,---,0.00,VWS V14.01,2013-09-18 17:32:00,
2013-09-18 13:33:00,90.5,64.3,29.76,East,90,2.9,5.8,42,0.00,,---,0.00,VWS V14.01,2013-09-18 17:33:00,
2013-09-18 13:34:00,91.2,64.9,29.76,West,270,3.4,3.4,42,0.00,,---,0.00,VWS V14.01,2013-09-18 17:34:00,
2013-09-18 13:35:00,91.9,65.6,29.76,NNE,22,6.7,6.7,42,0.00,,---,0.00,VWS V14.01,2013-09-18 17:35:00,
2013-09-18 13:36:00,91.9,62.7,29.76,NNW,338,6.5,8.5,38,0.00,,---,0.00,VWS V14.01,2013-09-18 17:36:00,
2013-09-18 13:37:00,91.9,62.7,29.76,NNW,338,5.4,8.5,38,0.00,,---,0.00,VWS V14.01,2013-09-18 17:37:00,
2013-09-18 13:39:00,92.1,63.6,29.76,NNE,22,5.8,5.8,39,0.00,,---,0.00,VWS V14.01,2013-09-18 17:39:00,
2013-09-18 13:40:00,92.5,63.9,29.76,North,0,1.6,5.8,39,0.00,,---,0.00,VWS V14.01,2013-09-18 17:40:00,
2013-09-18 13:41:00,93.0,63.7,29.76,West,270,6.3,6.3,38,0.00,,---,0.00,VWS V14.01,2013-09-18 17:41:00,
2013-09-18 13:42:00,93.0,63.7,29.76,NE,45,4.3,6.3,38,0.00,,---,0.00,VWS V14.01,2013-09-18 17:42:00,
2013-09-18 13:43:00,93.4,63.2,29.76,NW,315,3.8,4.9,37,0.00,,---,0.00,VWS V14.01,2013-09-18 17:43:00,
2013-09-18 13:44:00,93.6,63.4,29.76,East,90,3.8,3.8,37,0.00,,---,0.00,VWS V14.01,2013-09-18 17:44:00,
2013-09-18 13:45:00,93.6,63.4,29.76,NNE,22,6.5,6.5,37,0.00,,---,0.00,VWS V14.01,2013-09-18 17:45:00,
2013-09-18 13:46:00,93.4,63.2,29.76,ENE,68,3.6,7.4,37,0.00,,---,0.00,VWS V14.01,2013-09-18 17:46:00,
2013-09-18 13:47:00,93.7,63.6,29.76,NNE,22,4.7,5.4,37,0.00,,---,0.00,VWS V14.01,2013-09-18 17:47:00,
2013-09-18 13:48:00,94.5,64.2,29.76,NE,45,4.9,4.9,37,0.00,,---,0.00,VWS V14.01,2013-09-18 17:48:00,
2013-09-18 13:49:00,94.5,64.2,29.76,NE,45,4.0,6.9,37,0.00,,---,0.00,VWS V14.01,2013-09-18 17:49:00,
2013-09-18 13:50:00,94.6,64.3,29.76,NE,45,5.8,7.4,37,0.00,,---,0.00,VWS V14.01,2013-09-18 17:50:00,
2013-09-18 13:51:00,94.8,64.5,29.76,NE,45,4.0,6.9,37,0.00,,---,0.00,VWS V14.01,2013-09-18 17:51:00,
2013-09-18 13:52:00,94.5,63.4,29.76,East,90,5.4,7.6,36,0.00,,---,0.00,VWS V14.01,2013-09-18 17:52:00,
2013-09-18 13:53:00,94.8,64.5,29.76,East,90,3.6,4.7,37,0.00,,---,0.00,VWS V14.01,2013-09-18 17:53:00,
2013-09-18 13:54:00,94.8,64.5,29.76,NE,45,2.7,6.3,37,0.00,,---,0.00,VWS V14.01,2013-09-18 17:54:00,
2013-09-18 13:55:00,94.5,63.4,29.76,NNE,22,2.5,3.6,36,0.00,,---,0.00,VWS V14.01,2013-09-18 17:55:00,
2013-09-18 13:56:00,94.5,63.4,29.76,East,90,3.6,8.1,36,0.00,,---,0.00,VWS V14.01,2013-09-18 17:56:00,
2013-09-18 13:57:00,94.5,63.4,29.76,NNE,22,4.7,4.7,36,0.00,,---,0.00,VWS V14.01,2013-09-18 17:57:00,
2013-09-18 13:58:00,94.6,62.8,29.76,NNW,338,9.8,9.8,35,0.00,,---,0.00,VWS V14.01,2013-09-18 17:58:00,
2013-09-18 13:59:00,94.6,62.8,29.76,East,90,6.7,9.8,35,0.00,,---,0.00,VWS V14.01,2013-09-18 17:59:00,
2013-09-18 14:00:00,95.0,63.1,29.76,NE,45,7.4,7.4,35,0.00,,---,0.00,VWS V14.01,2013-09-18 18:00:00,
2013-09-18 14:01:00,95.4,62.6,29.76,East,90,3.1,7.4,34,0.00,,---,0.00,VWS V14.01,2013-09-18 18:01:00,
2013-09-18 14:02:00,95.2,63.2,29.76,East,90,3.6,6.0,35,0.00,,---,0.00,VWS V14.01,2013-09-18 18:02:00,
2013-09-18 14:03:00,95.9,63.9,29.76,North,0,4.9,5.4,35,0.00,,---,0.00,VWS V14.01,2013-09-18 18:03:00,
2013-09-18 14:04:00,95.9,63.9,29.76,East,90,2.5,8.1,35,0.00,,---,0.00,VWS V14.01,2013-09-18 18:04:00,
2013-09-18 14:05:00,96.4,65.2,29.76,NE,45,3.1,3.1,36,0.00,,---,0.00,VWS V14.01,2013-09-18 18:05:00,
2013-09-18 14:06:00,95.9,63.9,29.76,ESE,112,5.4,8.1,35,0.00,,---,0.00,VWS V14.01,2013-09-18 18:06:00,
2013-09-18 14:07:00,95.5,61.9,29.76,SSW,202,5.8,5.8,33,0.00,,---,0.00,VWS V14.01,2013-09-18 18:07:00,
2013-09-18 14:08:00,95.4,63.4,29.76,North,0,6.3,6.7,35,0.00,,---,0.00,VWS V14.01,2013-09-18 18:08:00,
2013-09-18 14:09:00,95.0,62.3,29.76,NE,45,8.7,11.2,34,0.00,,---,0.00,VWS V14.01,2013-09-18 18:09:00,
2013-09-18 14:10:00,94.8,62.9,29.76,ENE,68,2.5,8.7,35,0.00,,---,0.00,VWS V14.01,2013-09-18 18:10:00,
2013-09-18 14:11:00,95.4,63.4,29.76,SW,225,1.6,3.1,35,0.00,,---,0.00,VWS V14.01,2013-09-18 18:11:00,
2013-09-18 14:12:00,95.5,63.5,29.76,ENE,68,4.3,10.7,35,0.00,,---,0.00,VWS V14.01,2013-09-18 18:12:00,
2013-09-18 14:13:00,95.4,62.6,29.76,ENE,68,4.3,6.5,34,0.00,,---,0.00,VWS V14.01,2013-09-18 18:13:00,
2013-09-18 14:14:00,94.8,62.1,29.76,ENE,68,4.7,8.7,34,0.00,,---,0.00,VWS V14.01,2013-09-18 18:14:00,
2013-09-18 14:15:00,94.8,62.9,29.76,ENE,68,5.4,5.4,35,0.00,,---,0.00,VWS V14.01,2013-09-18 18:15:00,
2013-09-18 14:16:00,94.1,61.5,29.76,NE,45,11.0,11.0,34,0.00,,---,0.00,VWS V14.01,2013-09-18 18:16:00,
2013-09-18 14:17:00,94.1,61.5,29.76,East,90,4.9,11.0,34,0.00,,---,0.00,VWS V14.01,2013-09-18 18:17:00,
2013-09-18 14:18:00,92.8,61.2,29.76,NNE,22,2.0,8.1,35,0.00,,---,0.00,VWS V14.01,2013-09-18 18:18:00,
2013-09-18 14:19:00,92.3,61.5,29.76,East,90,8.7,8.7,36,0.00,,---,0.00,VWS V14.01,2013-09-18 18:19:00,
2013-09-18 14:20:00,91.9,61.2,29.76,NNE,22,4.0,8.7,36,0.00,,---,0.00,VWS V14.01,2013-09-18 18:20:00,
2013-09-18 14:21:00,91.6,60.9,29.76,NNW,338,1.6,4.0,36,0.00,,---,0.00,VWS V14.01,2013-09-18 18:21:00,
2013-09-18 14:22:00,91.4,61.5,29.76,NE,45,5.6,5.6,37,0.00,,---,0.00,VWS V14.01,2013-09-18 18:22:00,
2013-09-18 14:23:00,91.2,62.1,29.76,SW,225,7.2,7.2,38,0.00,,---,0.00,VWS V14.01,2013-09-18 18:23:00,
2013-09-18 14:24:00,90.9,61.8,29.76,ENE,68,3.6,7.2,38,0.00,,---,0.00,VWS V14.01,2013-09-18 18:24:00,
2013-09-18 14:25:00,90.7,61.6,29.76,NE,45,7.4,7.4,38,0.00,,---,0.00,VWS V14.01,2013-09-18 18:25:00,
2013-09-18 14:26:00,90.3,62.0,29.76,ESE,112,3.4,7.4,39,0.00,,---,0.00,VWS V14.01,2013-09-18 18:26:00,
2013-09-18 14:27:00,90.3,62.0,29.76,East,90,5.8,5.8,39,0.00,,---,0.00,VWS V14.01,2013-09-18 18:27:00,
2013-09-18 14:28:00,90.0,61.0,29.76,ENE,68,4.7,4.7,38,0.00,,---,0.00,VWS V14.01,2013-09-18 18:28:00,
2013-09-18 14:29:00,90.0,61.0,29.76,NNE,22,3.4,4.7,38,0.00,,---,0.00,VWS V14.01,2013-09-18 18:29:00,
2013-09-18 14:30:00,90.0,61.7,29.76,NE,45,7.4,7.4,39,0.00,,---,0.00,VWS V14.01,2013-09-18 18:30:00,
2013-09-18 14:31:00,89.6,61.4,29.76,North,0,2.9,7.4,39,0.00,,---,0.00,VWS V14.01,2013-09-18 18:31:00,
2013-09-18 14:32:00,89.4,61.9,29.76,NE,45,5.4,5.4,40,0.00,,---,0.00,VWS V14.01,2013-09-18 18:32:00,
2013-09-18 14:33:00,89.4,61.9,29.76,NE,45,2.2,5.4,40,0.00,,---,0.00,VWS V14.01,2013-09-18 18:33:00,
2013-09-18 14:34:00,89.2,62.5,29.76,NNE,22,5.6,5.6,41,0.00,,---,0.00,VWS V14.01,2013-09-18 18:34:00,
2013-09-18 14:35:00,88.9,61.5,29.76,NNW,338,9.6,9.6,40,0.00,,---,0.00,VWS V14.01,2013-09-18 18:35:00,
2013-09-18 14:36:00,88.7,61.3,29.76,NE,45,4.0,9.6,40,0.00,,---,0.00,VWS V14.01,2013-09-18 18:36:00,
2013-09-18 14:37:00,88.7,61.3,29.76,NE,45,8.5,8.5,40,0.00,,---,0.00,VWS V14.01,2013-09-18 18:37:00,
2013-09-18 14:38:00,88.7,61.3,29.76,ENE,68,3.6,8.5,40,0.00,,---,0.00,VWS V14.01,2013-09-18 18:38:00,
2013-09-18 14:39:00,88.3,61.7,29.76,ESE,112,3.4,3.8,41,0.00,,---,0.00,VWS V14.01,2013-09-18 18:39:00,
2013-09-18 14:40:00,88.2,61.5,29.76,East,90,5.4,5.4,41,0.00,,---,0.00,VWS V14.01,2013-09-18 18:40:00,
2013-09-18 14:41:00,88.0,62.0,29.76,NE,45,2.9,5.4,42,0.00,,---,0.00,VWS V14.01,2013-09-18 18:41:00,
2013-09-18 14:42:00,88.0,62.0,29.76,NE,45,3.1,10.1,42,0.00,,---,0.00,VWS V14.01,2013-09-18 18:42:00,
2013-09-18 14:43:00,88.9,62.8,29.76,WNW,292,3.8,3.8,42,0.00,,---,0.00,VWS V14.01,2013-09-18 18:43:00,
2013-09-18 14:44:00,89.6,63.5,29.76,North,0,2.7,4.0,42,0.00,,---,0.00,VWS V14.01,2013-09-18 18:44:00,
2013-09-18 14:45:00,89.2,62.5,29.76,East,90,2.7,13.4,41,0.00,,---,0.00,VWS V14.01,2013-09-18 18:45:00,
2013-09-18 14:46:00,89.2,62.5,29.76,North,0,3.4,3.4,41,0.00,,---,0.00,VWS V14.01,2013-09-18 18:46:00,
2013-09-18 14:47:00,89.6,62.1,29.76,NE,45,3.6,3.6,40,0.00,,---,0.00,VWS V14.01,2013-09-18 18:47:00,
2013-09-18 14:48:00,90.3,62.0,29.76,East,90,2.7,3.8,39,0.00,,---,0.00,VWS V14.01,2013-09-18 18:48:00,
2013-09-18 14:49:00,91.0,62.7,29.76,North,0,6.3,6.3,39,0.00,,---,0.00,VWS V14.01,2013-09-18 18:49:00,
2013-09-18 14:50:00,91.6,63.1,29.76,NNW,338,3.6,6.3,39,0.00,,---,0.00,VWS V14.01,2013-09-18 18:50:00,
2013-09-18 14:51:00,91.6,62.4,29.76,North,0,5.6,5.6,38,0.00,,---,0.00,VWS V14.01,2013-09-18 18:51:00,
2013-09-18 14:52:00,91.8,62.6,29.76,ENE,68,10.7,10.7,38,0.00,,---,0.00,VWS V14.01,2013-09-18 18:52:00,
2013-09-18 14:53:00,91.9,62.7,29.76,NE,45,3.1,10.7,38,0.00,,---,0.00,VWS V14.01,2013-09-18 18:53:00,
2013-09-18 14:54:00,92.5,63.9,29.76,East,90,11.0,11.0,39,0.00,,---,0.00,VWS V14.01,2013-09-18 18:54:00,
2013-09-18 14:55:00,92.3,62.3,29.76,North,0,3.6,11.0,37,0.00,,---,0.00,VWS V14.01,2013-09-18 18:55:00,
2013-09-18 14:56:00,92.8,63.5,29.76,ESE,112,2.5,3.8,38,0.00,,---,0.00,VWS V14.01,2013-09-18 18:56:00,
2013-09-18 14:57:00,93.0,64.4,29.76,North,0,7.6,7.6,39,0.00,,---,0.00,VWS V14.01,2013-09-18 18:57:00,
2013-09-18 14:58:00,93.0,63.7,29.76,SE,135,3.4,8.1,38,0.00,,---,0.00,VWS V14.01,2013-09-18 18:58:00,
2013-09-18 14:59:00,93.0,63.7,29.76,ESE,112,7.8,10.1,38,0.00,,---,0.00,VWS V14.01,2013-09-18 18:59:00,
2013-09-18 15:00:00,93.0,63.7,29.76,NE,45,5.4,7.8,38,0.00,,---,0.00,VWS V14.01,2013-09-18 19:00:00,
2013-09-18 15:01:00,93.2,63.8,29.76,North,0,6.0,6.0,38,0.00,,---,0.00,VWS V14.01,2013-09-18 19:01:00,
2013-09-18 15:02:00,92.8,64.3,29.76,NNE,22,8.7,9.6,39,0.00,,---,0.00,VWS V14.01,2013-09-18 19:02:00,
2013-09-18 15:03:00,92.5,63.9,29.76,NNE,22,7.2,8.7,39,0.00,,---,0.00,VWS V14.01,2013-09-18 19:03:00,
2013-09-18 15:04:00,92.5,63.9,29.76,NW,315,10.7,10.7,39,0.00,,---,0.00,VWS V14.01,2013-09-18 19:04:00,
2013-09-18 15:05:00,92.5,63.9,29.76,NNW,338,3.8,10.7,39,0.00,,---,0.00,VWS V14.01,2013-09-18 19:05:00,
2013-09-18 15:06:00,92.5,63.9,29.76,NNE,22,6.7,10.3,39,0.00,,---,0.00,VWS V14.01,2013-09-18 19:06:00,
2013-09-18 15:07:00,92.5,63.2,29.76,North,0,4.3,7.6,38,0.00,,---,0.00,VWS V14.01,2013-09-18 19:07:00,
2013-09-18 15:08:00,92.3,63.8,29.76,ENE,68,5.6,5.6,39,0.00,,---,0.00,VWS V14.01,2013-09-18 19:08:00,
2013-09-18 15:09:00,92.3,63.8,29.76,ENE,68,5.4,7.8,39,0.00,,---,0.00,VWS V14.01,2013-09-18 19:09:00,
2013-09-18 15:10:00,92.3,63.8,29.76,East,90,4.9,8.7,39,0.00,,---,0.00,VWS V14.01,2013-09-18 19:10:00,
2013-09-18 15:11:00,92.3,63.8,29.76,North,0,8.1,8.7,39,0.00,,---,0.00,VWS V14.01,2013-09-18 19:11:00,
2013-09-18 15:12:00,92.3,63.8,29.76,SW,225,4.3,5.4,39,0.00,,---,0.00,VWS V14.01,2013-09-18 19:12:00,
2013-09-18 15:13:00,91.9,62.7,29.76,North,0,4.0,7.6,38,0.00,,---,0.00,VWS V14.01,2013-09-18 19:13:00,
2013-09-18 15:14:00,91.9,62.7,29.76,NW,315,5.6,8.7,38,0.00,,---,0.00,VWS V14.01,2013-09-18 19:14:00,
2013-09-18 15:15:00,92.3,63.8,29.76,NW,315,3.4,5.6,39,0.00,,---,0.00,VWS V14.01,2013-09-18 19:15:00,
2013-09-18 15:16:00,92.5,63.9,29.76,North,0,5.4,5.8,39,0.00,,---,0.00,VWS V14.01,2013-09-18 19:16:00,
2013-09-18 15:17:00,92.8,64.3,29.76,NNE,22,5.8,7.4,39,0.00,,---,0.00,VWS V14.01,2013-09-18 19:17:00,
2013-09-18 15:18:00,92.7,64.1,29.76,NNE,22,8.5,8.5,39,0.00,,---,0.00,VWS V14.01,2013-09-18 19:18:00,
2013-09-18 15:19:00,93.0,64.4,29.76,NNW,338,5.8,6.9,39,0.00,,---,0.00,VWS V14.01,2013-09-18 19:19:00,
2013-09-18 15:20:00,93.0,64.4,29.76,North,0,7.2,9.6,39,0.00,,---,0.00,VWS V14.01,2013-09-18 19:20:00,
2013-09-18 15:21:00,93.0,64.4,29.76,NE,45,5.4,7.2,39,0.00,,---,0.00,VWS V14.01,2013-09-18 19:21:00,
2013-09-18 15:22:00,93.0,64.4,29.76,NW,315,4.3,8.7,39,0.00,,---,0.00,VWS V14.01,2013-09-18 19:22:00,
2013-09-18 15:23:00,93.0,63.7,29.76,NNW,338,5.8,5.8,38,0.00,,---,0.00,VWS V14.01,2013-09-18 19:23:00,
2013-09-18 15:24:00,93.0,63.7,29.76,North,0,4.3,7.6,38,0.00,,---,0.00,VWS V14.01,2013-09-18 19:24:00,
2013-09-18 15:25:00,92.8,63.5,29.74,East,90,11.0,11.0,38,0.00,,---,0.00,VWS V14.01,2013-09-18 19:25:00,
2013-09-18 15:26:00,93.4,64.0,29.74,NE,45,5.8,11.0,38,0.00,,---,0.00,VWS V14.01,2013-09-18 19:26:00,
2013-09-18 15:27:00,92.5,63.2,29.74,NE,45,7.2,9.8,38,0.00,,---,0.00,VWS V14.01,2013-09-18 19:27:00,
2013-09-18 15:28:00,92.5,63.2,29.74,NE,45,2.9,7.2,38,0.00,,---,0.00,VWS V14.01,2013-09-18 19:28:00,
2013-09-18 15:29:00,92.5,63.2,29.74,North,0,4.9,12.5,38,0.00,,---,0.00,VWS V14.01,2013-09-18 19:29:00,
2013-09-18 15:30:00,91.8,62.6,29.74,NNW,338,10.3,12.3,38,0.00,,---,0.00,VWS V14.01,2013-09-18 19:30:00,
2013-09-18 15:31:00,91.8,62.6,29.74,NW,315,5.6,10.3,38,0.00,,---,0.00,VWS V14.01,2013-09-18 19:31:00,
2013-09-18 15:32:00,91.2,62.8,29.74,NNW,338,4.7,5.8,39,0.00,,---,0.00,VWS V14.01,2013-09-18 19:32:00,
2013-09-18 15:33:00,91.2,62.8,29.74,NNW,338,4.7,5.8,39,0.00,,---,0.00,VWS V14.01,2013-09-18 19:33:00,
2013-09-18 15:34:00,91.6,63.1,29.74,North,0,3.1,7.8,39,0.00,,---,0.00,VWS V14.01,2013-09-18 19:34:00,
2013-09-18 15:35:00,91.8,63.3,29.74,East,90,4.3,5.4,39,0.00,,---,0.00,VWS V14.01,2013-09-18 19:35:00,
2013-09-18 15:36:00,91.9,63.5,29.74,NE,45,5.6,5.6,39,0.00,,---,0.00,VWS V14.01,2013-09-18 19:36:00,
2013-09-18 15:37:00,92.1,63.6,29.74,ENE,68,9.6,9.6,39,0.00,,---,0.00,VWS V14.01,2013-09-18 19:37:00,
2013-09-18 15:38:00,92.1,63.6,29.74,ENE,68,9.6,9.6,39,0.00,,---,0.00,VWS V14.01,2013-09-18 19:38:00,
2013-09-18 15:39:00,92.1,63.6,29.74,NW,315,4.7,4.7,39,0.00,,---,0.00,VWS V14.01,2013-09-18 19:39:00,
2013-09-18 15:40:00,92.1,63.6,29.74,WSW,248,6.3,6.3,39,0.00,,---,0.00,VWS V14.01,2013-09-18 19:40:00,
2013-09-18 15:41:00,90.7,63.1,29.74,East,90,10.7,10.7,40,0.00,,---,0.00,VWS V14.01,2013-09-18 19:41:00,
2013-09-18 15:42:00,90.5,62.9,29.74,WNW,292,10.7,10.7,40,0.00,,---,0.00,VWS V14.01,2013-09-18 19:42:00,
2013-09-18 15:43:00,90.5,62.9,29.74,WSW,248,8.1,10.7,40,0.00,,---,0.00,VWS V14.01,2013-09-18 19:43:00,
2013-09-18 15:44:00,90.7,63.1,29.74,WNW,292,3.6,12.3,40,0.00,,---,0.00,VWS V14.01,2013-09-18 19:44:00,
2013-09-18 15:45:00,90.9,63.2,29.74,NE,45,2.9,10.1,40,0.00,,---,0.00,VWS V14.01,2013-09-18 19:45:00,
2013-09-18 15:46:00,91.0,63.4,29.74,ENE,68,4.9,6.0,40,0.00,,---,0.00,VWS V14.01,2013-09-18 19:46:00,
2013-09-18 15:47:00,91.2,63.5,29.74,NNW,338,2.7,4.9,40,0.00,,---,0.00,VWS V14.01,2013-09-18 19:47:00,
2013-09-18 15:48:00,90.7,63.1,29.74,East,90,2.5,5.4,40,0.00,,---,0.00,VWS V14.01,2013-09-18 19:48:00,
2013-09-18 15:49:00,90.9,63.2,29.74,NE,45,2.7,4.9,40,0.00,,---,0.00,VWS V14.01,2013-09-18 19:49:00,
2013-09-18 15:50:00,90.9,63.2,29.74,WSW,248,2.0,3.4,40,0.00,,---,0.00,VWS V14.01,2013-09-18 19:50:00,
2013-09-18 15:51:00,91.0,63.4,29.74,North,0,8.1,12.1,40,0.00,,---,0.00,VWS V14.01,2013-09-18 19:51:00,
2013-09-18 15:52:00,91.4,63.7,29.74,NNE,22,4.0,8.7,40,0.00,,---,0.00,VWS V14.01,2013-09-18 19:52:00,
2013-09-18 15:53:00,90.9,62.5,29.74,SSE,158,2.9,4.0,39,0.00,,---,0.00,VWS V14.01,2013-09-18 19:53:00,
2013-09-18 15:54:00,91.0,63.4,29.74,North,0,2.7,6.5,40,0.00,,---,0.00,VWS V14.01,2013-09-18 19:54:00,
2013-09-18 15:55:00,91.0,63.4,29.74,NE,45,4.0,9.6,40,0.00,,---,0.00,VWS V14.01,2013-09-18 19:55:00,
2013-09-18 15:56:00,90.7,63.1,29.74,East,90,4.0,4.0,40,0.00,,---,0.00,VWS V14.01,2013-09-18 19:56:00,
2013-09-18 15:57:00,90.7,63.1,29.74,NNW,338,3.4,4.0,40,0.00,,---,0.00,VWS V14.01,2013-09-18 19:57:00,
2013-09-18 15:58:00,90.7,63.1,29.74,NE,45,2.2,4.0,40,0.00,,---,0.00,VWS V14.01,2013-09-18 19:58:00,
2013-09-18 15:59:00,90.3,62.7,29.74,ESE,112,2.7,3.8,40,0.00,,---,0.00,VWS V14.01,2013-09-18 19:59:00,
2013-09-18 16:00:00,90.3,62.7,29.74,SE,135,3.6,3.6,40,0.00,,---,0.00,VWS V14.01,2013-09-18 20:00:00,
2013-09-18 16:01:00,90.3,62.7,29.74,North,0,3.6,3.6,40,0.00,,---,0.00,VWS V14.01,2013-09-18 20:01:00,
2013-09-18 16:02:00,89.1,62.3,29.74,North,0,2.0,8.1,41,0.00,,---,0.00,VWS V14.01,2013-09-18 20:02:00,
2013-09-18 16:03:00,88.7,62.0,29.74,NW,315,2.5,4.0,41,0.00,,---,0.00,VWS V14.01,2013-09-18 20:03:00,
2013-09-18 16:04:00,88.3,61.7,29.74,NNW,338,7.8,7.8,41,0.00,,---,0.00,VWS V14.01,2013-09-18 20:04:00,
2013-09-18 16:05:00,88.2,61.5,29.74,NNW,338,6.7,8.5,41,0.00,,---,0.00,VWS V14.01,2013-09-18 20:05:00,
2013-09-18 16:06:00,87.8,61.2,29.74,North,0,5.4,6.7,41,0.00,,---,0.00,VWS V14.01,2013-09-18 20:06:00,
2013-09-18 16:07:00,87.8,61.2,29.74,North,0,8.7,8.7,41,0.00,,---,0.00,VWS V14.01,2013-09-18 20:07:00,
2013-09-18 16:08:00,87.4,61.5,29.74,NE,45,4.3,8.7,42,0.00,,---,0.00,VWS V14.01,2013-09-18 20:08:00,
2013-09-18 16:09:00,87.3,61.4,29.74,NNE,22,6.3,9.8,42,0.00,,---,0.00,VWS V14.01,2013-09-18 20:09:00,
2013-09-18 16:10:00,87.1,61.2,29.74,NE,45,8.1,8.1,42,0.00,,---,0.00,VWS V14.01,2013-09-18 20:10:00,
2013-09-18 16:11:00,87.1,61.2,29.74,ENE,68,3.1,8.1,42,0.00,,---,0.00,VWS V14.01,2013-09-18 20:11:00,
2013-09-18 16:12:00,86.7,61.6,29.74,NE,45,4.7,12.1,43,0.00,,---,0.00,VWS V14.01,2013-09-18 20:12:00,
2013-09-18 16:13:00,86.7,61.6,29.74,WNW,292,2.9,5.4,43,0.00,,---,0.00,VWS V14.01,2013-09-18 20:13:00,
2013-09-18 16:14:00,86.5,60.7,29.74,NNE,22,6.3,6.3,42,0.00,,---,0.00,VWS V14.01,2013-09-18 20:14:00,
2013-09-18 16:15:00,86.4,60.6,29.74,ENE,68,6.3,6.3,42,0.00,,---,0.00,VWS V14.01,2013-09-18 20:15:00,
2013-09-18 16:16:00,86.2,60.4,29.74,North,0,4.0,6.3,42,0.00,,---,0.00,VWS V14.01,2013-09-18 20:16:00,
2013-09-18 16:17:00,86.2,60.4,29.74,NNW,338,2.9,4.9,42,0.00,,---,0.00,VWS V14.01,2013-09-18 20:17:00,
2013-09-18 16:18:00,86.0,59.6,29.74,NW,315,2.9,2.9,41,0.00,,---,0.00,VWS V14.01,2013-09-18 20:18:00,
2013-09-18 16:19:00,86.4,59.9,29.74,NE,45,6.3,6.3,41,0.00,,---,0.00,VWS V14.01,2013-09-18 20:19:00,
2013-09-18 16:20:00,86.4,59.9,29.74,NE,45,3.6,6.3,41,0.00,,---,0.00,VWS V14.01,2013-09-18 20:20:00,
2013-09-18 16:21:00,87.1,60.5,29.74,NE,45,8.5,8.5,41,0.00,,---,0.00,VWS V14.01,2013-09-18 20:21:00,
2013-09-18 16:22:00,87.1,60.5,29.74,East,90,6.5,8.5,41,0.00,,---,0.00,VWS V14.01,2013-09-18 20:22:00,
2013-09-18 16:23:00,87.1,60.5,29.74,North,0,1.3,2.2,41,0.00,,---,0.00,VWS V14.01,2013-09-18 20:23:00,
2013-09-18 16:24:00,87.1,60.5,29.74,NE,45,6.3,6.3,41,0.00,,---,0.00,VWS V14.01,2013-09-18 20:24:00,
2013-09-18 16:25:00,86.9,60.4,29.74,NNE,22,3.1,6.3,41,0.00,,---,0.00,VWS V14.01,2013-09-18 20:25:00,
2013-09-18 16:26:00,86.9,60.4,29.74,NNE,22,3.1,3.1,41,0.00,,---,0.00,VWS V14.01,2013-09-18 20:26:00,
2013-09-18 16:27:00,86.4,59.9,29.74,ENE,68,2.2,3.4,41,0.00,,---,0.00,VWS V14.01,2013-09-18 20:27:00,
2013-09-18 16:28:00,86.4,59.9,29.74,ESE,112,2.0,3.1,41,0.00,,---,0.00,VWS V14.01,2013-09-18 20:28:00,
2013-09-18 16:29:00,86.4,59.9,29.74,ESE,112,5.4,5.4,41,0.00,,---,0.00,VWS V14.01,2013-09-18 20:29:00,
2013-09-18 16:30:00,86.0,58.9,29.74,NNE,22,4.0,5.6,40,0.00,,---,0.00,VWS V14.01,2013-09-18 20:30:00,
2013-09-18 16:31:00,86.0,59.6,29.74,ENE,68,5.6,5.6,41,0.00,,---,0.00,VWS V14.01,2013-09-18 20:31:00,
2013-09-18 16:32:00,85.8,59.4,29.74,SE,135,2.5,5.6,41,0.00,,---,0.00,VWS V14.01,2013-09-18 20:32:00,
2013-09-18 16:33:00,85.8,59.4,29.74,NW,315,2.0,3.4,41,0.00,,---,0.00,VWS V14.01,2013-09-18 20:33:00,
2013-09-18 16:34:00,85.6,59.9,29.74,WSW,248,2.0,4.3,42,0.00,,---,0.00,VWS V14.01,2013-09-18 20:34:00,
2013-09-18 16:35:00,85.5,59.8,29.74,North,0,5.6,5.6,42,0.00,,---,0.00,VWS V14.01,2013-09-18 20:35:00,
2013-09-18 16:36:00,85.5,59.8,29.74,NE,45,2.7,5.8,42,0.00,,---,0.00,VWS V14.01,2013-09-18 20:36:00,
2013-09-18 16:37:00,85.5,59.8,29.74,NE,45,8.7,8.7,42,0.00,,---,0.00,VWS V14.01,2013-09-18 20:37:00,
2013-09-18 16:38:00,85.6,59.9,29.74,NE,45,3.4,8.7,42,0.00,,---,0.00,VWS V14.01,2013-09-18 20:38:00,
2013-09-18 16:39:00,85.8,60.1,29.74,NNE,22,6.0,8.1,42,0.00,,---,0.00,VWS V14.01,2013-09-18 20:39:00,
2013-09-18 16:40:00,85.8,60.1,29.74,South,180,5.6,6.0,42,0.00,,---,0.00,VWS V14.01,2013-09-18 20:40:00,
2013-09-18 16:41:00,86.0,59.6,29.74,ESE,112,3.6,5.6,41,0.00,,---,0.00,VWS V14.01,2013-09-18 20:41:00,
2013-09-18 16:42:00,86.0,59.6,29.74,East,90,2.5,6.3,41,0.00,,---,0.00,VWS V14.01,2013-09-18 20:42:00,
2013-09-18 16:43:00,86.0,59.6,29.74,NE,45,1.6,2.5,41,0.00,,---,0.00,VWS V14.01,2013-09-18 20:43:00,
2013-09-18 16:44:00,85.8,59.4,29.74,North,0,5.4,5.8,41,0.00,,---,0.00,VWS V14.01,2013-09-18 20:44:00,
2013-09-18 16:45:00,85.6,59.3,29.74,NW,315,4.9,7.8,41,0.00,,---,0.00,VWS V14.01,2013-09-18 20:45:00,
2013-09-18 16:46:00,85.6,59.3,29.74,ENE,68,3.1,5.4,41,0.00,,---,0.00,VWS V14.01,2013-09-18 20:46:00,
2013-09-18 16:47:00,85.6,59.3,29.74,NW,315,9.8,9.8,41,0.00,,---,0.00,VWS V14.01,2013-09-18 20:47:00,
2013-09-18 16:48:00,85.8,60.1,29.74,ENE,68,3.4,4.7,42,0.00,,---,0.00,VWS V14.01,2013-09-18 20:48:00,
2013-09-18 16:49:00,85.8,60.1,29.74,ENE,68,3.1,4.7,42,0.00,,---,0.00,VWS V14.01,2013-09-18 20:49:00,
2013-09-18 16:50:00,86.0,60.3,29.74,NNE,22,6.3,6.3,42,0.00,,---,0.00,VWS V14.01,2013-09-18 20:50:00,
2013-09-18 16:51:00,85.8,59.4,29.74,East,90,8.5,8.5,41,0.00,,---,0.00,VWS V14.01,2013-09-18 20:51:00,
2013-09-18 16:52:00,85.8,60.1,29.74,NW,315,6.5,8.5,42,0.00,,---,0.00,VWS V14.01,2013-09-18 20:52:00,
2013-09-18 16:53:00,85.8,60.1,29.74,North,0,3.1,5.8,42,0.00,,---,0.00,VWS V14.01,2013-09-18 20:53:00,
2013-09-18 16:54:00,85.8,59.4,29.74,North,0,2.9,9.2,41,0.00,,---,0.00,VWS V14.01,2013-09-18 20:54:00,
2013-09-18 16:55:00,85.8,59.4,29.74,ENE,68,5.4,6.3,41,0.00,,---,0.00,VWS V14.01,2013-09-18 20:55:00,
2013-09-18 16:56:00,85.6,59.3,29.74,NW,315,1.6,5.4,41,0.00,,---,0.00,VWS V14.01,2013-09-18 20:56:00,
2013-09-18 16:57:00,85.6,59.9,29.74,NNE,22,3.6,3.6,42,0.00,,---,0.00,VWS V14.01,2013-09-18 20:57:00,
2013-09-18 16:58:00,85.6,59.9,29.74,NNE,22,1.6,3.6,42,0.00,,---,0.00,VWS V14.01,2013-09-18 20:58:00,
2013-09-18 16:59:00,85.8,60.1,29.74,NE,45,1.1,3.6,42,0.00,,---,0.00,VWS V14.01,2013-09-18 20:59:00,
2013-09-18 17:00:00,85.8,60.1,29.74,North,0,6.9,7.2,42,0.00,,---,0.00,VWS V14.01,2013-09-18 21:00:00,
2013-09-18 17:01:00,85.8,60.1,29.74,NNW,338,3.6,8.7,42,0.00,,---,0.00,VWS V14.01,2013-09-18 21:01:00,
2013-09-18 17:02:00,85.8,60.1,29.74,East,90,8.1,8.1,42,0.00,,---,0.00,VWS V14.01,2013-09-18 21:02:00,
2013-09-18 17:03:00,85.8,60.1,29.74,East,90,6.0,8.7,42,0.00,,---,0.00,VWS V14.01,2013-09-18 21:03:00,
2013-09-18 17:04:00,86.0,60.3,29.74,East,90,2.5,8.7,42,0.00,,---,0.00,VWS V14.01,2013-09-18 21:04:00,
2013-09-18 17:05:00,86.0,60.3,29.74,NE,45,2.7,7.4,42,0.00,,---,0.00,VWS V14.01,2013-09-18 21:05:00,
2013-09-18 17:06:00,85.8,60.1,29.74,NW,315,8.1,9.8,42,0.00,,---,0.00,VWS V14.01,2013-09-18 21:06:00,
2013-09-18 17:07:00,85.6,59.9,29.74,NNE,22,4.0,8.1,42,0.00,,---,0.00,VWS V14.01,2013-09-18 21:07:00,
2013-09-18 17:08:00,85.6,59.9,29.74,ENE,68,4.0,5.8,42,0.00,,---,0.00,VWS V14.01,2013-09-18 21:08:00,
2013-09-18 17:09:00,85.5,59.8,29.74,NNE,22,7.2,7.2,42,0.00,,---,0.00,VWS V14.01,2013-09-18 21:09:00,
2013-09-18 17:11:00,85.5,59.8,29.74,ENE,68,3.4,8.5,42,0.00,,---,0.00,VWS V14.01,2013-09-18 21:11:00,
2013-09-18 17:12:00,85.5,59.8,29.74,ESE,112,2.0,3.4,42,0.00,,---,0.00,VWS V14.01,2013-09-18 21:12:00,
2013-09-18 17:13:00,85.3,60.3,29.74,ENE,68,2.9,2.9,43,0.00,,---,0.00,VWS V14.01,2013-09-18 21:13:00,
2013-09-18 17:14:00,85.3,60.3,29.74,ENE,68,7.4,7.4,43,0.00,,---,0.00,VWS V14.01,2013-09-18 21:14:00,
2013-09-18 17:15:00,85.1,60.1,29.74,NNE,22,10.1,10.1,43,0.00,,---,0.00,VWS V14.01,2013-09-18 21:15:00,
2013-09-18 17:16:00,84.9,60.0,29.74,North,0,6.3,10.1,43,0.00,,---,0.00,VWS V14.01,2013-09-18 21:16:00,
2013-09-18 17:17:00,84.9,60.0,29.74,East,90,4.3,6.3,43,0.00,,---,0.00,VWS V14.01,2013-09-18 21:17:00,
2013-09-18 17:18:00,84.7,59.8,29.74,NE,45,4.7,4.7,43,0.00,,---,0.00,VWS V14.01,2013-09-18 21:18:00,
2013-09-18 17:19:00,84.7,59.8,29.74,ENE,68,5.8,8.1,43,0.00,,---,0.00,VWS V14.01,2013-09-18 21:19:00,
2013-09-18 17:20:00,84.7,60.4,29.74,ENE,68,2.7,8.5,44,0.00,,---,0.00,VWS V14.01,2013-09-18 21:20:00,
2013-09-18 17:21:00,84.6,60.3,29.74,NE,45,6.3,6.5,44,0.00,,---,0.00,VWS V14.01,2013-09-18 21:21:00,
2013-09-18 17:22:00,84.6,60.9,29.74,North,0,12.1,12.1,45,0.00,,---,0.00,VWS V14.01,2013-09-18 21:22:00,
2013-09-18 17:23:00,84.6,60.9,29.74,NNW,338,7.2,12.1,45,0.00,,---,0.00,VWS V14.01,2013-09-18 21:23:00,
2013-09-18 17:24:00,84.6,60.9,29.74,NW,315,5.6,7.2,45,0.00,,---,0.00,VWS V14.01,2013-09-18 21:24:00,
2013-09-18 17:25:00,84.6,60.9,29.76,North,0,2.5,5.6,45,0.00,,---,0.00,VWS V14.01,2013-09-18 21:25:00,
2013-09-18 17:27:00,84.4,60.7,29.76,NW,315,6.3,6.7,45,0.00,,---,0.00,VWS V14.01,2013-09-18 21:27:00,
2013-09-18 17:28:00,84.2,61.2,29.76,NNE,22,3.4,6.3,46,0.00,,---,0.00,VWS V14.01,2013-09-18 21:28:00,
2013-09-18 17:29:00,84.0,61.0,29.76,NE,45,8.5,8.5,46,0.00,,---,0.00,VWS V14.01,2013-09-18 21:29:00,
2013-09-18 17:30:00,84.0,61.0,29.76,North,0,5.8,10.1,46,0.00,,---,0.00,VWS V14.01,2013-09-18 21:30:00,
2013-09-18 17:31:00,83.8,60.9,29.76,NNW,338,2.9,9.6,46,0.00,,---,0.00,VWS V14.01,2013-09-18 21:31:00,
2013-09-18 17:32:00,83.8,60.9,29.76,West,270,8.5,8.5,46,0.00,,---,0.00,VWS V14.01,2013-09-18 21:32:00,
2013-09-18 17:33:00,83.8,60.9,29.76,ENE,68,2.7,8.5,46,0.00,,---,0.00,VWS V14.01,2013-09-18 21:33:00,
2013-09-18 17:34:00,83.8,60.2,29.76,NW,315,3.1,3.1,45,0.00,,---,0.00,VWS V14.01,2013-09-18 21:34:00,
2013-09-18 17:35:00,83.7,60.1,29.76,NNW,338,4.9,8.1,45,0.00,,---,0.00,VWS V14.01,2013-09-18 21:35:00,
2013-09-18 17:36:00,83.7,60.1,29.76,NNE,22,4.5,7.6,45,0.00,,---,0.00,VWS V14.01,2013-09-18 21:36:00,
2013-09-18 17:37:00,83.7,60.1,29.76,NNW,338,6.3,8.1,45,0.00,,---,0.00,VWS V14.01,2013-09-18 21:37:00,
2013-09-18 17:38:00,83.5,59.3,29.76,NNE,22,3.6,9.4,44,0.00,,---,0.00,VWS V14.01,2013-09-18 21:38:00,
2013-09-18 17:39:00,83.5,59.9,29.76,NNW,338,5.8,9.2,45,0.00,,---,0.00,VWS V14.01,2013-09-18 21:39:00,
2013-09-18 17:40:00,83.5,59.9,29.74,NE,45,7.4,8.5,45,0.00,,---,0.00,VWS V14.01,2013-09-18 21:40:00,
2013-09-18 17:41:00,83.5,59.9,29.74,NE,45,4.0,7.4,45,0.00,,---,0.00,VWS V14.01,2013-09-18 21:41:00,
2013-09-18 17:42:00,83.3,59.8,29.74,East,90,4.3,7.4,45,0.00,,---,0.00,VWS V14.01,2013-09-18 21:42:00,
2013-09-18 17:43:00,83.3,59.8,29.74,NE,45,6.7,6.7,45,0.00,,---,0.00,VWS V14.01,2013-09-18 21:43:00,
2013-09-18 17:44:00,83.3,59.8,29.74,NE,45,3.1,6.7,45,0.00,,---,0.00,VWS V14.01,2013-09-18 21:44:00,
2013-09-18 17:45:00,83.1,60.2,29.74,SE,135,4.3,9.4,46,0.00,,---,0.00,VWS V14.01,2013-09-18 21:45:00,
2013-09-18 17:46:00,83.1,60.2,29.74,NW,315,2.9,4.3,46,0.00,,---,0.00,VWS V14.01,2013-09-18 21:46:00,
2013-09-18 17:47:00,83.1,60.2,29.74,NE,45,7.2,7.2,46,0.00,,---,0.00,VWS V14.01,2013-09-18 21:47:00,
2013-09-18 17:48:00,83.1,60.2,29.74,North,0,5.8,7.2,46,0.00,,---,0.00,VWS V14.01,2013-09-18 21:48:00,
2013-09-18 17:49:00,82.9,60.0,29.74,East,90,2.7,6.3,46,0.00,,---,0.00,VWS V14.01,2013-09-18 21:49:00,
2013-09-18 17:50:00,82.9,59.4,29.74,ENE,68,4.9,4.9,45,0.00,,---,0.00,VWS V14.01,2013-09-18 21:50:00,
2013-09-18 17:51:00,82.9,59.4,29.74,NNE,22,3.6,6.9,45,0.00,,---,0.00,VWS V14.01,2013-09-18 21:51:00,
2013-09-18 17:52:00,82.9,60.0,29.74,WNW,292,2.5,4.3,46,0.00,,---,0.00,VWS V14.01,2013-09-18 21:52:00,
2013-09-18 17:53:00,82.8,59.9,29.74,NW,315,2.0,4.3,46,0.00,,---,0.00,VWS V14.01,2013-09-18 21:53:00,
2013-09-18 17:54:00,82.8,59.9,29.74,SE,135,2.5,2.9,46,0.00,,---,0.00,VWS V14.01,2013-09-18 21:54:00,
2013-09-18 17:55:00,82.8,59.9,29.74,NW,315,2.7,2.9,46,0.00,,---,0.00,VWS V14.01,2013-09-18 21:55:00,
2013-09-18 17:56:00,82.8,59.9,29.74,NW,315,2.0,4.0,46,0.00,,---,0.00,VWS V14.01,2013-09-18 21:56:00,
2013-09-18 17:57:00,82.8,59.9,29.74,East,90,2.9,8.7,46,0.00,,---,0.00,VWS V14.01,2013-09-18 21:57:00,
2013-09-18 17:58:00,82.8,59.9,29.74,ENE,68,6.5,6.5,46,0.00,,---,0.00,VWS V14.01,2013-09-18 21:58:00,
2013-09-18 17:59:00,82.8,60.5,29.74,North,0,4.9,5.6,47,0.00,,---,0.00,VWS V14.01,2013-09-18 21:59:00,
2013-09-18 18:00:00,82.8,60.5,29.74,East,90,2.2,6.0,47,0.00,,---,0.00,VWS V14.01,2013-09-18 22:00:00,
2013-09-18 18:01:00,82.8,60.5,29.74,WSW,248,2.0,2.5,47,0.00,,---,0.00,VWS V14.01,2013-09-18 22:01:00,
2013-09-18 18:02:00,82.8,60.5,29.74,WNW,292,5.4,7.6,47,0.00,,---,0.00,VWS V14.01,2013-09-18 22:02:00,
2013-09-18 18:03:00,82.8,60.5,29.74,East,90,6.3,6.5,47,0.00,,---,0.00,VWS V14.01,2013-09-18 22:03:00,
2013-09-18 18:04:00,82.8,60.5,29.74,North,0,4.9,4.9,47,0.00,,---,0.00,VWS V14.01,2013-09-18 22:04:00,
2013-09-18 18:05:00,82.8,60.5,29.74,SE,135,3.8,5.8,47,0.00,,---,0.00,VWS V14.01,2013-09-18 22:05:00,
2013-09-18 18:06:00,82.8,60.5,29.74,North,0,2.5,3.8,47,0.00,,---,0.00,VWS V14.01,2013-09-18 22:06:00,
2013-09-18 18:07:00,82.8,60.5,29.74,North,0,4.7,7.4,47,0.00,,---,0.00,VWS V14.01,2013-09-18 22:07:00,
2013-09-18 18:08:00,82.8,60.5,29.74,North,0,1.6,6.3,47,0.00,,---,0.00,VWS V14.01,2013-09-18 22:08:00,
2013-09-18 18:09:00,82.8,60.5,29.76,NNE,22,4.3,4.9,47,0.00,,---,0.00,VWS V14.01,2013-09-18 22:09:00,
2013-09-18 18:10:00,82.8,60.5,29.76,WNW,292,3.8,8.7,47,0.00,,---,0.00,VWS V14.01,2013-09-18 22:10:00,
2013-09-18 18:11:00,82.8,60.5,29.76,ESE,112,6.0,6.0,47,0.00,,---,0.00,VWS V14.01,2013-09-18 22:11:00,
2013-09-18 18:12:00,82.8,60.5,29.76,NNE,22,4.3,6.0,47,0.00,,---,0.00,VWS V14.01,2013-09-18 22:12:00,
2013-09-18 18:13:00,82.8,61.1,29.76,NNE,22,10.3,10.3,48,0.00,,---,0.00,VWS V14.01,2013-09-18 22:13:00,
2013-09-18 18:14:00,82.8,61.1,29.76,NNE,22,2.7,10.3,48,0.00,,---,0.00,VWS V14.01,2013-09-18 22:14:00,
2013-09-18 18:15:00,82.8,61.1,29.76,North,0,6.5,6.5,48,0.00,,---,0.00,VWS V14.01,2013-09-18 22:15:00,
2013-09-18 18:16:00,82.8,61.1,29.76,North,0,2.5,6.0,48,0.00,,---,0.00,VWS V14.01,2013-09-18 22:16:00,
2013-09-18 18:17:00,82.9,61.2,29.76,NE,45,7.6,7.6,48,0.00,,---,0.00,VWS V14.01,2013-09-18 22:17:00,
2013-09-18 18:18:00,82.9,61.2,29.76,NE,45,5.6,8.5,48,0.00,,---,0.00,VWS V14.01,2013-09-18 22:18:00,
2013-09-18 18:19:00,82.9,61.2,29.76,NE,45,6.5,6.5,48,0.00,,---,0.00,VWS V14.01,2013-09-18 22:19:00,
2013-09-18 18:20:00,82.9,61.2,29.76,West,270,3.6,6.5,48,0.00,,---,0.00,VWS V14.01,2013-09-18 22:20:00,
2013-09-18 18:21:00,82.9,60.7,29.76,NW,315,4.9,5.6,47,0.00,,---,0.00,VWS V14.01,2013-09-18 22:21:00,
2013-09-18 18:22:00,82.9,60.7,29.76,North,0,5.8,5.8,47,0.00,,---,0.00,VWS V14.01,2013-09-18 22:22:00,
2013-09-18 18:23:00,83.1,60.8,29.76,NW,315,6.3,6.3,47,0.00,,---,0.00,VWS V14.01,2013-09-18 22:23:00,
2013-09-18 18:24:00,83.1,60.8,29.76,North,0,4.9,7.2,47,0.00,,---,0.00,VWS V14.01,2013-09-18 22:24:00,
2013-09-18 18:25:00,83.1,60.8,29.76,NNE,22,2.7,5.4,47,0.00,,---,0.00,VWS V14.01,2013-09-18 22:25:00,
2013-09-18 18:26:00,83.1,60.8,29.76,ENE,68,2.7,5.4,47,0.00,,---,0.00,VWS V14.01,2013-09-18 22:26:00,
2013-09-18 18:27:00,83.3,61.0,29.76,NE,45,3.8,3.8,47,0.00,,---,0.00,VWS V14.01,2013-09-18 22:27:00,
2013-09-18 18:28:00,83.3,61.0,29.76,NNW,338,2.0,3.8,47,0.00,,---,0.00,VWS V14.01,2013-09-18 22:28:00,
2013-09-18 18:29:00,83.3,61.0,29.76,North,0,2.9,5.6,47,0.00,,---,0.00,VWS V14.01,2013-09-18 22:29:00,
2013-09-18 18:30:00,83.3,61.0,29.76,West,270,4.0,4.7,47,0.00,,---,0.00,VWS V14.01,2013-09-18 22:30:00,
2013-09-18 18:31:00,83.3,61.6,29.76,NNW,338,6.0,6.3,48,0.00,,---,0.00,VWS V14.01,2013-09-18 22:31:00,
2013-09-18 18:32:00,83.3,61.6,29.76,ESE,112,2.0,6.0,48,0.00,,---,0.00,VWS V14.01,2013-09-18 22:32:00,
2013-09-18 18:33:00,83.1,60.8,29.76,ESE,112,2.2,4.3,47,0.00,,---,0.00,VWS V14.01,2013-09-18 22:33:00,
2013-09-18 18:34:00,83.1,61.4,29.76,NNW,338,7.4,7.4,48,0.00,,---,0.00,VWS V14.01,2013-09-18 22:34:00,
2013-09-18 18:35:00,83.1,61.4,29.76,SSW,202,3.4,7.4,48,0.00,,---,0.00,VWS V14.01,2013-09-18 22:35:00,
2013-09-18 18:36:00,83.1,61.4,29.76,WNW,292,2.9,8.7,48,0.00,,---,0.00,VWS V14.01,2013-09-18 22:36:00,
2013-09-18 18:37:00,82.9,61.2,29.76,North,0,5.4,5.4,48,0.00,,---,0.00,VWS V14.01,2013-09-18 22:37:00,
2013-09-18 18:38:00,82.9,61.2,29.76,NNW,338,2.9,7.2,48,0.00,,---,0.00,VWS V14.01,2013-09-18 22:38:00,
2013-09-18 18:40:00,82.8,61.1,29.74,NW,315,3.6,5.4,48,0.00,,---,0.00,VWS V14.01,2013-09-18 22:40:00,
2013-09-18 18:41:00,82.8,61.1,29.74,North,0,5.6,8.1,48,0.00,,---,0.00,VWS V14.01,2013-09-18 22:41:00,
2013-09-18 18:42:00,82.8,61.1,29.74,NE,45,2.0,5.6,48,0.00,,---,0.00,VWS V14.01,2013-09-18 22:42:00,
2013-09-18 18:43:00,82.6,61.5,29.74,NNW,338,5.4,5.4,49,0.00,,---,0.00,VWS V14.01,2013-09-18 22:43:00,
2013-09-18 18:44:00,82.6,61.5,29.74,NNW,338,6.0,6.0,49,0.00,,---,0.00,VWS V14.01,2013-09-18 22:44:00,
2013-09-18 18:45:00,82.6,61.5,29.74,NE,45,5.8,6.0,49,0.00,,---,0.00,VWS V14.01,2013-09-18 22:45:00,
2013-09-18 18:46:00,82.6,61.5,29.74,NE,45,6.3,6.3,49,0.00,,---,0.00,VWS V14.01,2013-09-18 22:46:00,
2013-09-18 18:47:00,82.6,61.5,29.74,NNW,338,4.0,6.3,49,0.00,,---,0.00,VWS V14.01,2013-09-18 22:47:00,
2013-09-18 18:48:00,82.6,62.1,29.74,NNE,22,3.8,5.4,50,0.00,,---,0.00,VWS V14.01,2013-09-18 22:48:00,
2013-09-18 18:49:00,82.6,62.1,29.74,ESE,112,3.8,9.8,50,0.00,,---,0.00,VWS V14.01,2013-09-18 22:49:00,
2013-09-18 18:50:00,82.4,61.9,29.74,NNW,338,1.3,3.8,50,0.00,,---,0.00,VWS V14.01,2013-09-18 22:50:00,
2013-09-18 18:51:00,82.4,61.9,29.74,ESE,112,1.3,2.9,50,0.00,,---,0.00,VWS V14.01,2013-09-18 22:51:00,
2013-09-18 18:52:00,82.4,62.5,29.74,NE,45,10.1,10.1,51,0.00,,---,0.00,VWS V14.01,2013-09-18 22:52:00,
2013-09-18 18:53:00,82.4,62.5,29.74,NNW,338,2.5,10.1,51,0.00,,---,0.00,VWS V14.01,2013-09-18 22:53:00,
2013-09-18 18:54:00,82.4,62.5,29.74,NNW,338,4.0,6.0,51,0.00,,---,0.00,VWS V14.01,2013-09-18 22:54:00,
2013-09-18 18:55:00,82.4,62.5,29.76,NW,315,5.4,7.2,51,0.00,,---,0.00,VWS V14.01,2013-09-18 22:55:00,
2013-09-18 18:56:00,82.4,62.5,29.76,North,0,2.0,5.4,51,0.00,,---,0.00,VWS V14.01,2013-09-18 22:56:00,
2013-09-18 18:57:00,82.2,62.3,29.76,NW,315,3.6,4.9,51,0.00,,---,0.00,VWS V14.01,2013-09-18 22:57:00,
2013-09-18 18:58:00,82.2,62.9,29.76,NW,315,6.3,6.3,52,0.00,,---,0.00,VWS V14.01,2013-09-18 22:58:00,
2013-09-18 18:59:00,82.2,62.9,29.76,North,0,6.3,6.3,52,0.00,,---,0.00,VWS V14.01,2013-09-18 22:59:00,
2013-09-18 19:00:00,82.0,62.7,29.76,NNE,22,2.5,6.3,52,0.00,,---,0.00,VWS V14.01,2013-09-18 23:00:00,
2013-09-18 19:02:00,82.0,62.7,29.76,SSW,202,3.4,4.3,52,0.00,,---,0.00,VWS V14.01,2013-09-18 23:02:00,
2013-09-18 19:03:00,82.0,62.7,29.76,SW,225,7.8,7.8,52,0.00,,---,0.00,VWS V14.01,2013-09-18 23:03:00,
2013-09-18 19:04:00,82.0,62.7,29.76,North,0,2.0,7.8,52,0.00,,---,0.00,VWS V14.01,2013-09-18 23:04:00,
2013-09-18 19:05:00,81.9,62.5,29.76,NW,315,3.8,3.8,52,0.00,,---,0.00,VWS V14.01,2013-09-18 23:05:00,
2013-09-18 19:06:00,81.9,62.5,29.76,NNE,22,4.9,4.9,52,0.00,,---,0.00,VWS V14.01,2013-09-18 23:06:00,
2013-09-18 19:07:00,81.9,62.5,29.76,East,90,1.3,4.9,52,0.00,,---,0.00,VWS V14.01,2013-09-18 23:07:00,
2013-09-18 19:08:00,81.9,63.1,29.76,NNW,338,5.8,5.8,53,0.00,,---,0.00,VWS V14.01,2013-09-18 23:08:00,
2013-09-18 19:09:00,81.9,63.6,29.76,NE,45,4.9,6.5,54,0.00,,---,0.00,VWS V14.01,2013-09-18 23:09:00,
2013-09-18 19:10:00,81.9,63.1,29.76,NNE,22,9.4,9.4,53,0.00,,---,0.00,VWS V14.01,2013-09-18 23:10:00,
2013-09-18 19:11:00,81.7,63.4,29.76,NNW,338,5.8,10.1,54,0.00,,---,0.00,VWS V14.01,2013-09-18 23:11:00,
2013-09-18 19:12:00,81.7,63.4,29.76,NNE,22,4.7,5.8,54,0.00,,---,0.00,VWS V14.01,2013-09-18 23:12:00,
2013-09-18 19:13:00,81.7,63.4,29.76,NNE,22,4.7,4.7,54,0.00,,---,0.00,VWS V14.01,2013-09-18 23:13:00,
2013-09-18 19:14:00,81.7,63.4,29.76,East,90,3.4,7.6,54,0.00,,---,0.00,VWS V14.01,2013-09-18 23:14:00,
2013-09-18 19:15:00,81.7,63.4,29.76,NW,315,3.6,4.0,54,0.00,,---,0.00,VWS V14.01,2013-09-18 23:15:00,
2013-09-18 19:16:00,81.7,64.0,29.76,NE,45,3.4,5.4,55,0.00,,---,0.00,VWS V14.01,2013-09-18 23:16:00,
2013-09-18 19:17:00,81.5,63.8,29.76,NE,45,3.1,4.0,55,0.00,,---,0.00,VWS V14.01,2013-09-18 23:17:00,
2013-09-18 19:18:00,81.5,64.3,29.76,North,0,1.3,3.6,56,0.00,,---,0.00,VWS V14.01,2013-09-18 23:18:00,
2013-09-18 19:19:00,81.5,64.3,29.76,NNE,22,1.1,2.2,56,0.00,,---,0.00,VWS V14.01,2013-09-18 23:19:00,
2013-09-18 19:20:00,81.3,64.1,29.76,NNE,22,2.5,3.4,56,0.00,,---,0.00,VWS V14.01,2013-09-18 23:20:00,
2013-09-18 19:21:00,81.0,63.8,29.76,ENE,68,2.7,2.7,56,0.00,,---,0.00,VWS V14.01,2013-09-18 23:21:00,
2013-09-18 19:22:00,81.0,64.3,29.76,NW,315,3.6,3.6,57,0.00,,---,0.00,VWS V14.01,2013-09-18 23:22:00,
2013-09-18 19:23:00,80.8,64.6,29.76,NE,45,6.5,6.5,58,0.00,,---,0.00,VWS V14.01,2013-09-18 23:23:00,
2013-09-18 19:24:00,80.8,64.6,29.76,West,270,4.3,6.5,58,0.00,,---,0.00,VWS V14.01,2013-09-18 23:24:00,
2013-09-18 19:25:00,80.6,64.5,29.76,WNW,292,3.1,5.6,58,0.00,,---,0.00,VWS V14.01,2013-09-18 23:25:00,
2013-09-18 19:26:00,80.6,64.5,29.76,WSW,248,3.1,6.0,58,0.00,,---,0.00,VWS V14.01,2013-09-18 23:26:00,
2013-09-18 19:27:00,80.6,64.5,29.76,NE,45,3.1,6.5,58,0.00,,---,0.00,VWS V14.01,2013-09-18 23:27:00,
2013-09-18 19:28:00,80.4,64.3,29.76,NNE,22,5.6,5.6,58,0.00,,---,0.00,VWS V14.01,2013-09-18 23:28:00,
2013-09-18 19:29:00,80.4,64.3,29.76,North,0,6.3,8.5,58,0.00,,---,0.00,VWS V14.01,2013-09-18 23:29:00,
2013-09-18 19:30:00,80.4,64.3,29.76,NNW,338,4.9,6.3,58,0.00,,---,0.00,VWS V14.01,2013-09-18 23:30:00,
2013-09-18 19:31:00,80.4,64.3,29.76,NNW,338,6.0,6.0,58,0.00,,---,0.00,VWS V14.01,2013-09-18 23:31:00,
2013-09-18 19:32:00,80.4,64.8,29.76,NE,45,3.8,6.0,59,0.00,,---,0.00,VWS V14.01,2013-09-18 23:32:00,
2013-09-18 19:33:00,80.4,64.3,29.76,ENE,68,3.6,4.3,58,0.00,,---,0.00,VWS V14.01,2013-09-18 23:33:00,
2013-09-18 19:34:00,80.2,64.1,29.76,ESE,112,2.7,4.0,58,0.00,,---,0.00,VWS V14.01,2013-09-18 23:34:00,
2013-09-18 19:35:00,80.2,64.6,29.76,East,90,2.5,3.6,59,0.00,,---,0.00,VWS V14.01,2013-09-18 23:35:00,
2013-09-18 19:36:00,80.2,64.6,29.76,ENE,68,1.6,5.6,59,0.00,,---,0.00,VWS V14.01,2013-09-18 23:36:00,
2013-09-18 19:37:00,80.2,64.6,29.76,NE,45,1.6,3.6,59,0.00,,---,0.00,VWS V14.01,2013-09-18 23:37:00,
2013-09-18 19:38:00,80.2,64.6,29.76,NE,45,1.6,2.0,59,0.00,,---,0.00,VWS V14.01,2013-09-18 23:38:00,
2013-09-18 19:39:00,80.2,64.6,29.76,East,90,2.0,7.8,59,0.00,,---,0.00,VWS V14.01,2013-09-18 23:39:00,
2013-09-18 19:40:00,80.1,64.5,29.76,NNW,338,4.0,4.0,59,0.00,,---,0.00,VWS V14.01,2013-09-18 23:40:00,
2013-09-18 19:41:00,80.1,64.5,29.76,NNW,338,5.6,5.6,59,0.00,,---,0.00,VWS V14.01,2013-09-18 23:41:00,
2013-09-18 19:42:00,80.1,64.5,29.76,NW,315,2.0,5.6,59,0.00,,---,0.00,VWS V14.01,2013-09-18 23:42:00,
2013-09-18 19:43:00,80.1,64.5,29.76,East,90,4.7,4.7,59,0.00,,---,0.00,VWS V14.01,2013-09-18 23:43:00,
2013-09-18 19:44:00,80.1,64.5,29.76,NE,45,2.9,4.7,59,0.00,,---,0.00,VWS V14.01,2013-09-18 23:44:00,
2013-09-18 19:45:00,80.1,64.5,29.76,NNE,22,0.9,2.9,59,0.00,,---,0.00,VWS V14.01,2013-09-18 23:45:00,
2013-09-18 19:46:00,80.1,64.5,29.76,North,0,2.9,2.9,59,0.00,,---,0.00,VWS V14.01,2013-09-18 23:46:00,
2013-09-18 19:47:00,79.9,64.3,29.76,ESE,112,3.6,6.5,59,0.00,,---,0.00,VWS V14.01,2013-09-18 23:47:00,
2013-09-18 19:48:00,79.9,64.3,29.76,NE,45,4.7,4.7,59,0.00,,---,0.00,VWS V14.01,2013-09-18 23:48:00,
2013-09-18 19:49:00,79.9,64.3,29.76,NNW,338,4.0,4.7,59,0.00,,---,0.00,VWS V14.01,2013-09-18 23:49:00,
2013-09-18 19:50:00,79.9,64.3,29.76,NNW,338,1.6,5.4,59,0.00,,---,0.00,VWS V14.01,2013-09-18 23:50:00,
2013-09-18 19:51:00,79.7,64.1,29.76,NNW,338,5.8,5.8,59,0.00,,---,0.00,VWS V14.01,2013-09-18 23:51:00,
2013-09-18 19:52:00,79.7,64.1,29.76,NNE,22,3.8,5.8,59,0.00,,---,0.00,VWS V14.01,2013-09-18 23:52:00,
2013-09-18 19:53:00,79.7,64.1,29.76,ENE,68,3.8,3.8,59,0.00,,---,0.00,VWS V14.01,2013-09-18 23:53:00,
2013-09-18 19:55:00,79.7,64.1,29.76,SW,225,2.5,2.5,59,0.00,,---,0.00,VWS V14.01,2013-09-18 23:55:00,
2013-09-18 19:56:00,79.7,64.1,29.76,NNW,338,1.6,2.5,59,0.00,,---,0.00,VWS V14.01,2013-09-18 23:56:00,
2013-09-18 19:57:00,79.5,64.0,29.76,SE,135,2.2,5.4,59,0.00,,---,0.00,VWS V14.01,2013-09-18 23:57:00,
2013-09-18 19:58:00,79.5,64.0,29.76,NW,315,2.9,3.4,59,0.00,,---,0.00,VWS V14.01,2013-09-18 23:58:00,
2013-09-18 19:59:00,79.5,64.0,29.76,East,90,2.5,3.6,59,0.00,,---,0.00,VWS V14.01,2013-09-18 23:59:00,
2013-09-18 20:00:00,79.5,64.0,29.76,NE,45,2.0,7.2,59,0.00,,---,0.00,VWS V14.01,2013-09-19 00:00:00,
2013-09-18 20:01:00,79.5,64.0,29.76,East,90,2.5,2.5,59,0.00,,---,0.00,VWS V14.01,2013-09-19 00:01:00,
2013-09-18 20:02:00,79.5,64.0,29.76,North,0,2.5,2.5,59,0.00,,---,0.00,VWS V14.01,2013-09-19 00:02:00,
2013-09-18 20:03:00,79.5,64.0,29.76,ENE,68,3.1,6.3,59,0.00,,---,0.00,VWS V14.01,2013-09-19 00:03:00,
2013-09-18 20:04:00,79.5,64.0,29.76,NNE,22,3.6,4.3,59,0.00,,---,0.00,VWS V14.01,2013-09-19 00:04:00,
2013-09-18 20:05:00,79.3,63.8,29.76,East,90,2.2,4.3,59,0.00,,---,0.00,VWS V14.01,2013-09-19 00:05:00,
2013-09-18 20:06:00,79.3,63.8,29.76,WSW,248,3.1,3.1,59,0.00,,---,0.00,VWS V14.01,2013-09-19 00:06:00,
2013-09-18 20:07:00,79.3,63.8,29.76,East,90,1.1,3.1,59,0.00,,---,0.00,VWS V14.01,2013-09-19 00:07:00,
2013-09-18 20:08:00,79.3,63.8,29.76,North,0,5.4,5.4,59,0.00,,---,0.00,VWS V14.01,2013-09-19 00:08:00,
2013-09-18 20:09:00,79.2,63.6,29.76,NNE,22,2.7,5.6,59,0.00,,---,0.00,VWS V14.01,2013-09-19 00:09:00,
2013-09-18 20:10:00,79.2,63.6,29.76,NE,45,1.6,3.4,59,0.00,,---,0.00,VWS V14.01,2013-09-19 00:10:00,
2013-09-18 20:11:00,79.2,63.6,29.76,NE,45,2.0,3.8,59,0.00,,---,0.00,VWS V14.01,2013-09-19 00:11:00,
2013-09-18 20:12:00,79.2,63.6,29.76,NE,45,3.6,3.6,59,0.00,,---,0.00,VWS V14.01,2013-09-19 00:12:00,
2013-09-18 20:13:00,79.2,64.1,29.76,NE,45,2.2,3.6,60,0.00,,---,0.00,VWS V14.01,2013-09-19 00:13:00,
2013-09-18 20:14:00,79.2,64.1,29.76,NW,315,3.6,3.8,60,0.00,,---,0.00,VWS V14.01,2013-09-19 00:14:00,
2013-09-18 20:15:00,79.2,64.1,29.76,SE,135,1.1,3.6,60,0.00,,---,0.00,VWS V14.01,2013-09-19 00:15:00,
2013-09-18 20:16:00,79.0,63.4,29.76,South,180,0.0,2.7,59,0.00,,---,0.00,VWS V14.01,2013-09-19 00:16:00,
2013-09-18 20:17:00,79.0,63.4,29.76,WSW,248,1.6,1.6,59,0.00,,---,0.00,VWS V14.01,2013-09-19 00:17:00,
2013-09-18 20:18:00,79.0,63.4,29.76,NNE,22,3.6,3.6,59,0.00,,---,0.00,VWS V14.01,2013-09-19 00:18:00,
2013-09-18 20:19:00,79.0,63.4,29.76,NNE,22,3.8,6.7,59,0.00,,---,0.00,VWS V14.01,2013-09-19 00:19:00,
2013-09-18 20:20:00,79.0,63.9,29.76,NNE,22,1.1,3.8,60,0.00,,---,0.00,VWS V14.01,2013-09-19 00:20:00,
2013-09-18 20:21:00,78.8,63.3,29.76,East,90,2.5,2.9,59,0.00,,---,0.00,VWS V14.01,2013-09-19 00:21:00,
2013-09-18 20:22:00,78.8,63.8,29.76,NE,45,5.4,5.6,60,0.00,,---,0.00,VWS V14.01,2013-09-19 00:22:00,
2013-09-18 20:23:00,78.8,63.8,29.76,NW,315,3.6,5.4,60,0.00,,---,0.00,VWS V14.01,2013-09-19 00:23:00,
2013-09-18 20:24:00,78.8,63.8,29.76,SE,135,2.0,4.0,60,0.00,,---,0.00,VWS V14.01,2013-09-19 00:24:00,
2013-09-18 20:25:00,78.8,63.8,29.76,SE,135,2.0,2.0,60,0.00,,---,0.00,VWS V14.01,2013-09-19 00:25:00,
2013-09-18 20:26:00,78.8,63.8,29.76,NW,315,2.9,3.6,60,0.00,,---,0.00,VWS V14.01,2013-09-19 00:26:00,
2013-09-18 20:27:00,78.8,63.8,29.76,NNW,338,4.0,7.6,60,0.00,,---,0.00,VWS V14.01,2013-09-19 00:27:00,
2013-09-18 20:28:00,79.0,63.9,29.76,East,90,2.5,4.0,60,0.00,,---,0.00,VWS V14.01,2013-09-19 00:28:00,
2013-09-18 20:29:00,78.8,63.8,29.76,ESE,112,1.6,2.5,60,0.00,,---,0.00,VWS V14.01,2013-09-19 00:29:00,
2013-09-18 20:30:00,78.8,63.8,29.76,WNW,292,1.3,1.3,60,0.00,,---,0.00,VWS V14.01,2013-09-19 00:30:00,
2013-09-18 20:32:00,78.8,63.8,29.76,NNW,338,1.1,2.9,60,0.00,,---,0.00,VWS V14.01,2013-09-19 00:32:00,
2013-09-18 20:33:00,78.8,63.8,29.76,ENE,68,3.4,3.4,60,0.00,,---,0.00,VWS V14.01,2013-09-19 00:33:00,
2013-09-18 20:34:00,78.8,63.8,29.76,NNE,22,3.1,4.9,60,0.00,,---,0.00,VWS V14.01,2013-09-19 00:34:00,
2013-09-18 20:35:00,78.8,63.8,29.76,NE,45,4.3,4.3,60,0.00,,---,0.00,VWS V14.01,2013-09-19 00:35:00,
2013-09-18 20:36:00,78.8,63.8,29.76,West,270,2.7,4.3,60,0.00,,---,0.00,VWS V14.01,2013-09-19 00:36:00,
2013-09-18 20:37:00,78.8,63.8,29.76,WNW,292,2.7,2.7,60,0.00,,---,0.00,VWS V14.01,2013-09-19 00:37:00,
2013-09-18 20:38:00,78.8,63.8,29.76,NNW,338,4.3,4.3,60,0.00,,---,0.00,VWS V14.01,2013-09-19 00:38:00,
2013-09-18 20:39:00,78.8,64.2,29.76,SE,135,1.6,4.3,61,0.00,,---,0.00,VWS V14.01,2013-09-19 00:39:00,
2013-09-18 20:40:00,78.8,64.2,29.76,NNE,22,1.3,1.6,61,0.00,,---,0.00,VWS V14.01,2013-09-19 00:40:00,
2013-09-18 20:41:00,78.8,64.2,29.76,North,0,2.7,2.7,61,0.00,,---,0.00,VWS V14.01,2013-09-19 00:41:00,
2013-09-18 20:42:00,78.6,64.1,29.76,NE,45,1.3,3.4,61,0.00,,---,0.00,VWS V14.01,2013-09-19 00:42:00,
2013-09-18 20:43:00,78.6,64.1,29.76,NE,45,0.0,1.3,61,0.00,,---,0.00,VWS V14.01,2013-09-19 00:43:00,
2013-09-18 20:44:00,78.6,64.1,29.76,NE,45,0.9,0.9,61,0.00,,---,0.00,VWS V14.01,2013-09-19 00:44:00,
2013-09-18 20:45:00,78.6,64.1,29.76,NNW,338,2.9,5.6,61,0.00,,---,0.00,VWS V14.01,2013-09-19 00:45:00,
2013-09-18 20:46:00,78.6,64.1,29.76,NNE,22,2.5,5.6,61,0.00,,---,0.00,VWS V14.01,2013-09-19 00:46:00,
2013-09-18 20:47:00,78.4,63.9,29.76,NE,45,5.6,5.6,61,0.00,,---,0.00,VWS V14.01,2013-09-19 00:47:00,
2013-09-18 20:48:00,78.4,63.9,29.76,NNE,22,3.4,6.9,61,0.00,,---,0.00,VWS V14.01,2013-09-19 00:48:00,
2013-09-18 20:49:00,78.4,63.9,29.76,NW,315,0.9,3.4,61,0.00,,---,0.00,VWS V14.01,2013-09-19 00:49:00,
2013-09-18 20:50:00,78.4,64.3,29.76,NNE,22,1.6,3.6,62,0.00,,---,0.00,VWS V14.01,2013-09-19 00:50:00,
2013-09-18 20:52:00,78.4,63.9,29.76,NE,45,4.3,4.9,61,0.00,,---,0.00,VWS V14.01,2013-09-19 00:52:00,
2013-09-18 20:53:00,78.4,64.3,29.76,NE,45,4.0,4.9,62,0.00,,---,0.00,VWS V14.01,2013-09-19 00:53:00,
2013-09-18 20:54:00,78.4,64.3,29.76,NE,45,3.4,4.9,62,0.00,,---,0.00,VWS V14.01,2013-09-19 00:54:00,
2013-09-18 20:55:00,78.4,63.9,29.79,North,0,2.5,4.7,61,0.00,,---,0.00,VWS V14.01,2013-09-19 00:55:00,
2013-09-18 20:56:00,78.4,64.3,29.80,NE,45,4.3,4.7,62,0.00,,---,0.00,VWS V14.01,2013-09-19 00:56:00,
2013-09-18 20:57:00,78.4,63.9,29.80,NE,45,1.1,4.3,61,0.00,,---,0.00,VWS V14.01,2013-09-19 00:57:00,
2013-09-18 20:58:00,78.4,63.9,29.80,NNE,22,2.5,3.8,61,0.00,,---,0.00,VWS V14.01,2013-09-19 00:58:00,
2013-09-18 20:59:00,78.4,64.3,29.80,NNE,22,3.8,4.7,62,0.00,,---,0.00,VWS V14.01,2013-09-19 00:59:00,
2013-09-18 21:00:00,78.4,64.3,29.79,NE,45,4.0,4.0,62,0.00,,---,0.00,VWS V14.01,2013-09-19 01:00:00,
2013-09-18 21:01:00,78.4,64.3,29.80,NE,45,1.3,4.3,62,0.00,,---,0.00,VWS V14.01,2013-09-19 01:01:00,
2013-09-18 21:02:00,78.4,64.3,29.80,NNW,338,2.5,4.7,62,0.00,,---,0.00,VWS V14.01,2013-09-19 01:02:00,
2013-09-18 21:03:00,78.4,64.3,29.80,NNW,338,2.7,3.8,62,0.00,,---,0.00,VWS V14.01,2013-09-19 01:03:00,
2013-09-18 21:04:00,78.4,64.3,29.80,East,90,0.0,2.7,62,0.00,,---,0.00,VWS V14.01,2013-09-19 01:04:00,
2013-09-18 21:05:00,78.3,64.2,29.79,ENE,68,1.1,2.0,62,0.00,,---,0.00,VWS V14.01,2013-09-19 01:05:00,
2013-09-18 21:06:00,78.3,64.2,29.80,ENE,68,1.6,2.0,62,0.00,,---,0.00,VWS V14.01,2013-09-19 01:06:00,
2013-09-18 21:07:00,78.3,64.2,29.80,South,180,2.9,2.9,62,0.00,,---,0.00,VWS V14.01,2013-09-19 01:07:00,
2013-09-18 21:08:00,78.3,64.2,29.80,South,180,1.1,2.9,62,0.00,,---,0.00,VWS V14.01,2013-09-19 01:08:00,
2013-09-18 21:09:00,78.3,64.2,29.80,WNW,292,2.7,4.0,62,0.00,,---,0.00,VWS V14.01,2013-09-19 01:09:00,
2013-09-18 21:10:00,78.3,64.2,29.79,NW,315,1.1,1.6,62,0.00,,---,0.00,VWS V14.01,2013-09-19 01:10:00,
2013-09-18 21:11:00,78.1,64.0,29.80,NNE,22,0.9,1.6,62,0.00,,---,0.00,VWS V14.01,2013-09-19 01:11:00,
2013-09-18 21:12:00,78.1,64.0,29.80,WSW,248,0.9,2.5,62,0.00,,---,0.00,VWS V14.01,2013-09-19 01:12:00,
2013-09-18 21:13:00,78.1,64.5,29.80,NNW,338,2.5,3.1,63,0.00,,---,0.00,VWS V14.01,2013-09-19 01:13:00,
2013-09-18 21:14:00,78.1,64.0,29.80,NNE,22,0.0,2.5,62,0.00,,---,0.00,VWS V14.01,2013-09-19 01:14:00,
2013-09-18 21:15:00,78.1,64.5,29.79,NW,315,4.0,4.0,63,0.00,,---,0.00,VWS V14.01,2013-09-19 01:15:00,
2013-09-18 21:16:00,78.1,64.5,29.80,NNE,22,1.3,4.0,63,0.00,,---,0.00,VWS V14.01,2013-09-19 01:16:00,
2013-09-18 21:17:00,78.1,64.0,29.80,West,270,2.2,2.7,62,0.00,,---,0.00,VWS V14.01,2013-09-19 01:17:00,
2013-09-18 21:18:00,78.1,64.0,29.80,West,270,0.9,2.5,62,0.00,,---,0.00,VWS V14.01,2013-09-19 01:18:00,
2013-09-18 21:19:00,78.1,64.0,29.80,SE,135,1.3,1.3,62,0.00,,---,0.00,VWS V14.01,2013-09-19 01:19:00,
2013-09-18 21:20:00,77.9,63.8,29.79,SE,135,0.9,1.6,62,0.00,,---,0.00,VWS V14.01,2013-09-19 01:20:00,
2013-09-18 21:21:00,77.9,63.8,29.80,ENE,68,1.1,1.6,62,0.00,,---,0.00,VWS V14.01,2013-09-19 01:21:00,
2013-09-18 21:22:00,77.9,63.8,29.80,NE,45,2.5,2.5,62,0.00,,---,0.00,VWS V14.01,2013-09-19 01:22:00,
2013-09-18 21:23:00,77.9,64.3,29.80,NNW,338,2.0,2.5,63,0.00,,---,0.00,VWS V14.01,2013-09-19 01:23:00,
2013-09-18 21:24:00,77.9,64.3,29.80,NE,45,2.5,2.9,63,0.00,,---,0.00,VWS V14.01,2013-09-19 01:24:00,
2013-09-18 21:25:00,77.9,64.3,29.79,NE,45,2.5,3.6,63,0.00,,---,0.00,VWS V14.01,2013-09-19 01:25:00,
2013-09-18 21:26:00,77.9,64.3,29.80,North,0,2.7,3.6,63,0.00,,---,0.00,VWS V14.01,2013-09-19 01:26:00,
2013-09-18 21:27:00,77.7,64.1,29.80,NNW,338,1.6,4.0,63,0.00,,---,0.00,VWS V14.01,2013-09-19 01:27:00,
2013-09-18 21:28:00,77.7,64.1,29.80,NW,315,1.3,1.6,63,0.00,,---,0.00,VWS V14.01,2013-09-19 01:28:00,
2013-09-18 21:29:00,77.7,64.1,29.80,NE,45,0.0,1.6,63,0.00,,---,0.00,VWS V14.01,2013-09-19 01:29:00,
2013-09-18 21:30:00,77.7,64.1,29.79,WNW,292,2.7,2.7,63,0.00,,---,0.00,VWS V14.01,2013-09-19 01:30:00,
2013-09-18 21:31:00,77.7,64.1,29.80,WNW,292,1.6,2.7,63,0.00,,---,0.00,VWS V14.01,2013-09-19 01:31:00,
2013-09-18 21:32:00,77.7,64.6,29.80,NW,315,2.0,2.7,64,0.00,,---,0.00,VWS V14.01,2013-09-19 01:32:00,
2013-09-18 21:33:00,77.7,64.1,29.80,NE,45,1.1,2.0,63,0.00,,---,0.00,VWS V14.01,2013-09-19 01:33:00,
2013-09-18 21:34:00,77.5,64.0,29.80,NE,45,2.2,2.2,63,0.00,,---,0.00,VWS V14.01,2013-09-19 01:34:00,
2013-09-18 21:35:00,77.5,64.0,29.80,NE,45,1.6,4.3,63,0.00,,---,0.00,VWS V14.01,2013-09-19 01:35:00,
2013-09-18 21:36:00,77.5,64.4,29.79,NE,45,1.1,1.6,64,0.00,,---,0.00,VWS V14.01,2013-09-19 01:36:00,
2013-09-18 21:37:00,77.5,64.4,29.80,North,0,5.4,5.4,64,0.00,,---,0.00,VWS V14.01,2013-09-19 01:37:00,
2013-09-18 21:38:00,77.5,64.4,29.80,NW,315,2.0,5.4,64,0.00,,---,0.00,VWS V14.01,2013-09-19 01:38:00,
2013-09-18 21:39:00,77.5,64.4,29.80,NW,315,2.2,4.0,64,0.00,,---,0.00,VWS V14.01,2013-09-19 01:39:00,
2013-09-18 21:40:00,77.5,64.4,29.80,WNW,292,1.1,2.9,64,0.00,,---,0.00,VWS V14.01,2013-09-19 01:40:00,
2013-09-18 21:41:00,77.5,64.0,29.79,NNE,22,2.5,2.5,63,0.00,,---,0.00,VWS V14.01,2013-09-19 01:41:00,
2013-09-18 21:42:00,77.4,63.8,29.80,NNE,22,2.2,4.9,63,0.00,,---,0.00,VWS V14.01,2013-09-19 01:42:00,
2013-09-18 21:43:00,77.4,64.2,29.80,ENE,68,2.2,2.2,64,0.00,,---,0.00,VWS V14.01,2013-09-19 01:43:00,
2013-09-18 21:44:00,77.4,64.2,29.79,NNE,22,1.6,2.5,64,0.00,,---,0.00,VWS V14.01,2013-09-19 01:44:00,
2013-09-18 21:46:00,77.4,64.2,29.79,NNE,22,1.6,2.5,64,0.00,,---,0.00,VWS V14.01,2013-09-19 01:46:00,
2013-09-18 21:51:00,77.4,64.2,29.79,NNE,22,1.6,2.5,64,0.00,,---,0.00,VWS V14.01,2013-09-19 01:51:00,